<?xml version="1.0" encoding="UTF-8" standalone="no" ?>
<gpx xmlns="http://www.topografix.com/GPX/1/1" xmlns:xsi="http://www.w3.org/2001/XMLSchema-instance" xsi:schemaLocation="http://www.topografix.com/GPX/1/1 http://www.topografix.com/GPX/1/1/gpx.xsd" version="1.1" creator="VisuGPX - https://www.visugpx.com">
  <metadata>
    <name>Pointe du raz</name>
    <desc><![CDATA[1 er jour: Port le Brezellec - Beuzec Cap Sizen]]></desc>
  </metadata>
  <trk>
    <name><![CDATA[25-MAI-17 06:55:10 PM]]></name>
    <trkseg>
      <trkpt lat="48.06981" lon="-4.66468">
        <ele>72.72</ele>
        <time>2017-05-25T09:07:16Z</time>
      </trkpt>
      <trkpt lat="48.0698" lon="-4.66466">
        <ele>63.1</ele>
        <time>2017-05-25T09:07:37Z</time>
      </trkpt>
      <trkpt lat="48.06978" lon="-4.66467">
        <ele>62.62</ele>
        <time>2017-05-25T09:07:52Z</time>
      </trkpt>
      <trkpt lat="48.06977" lon="-4.66466">
        <ele>61.66</ele>
        <time>2017-05-25T09:08:08Z</time>
      </trkpt>
      <trkpt lat="48.06977" lon="-4.66467">
        <ele>60.7</ele>
        <time>2017-05-25T09:08:27Z</time>
      </trkpt>
      <trkpt lat="48.06978" lon="-4.66467">
        <ele>59.26</ele>
        <time>2017-05-25T09:08:50Z</time>
      </trkpt>
      <trkpt lat="48.06978" lon="-4.66467">
        <ele>60.22</ele>
        <time>2017-05-25T09:09:12Z</time>
      </trkpt>
      <trkpt lat="48.06978" lon="-4.66467">
        <ele>61.66</ele>
        <time>2017-05-25T09:09:43Z</time>
      </trkpt>
      <trkpt lat="48.06978" lon="-4.66467">
        <ele>62.14</ele>
        <time>2017-05-25T09:09:57Z</time>
      </trkpt>
      <trkpt lat="48.0698" lon="-4.66449">
        <ele>59.74</ele>
        <time>2017-05-25T09:10:12Z</time>
      </trkpt>
      <trkpt lat="48.06981" lon="-4.66447">
        <ele>60.7</ele>
        <time>2017-05-25T09:10:38Z</time>
      </trkpt>
      <trkpt lat="48.06981" lon="-4.66446">
        <ele>60.22</ele>
        <time>2017-05-25T09:10:56Z</time>
      </trkpt>
      <trkpt lat="48.06981" lon="-4.66446">
        <ele>60.7</ele>
        <time>2017-05-25T09:11:14Z</time>
      </trkpt>
      <trkpt lat="48.0698" lon="-4.66448">
        <ele>60.7</ele>
        <time>2017-05-25T09:11:35Z</time>
      </trkpt>
      <trkpt lat="48.0698" lon="-4.66447">
        <ele>60.22</ele>
        <time>2017-05-25T09:11:47Z</time>
      </trkpt>
      <trkpt lat="48.06979" lon="-4.66443">
        <ele>60.22</ele>
        <time>2017-05-25T09:11:58Z</time>
      </trkpt>
      <trkpt lat="48.06978" lon="-4.66441">
        <ele>60.22</ele>
        <time>2017-05-25T09:12:00Z</time>
      </trkpt>
      <trkpt lat="48.06977" lon="-4.66432">
        <ele>59.26</ele>
        <time>2017-05-25T09:12:05Z</time>
      </trkpt>
      <trkpt lat="48.06978" lon="-4.66419">
        <ele>57.82</ele>
        <time>2017-05-25T09:12:20Z</time>
      </trkpt>
      <trkpt lat="48.06979" lon="-4.66414">
        <ele>56.86</ele>
        <time>2017-05-25T09:12:33Z</time>
      </trkpt>
      <trkpt lat="48.06979" lon="-4.66413">
        <ele>55.89</ele>
        <time>2017-05-25T09:12:43Z</time>
      </trkpt>
      <trkpt lat="48.06974" lon="-4.66408">
        <ele>55.89</ele>
        <time>2017-05-25T09:12:47Z</time>
      </trkpt>
      <trkpt lat="48.06966" lon="-4.66409">
        <ele>55.89</ele>
        <time>2017-05-25T09:12:54Z</time>
      </trkpt>
      <trkpt lat="48.06959" lon="-4.66415">
        <ele>56.86</ele>
        <time>2017-05-25T09:13:08Z</time>
      </trkpt>
      <trkpt lat="48.06953" lon="-4.66414">
        <ele>57.82</ele>
        <time>2017-05-25T09:13:22Z</time>
      </trkpt>
      <trkpt lat="48.0694" lon="-4.66417">
        <ele>59.74</ele>
        <time>2017-05-25T09:13:36Z</time>
      </trkpt>
      <trkpt lat="48.06938" lon="-4.66418">
        <ele>60.22</ele>
        <time>2017-05-25T09:13:38Z</time>
      </trkpt>
      <trkpt lat="48.0693" lon="-4.6642">
        <ele>61.18</ele>
        <time>2017-05-25T09:13:45Z</time>
      </trkpt>
      <trkpt lat="48.06927" lon="-4.6642">
        <ele>61.66</ele>
        <time>2017-05-25T09:13:48Z</time>
      </trkpt>
      <trkpt lat="48.06911" lon="-4.66421">
        <ele>64.07</ele>
        <time>2017-05-25T09:14:04Z</time>
      </trkpt>
      <trkpt lat="48.06908" lon="-4.66411">
        <ele>65.51</ele>
        <time>2017-05-25T09:14:14Z</time>
      </trkpt>
      <trkpt lat="48.06909" lon="-4.66398">
        <ele>64.07</ele>
        <time>2017-05-25T09:14:23Z</time>
      </trkpt>
      <trkpt lat="48.06903" lon="-4.66381">
        <ele>61.66</ele>
        <time>2017-05-25T09:14:35Z</time>
      </trkpt>
      <trkpt lat="48.06897" lon="-4.66377">
        <ele>59.26</ele>
        <time>2017-05-25T09:14:51Z</time>
      </trkpt>
      <trkpt lat="48.06882" lon="-4.66362">
        <ele>58.3</ele>
        <time>2017-05-25T09:15:05Z</time>
      </trkpt>
      <trkpt lat="48.06877" lon="-4.66355">
        <ele>57.34</ele>
        <time>2017-05-25T09:15:14Z</time>
      </trkpt>
      <trkpt lat="48.06872" lon="-4.66353">
        <ele>57.82</ele>
        <time>2017-05-25T09:15:19Z</time>
      </trkpt>
      <trkpt lat="48.0687" lon="-4.66354">
        <ele>58.3</ele>
        <time>2017-05-25T09:15:21Z</time>
      </trkpt>
      <trkpt lat="48.06853" lon="-4.66346">
        <ele>57.82</ele>
        <time>2017-05-25T09:15:34Z</time>
      </trkpt>
      <trkpt lat="48.06851" lon="-4.66343">
        <ele>56.86</ele>
        <time>2017-05-25T09:15:36Z</time>
      </trkpt>
      <trkpt lat="48.06845" lon="-4.66337">
        <ele>56.86</ele>
        <time>2017-05-25T09:15:41Z</time>
      </trkpt>
      <trkpt lat="48.06834" lon="-4.66333">
        <ele>57.82</ele>
        <time>2017-05-25T09:15:53Z</time>
      </trkpt>
      <trkpt lat="48.06826" lon="-4.66323">
        <ele>57.34</ele>
        <time>2017-05-25T09:16:01Z</time>
      </trkpt>
      <trkpt lat="48.06823" lon="-4.66322">
        <ele>57.82</ele>
        <time>2017-05-25T09:16:03Z</time>
      </trkpt>
      <trkpt lat="48.06816" lon="-4.66315">
        <ele>58.3</ele>
        <time>2017-05-25T09:16:08Z</time>
      </trkpt>
      <trkpt lat="48.06801" lon="-4.66308">
        <ele>57.82</ele>
        <time>2017-05-25T09:16:15Z</time>
      </trkpt>
      <trkpt lat="48.06787" lon="-4.66293">
        <ele>59.26</ele>
        <time>2017-05-25T09:16:32Z</time>
      </trkpt>
      <trkpt lat="48.06783" lon="-4.6627">
        <ele>60.7</ele>
        <time>2017-05-25T09:16:45Z</time>
      </trkpt>
      <trkpt lat="48.06785" lon="-4.66262">
        <ele>61.18</ele>
        <time>2017-05-25T09:16:50Z</time>
      </trkpt>
      <trkpt lat="48.06786" lon="-4.66253">
        <ele>61.66</ele>
        <time>2017-05-25T09:16:54Z</time>
      </trkpt>
      <trkpt lat="48.06788" lon="-4.66249">
        <ele>61.18</ele>
        <time>2017-05-25T09:17:09Z</time>
      </trkpt>
      <trkpt lat="48.06788" lon="-4.66249">
        <ele>61.18</ele>
        <time>2017-05-25T09:17:34Z</time>
      </trkpt>
      <trkpt lat="48.06788" lon="-4.6625">
        <ele>60.7</ele>
        <time>2017-05-25T09:18:02Z</time>
      </trkpt>
      <trkpt lat="48.06789" lon="-4.6625">
        <ele>58.78</ele>
        <time>2017-05-25T09:18:29Z</time>
      </trkpt>
      <trkpt lat="48.06788" lon="-4.66243">
        <ele>58.3</ele>
        <time>2017-05-25T09:18:44Z</time>
      </trkpt>
      <trkpt lat="48.0679" lon="-4.66231">
        <ele>58.3</ele>
        <time>2017-05-25T09:18:53Z</time>
      </trkpt>
      <trkpt lat="48.06791" lon="-4.66221">
        <ele>58.78</ele>
        <time>2017-05-25T09:18:58Z</time>
      </trkpt>
      <trkpt lat="48.06792" lon="-4.66216">
        <ele>59.26</ele>
        <time>2017-05-25T09:19:00Z</time>
      </trkpt>
      <trkpt lat="48.06793" lon="-4.662">
        <ele>59.26</ele>
        <time>2017-05-25T09:19:06Z</time>
      </trkpt>
      <trkpt lat="48.06794" lon="-4.66177">
        <ele>59.74</ele>
        <time>2017-05-25T09:19:15Z</time>
      </trkpt>
      <trkpt lat="48.06796" lon="-4.66166">
        <ele>59.74</ele>
        <time>2017-05-25T09:19:20Z</time>
      </trkpt>
      <trkpt lat="48.068" lon="-4.66131">
        <ele>64.07</ele>
        <time>2017-05-25T09:19:34Z</time>
      </trkpt>
      <trkpt lat="48.06801" lon="-4.6612">
        <ele>65.51</ele>
        <time>2017-05-25T09:19:39Z</time>
      </trkpt>
      <trkpt lat="48.06805" lon="-4.66107">
        <ele>65.99</ele>
        <time>2017-05-25T09:19:45Z</time>
      </trkpt>
      <trkpt lat="48.06807" lon="-4.66091">
        <ele>65.51</ele>
        <time>2017-05-25T09:19:53Z</time>
      </trkpt>
      <trkpt lat="48.06806" lon="-4.66079">
        <ele>65.03</ele>
        <time>2017-05-25T09:20:00Z</time>
      </trkpt>
      <trkpt lat="48.06808" lon="-4.66069">
        <ele>64.55</ele>
        <time>2017-05-25T09:20:05Z</time>
      </trkpt>
      <trkpt lat="48.06808" lon="-4.6606">
        <ele>64.55</ele>
        <time>2017-05-25T09:20:09Z</time>
      </trkpt>
      <trkpt lat="48.0681" lon="-4.66053">
        <ele>64.55</ele>
        <time>2017-05-25T09:20:13Z</time>
      </trkpt>
      <trkpt lat="48.0682" lon="-4.66028">
        <ele>63.1</ele>
        <time>2017-05-25T09:20:27Z</time>
      </trkpt>
      <trkpt lat="48.0683" lon="-4.66013">
        <ele>62.14</ele>
        <time>2017-05-25T09:20:41Z</time>
      </trkpt>
      <trkpt lat="48.06838" lon="-4.66004">
        <ele>61.66</ele>
        <time>2017-05-25T09:20:50Z</time>
      </trkpt>
      <trkpt lat="48.06845" lon="-4.65995">
        <ele>62.14</ele>
        <time>2017-05-25T09:20:58Z</time>
      </trkpt>
      <trkpt lat="48.06854" lon="-4.65993">
        <ele>62.14</ele>
        <time>2017-05-25T09:21:07Z</time>
      </trkpt>
      <trkpt lat="48.06863" lon="-4.6599">
        <ele>61.18</ele>
        <time>2017-05-25T09:21:23Z</time>
      </trkpt>
      <trkpt lat="48.06864" lon="-4.6599">
        <ele>61.18</ele>
        <time>2017-05-25T09:21:56Z</time>
      </trkpt>
      <trkpt lat="48.06864" lon="-4.65991">
        <ele>61.18</ele>
        <time>2017-05-25T09:22:22Z</time>
      </trkpt>
      <trkpt lat="48.06864" lon="-4.65991">
        <ele>61.18</ele>
        <time>2017-05-25T09:22:27Z</time>
      </trkpt>
      <trkpt lat="48.06852" lon="-4.65986">
        <ele>63.1</ele>
        <time>2017-05-25T09:22:35Z</time>
      </trkpt>
      <trkpt lat="48.06847" lon="-4.65965">
        <ele>62.62</ele>
        <time>2017-05-25T09:22:50Z</time>
      </trkpt>
      <trkpt lat="48.06848" lon="-4.65959">
        <ele>62.14</ele>
        <time>2017-05-25T09:22:53Z</time>
      </trkpt>
      <trkpt lat="48.06847" lon="-4.65935">
        <ele>61.18</ele>
        <time>2017-05-25T09:23:04Z</time>
      </trkpt>
      <trkpt lat="48.06838" lon="-4.6592">
        <ele>61.18</ele>
        <time>2017-05-25T09:23:11Z</time>
      </trkpt>
      <trkpt lat="48.06834" lon="-4.65913">
        <ele>61.66</ele>
        <time>2017-05-25T09:23:14Z</time>
      </trkpt>
      <trkpt lat="48.06818" lon="-4.65898">
        <ele>58.3</ele>
        <time>2017-05-25T09:23:28Z</time>
      </trkpt>
      <trkpt lat="48.06814" lon="-4.65886">
        <ele>55.89</ele>
        <time>2017-05-25T09:23:34Z</time>
      </trkpt>
      <trkpt lat="48.06815" lon="-4.6588">
        <ele>54.45</ele>
        <time>2017-05-25T09:23:37Z</time>
      </trkpt>
      <trkpt lat="48.06815" lon="-4.65877">
        <ele>54.45</ele>
        <time>2017-05-25T09:23:39Z</time>
      </trkpt>
      <trkpt lat="48.06815" lon="-4.65858">
        <ele>50.61</ele>
        <time>2017-05-25T09:23:50Z</time>
      </trkpt>
      <trkpt lat="48.06804" lon="-4.65838">
        <ele>47.72</ele>
        <time>2017-05-25T09:24:06Z</time>
      </trkpt>
      <trkpt lat="48.06785" lon="-4.65822">
        <ele>48.2</ele>
        <time>2017-05-25T09:24:18Z</time>
      </trkpt>
      <trkpt lat="48.06782" lon="-4.65793">
        <ele>49.16</ele>
        <time>2017-05-25T09:24:29Z</time>
      </trkpt>
      <trkpt lat="48.06774" lon="-4.6575">
        <ele>49.65</ele>
        <time>2017-05-25T09:24:46Z</time>
      </trkpt>
      <trkpt lat="48.06772" lon="-4.65743">
        <ele>49.65</ele>
        <time>2017-05-25T09:24:50Z</time>
      </trkpt>
      <trkpt lat="48.0677" lon="-4.65737">
        <ele>50.61</ele>
        <time>2017-05-25T09:24:53Z</time>
      </trkpt>
      <trkpt lat="48.06768" lon="-4.65726">
        <ele>51.57</ele>
        <time>2017-05-25T09:24:58Z</time>
      </trkpt>
      <trkpt lat="48.06764" lon="-4.65712">
        <ele>51.57</ele>
        <time>2017-05-25T09:25:03Z</time>
      </trkpt>
      <trkpt lat="48.0676" lon="-4.6569">
        <ele>50.13</ele>
        <time>2017-05-25T09:25:10Z</time>
      </trkpt>
      <trkpt lat="48.0676" lon="-4.65683">
        <ele>49.65</ele>
        <time>2017-05-25T09:25:12Z</time>
      </trkpt>
      <trkpt lat="48.0676" lon="-4.65664">
        <ele>46.76</ele>
        <time>2017-05-25T09:25:22Z</time>
      </trkpt>
      <trkpt lat="48.06747" lon="-4.65654">
        <ele>45.32</ele>
        <time>2017-05-25T09:25:30Z</time>
      </trkpt>
      <trkpt lat="48.06743" lon="-4.65654">
        <ele>45.32</ele>
        <time>2017-05-25T09:25:32Z</time>
      </trkpt>
      <trkpt lat="48.06744" lon="-4.65648">
        <ele>43.4</ele>
        <time>2017-05-25T09:25:38Z</time>
      </trkpt>
      <trkpt lat="48.06751" lon="-4.65646">
        <ele>40.99</ele>
        <time>2017-05-25T09:25:43Z</time>
      </trkpt>
      <trkpt lat="48.06753" lon="-4.65643">
        <ele>40.03</ele>
        <time>2017-05-25T09:25:45Z</time>
      </trkpt>
      <trkpt lat="48.06759" lon="-4.65637">
        <ele>35.71</ele>
        <time>2017-05-25T09:25:58Z</time>
      </trkpt>
      <trkpt lat="48.06759" lon="-4.65637">
        <ele>35.71</ele>
        <time>2017-05-25T09:26:00Z</time>
      </trkpt>
      <trkpt lat="48.06757" lon="-4.65636">
        <ele>34.26</ele>
        <time>2017-05-25T09:26:03Z</time>
      </trkpt>
      <trkpt lat="48.06741" lon="-4.65604">
        <ele>27.53</ele>
        <time>2017-05-25T09:26:19Z</time>
      </trkpt>
      <trkpt lat="48.06733" lon="-4.65594">
        <ele>24.17</ele>
        <time>2017-05-25T09:26:29Z</time>
      </trkpt>
      <trkpt lat="48.0672" lon="-4.6558">
        <ele>23.69</ele>
        <time>2017-05-25T09:26:44Z</time>
      </trkpt>
      <trkpt lat="48.06711" lon="-4.65568">
        <ele>29.94</ele>
        <time>2017-05-25T09:26:57Z</time>
      </trkpt>
      <trkpt lat="48.06714" lon="-4.65559">
        <ele>31.38</ele>
        <time>2017-05-25T09:27:10Z</time>
      </trkpt>
      <trkpt lat="48.06716" lon="-4.65557">
        <ele>32.34</ele>
        <time>2017-05-25T09:27:13Z</time>
      </trkpt>
      <trkpt lat="48.06721" lon="-4.65558">
        <ele>34.26</ele>
        <time>2017-05-25T09:27:17Z</time>
      </trkpt>
      <trkpt lat="48.06734" lon="-4.65559">
        <ele>36.67</ele>
        <time>2017-05-25T09:27:26Z</time>
      </trkpt>
      <trkpt lat="48.06744" lon="-4.6555">
        <ele>40.03</ele>
        <time>2017-05-25T09:27:41Z</time>
      </trkpt>
      <trkpt lat="48.06747" lon="-4.65538">
        <ele>44.36</ele>
        <time>2017-05-25T09:27:52Z</time>
      </trkpt>
      <trkpt lat="48.06751" lon="-4.65528">
        <ele>47.24</ele>
        <time>2017-05-25T09:28:06Z</time>
      </trkpt>
      <trkpt lat="48.06749" lon="-4.6552">
        <ele>49.16</ele>
        <time>2017-05-25T09:28:16Z</time>
      </trkpt>
      <trkpt lat="48.06755" lon="-4.65506">
        <ele>51.57</ele>
        <time>2017-05-25T09:28:31Z</time>
      </trkpt>
      <trkpt lat="48.06756" lon="-4.65501">
        <ele>52.53</ele>
        <time>2017-05-25T09:28:36Z</time>
      </trkpt>
      <trkpt lat="48.06764" lon="-4.65482">
        <ele>53.49</ele>
        <time>2017-05-25T09:28:48Z</time>
      </trkpt>
      <trkpt lat="48.0678" lon="-4.65465">
        <ele>54.45</ele>
        <time>2017-05-25T09:29:01Z</time>
      </trkpt>
      <trkpt lat="48.06795" lon="-4.65453">
        <ele>54.45</ele>
        <time>2017-05-25T09:29:14Z</time>
      </trkpt>
      <trkpt lat="48.06812" lon="-4.65447">
        <ele>57.34</ele>
        <time>2017-05-25T09:29:28Z</time>
      </trkpt>
      <trkpt lat="48.06817" lon="-4.65444">
        <ele>57.82</ele>
        <time>2017-05-25T09:29:33Z</time>
      </trkpt>
      <trkpt lat="48.06822" lon="-4.65444">
        <ele>58.3</ele>
        <time>2017-05-25T09:29:38Z</time>
      </trkpt>
      <trkpt lat="48.06826" lon="-4.65442">
        <ele>58.3</ele>
        <time>2017-05-25T09:29:42Z</time>
      </trkpt>
      <trkpt lat="48.0683" lon="-4.65435">
        <ele>58.3</ele>
        <time>2017-05-25T09:29:48Z</time>
      </trkpt>
      <trkpt lat="48.06835" lon="-4.6541">
        <ele>58.78</ele>
        <time>2017-05-25T09:30:03Z</time>
      </trkpt>
      <trkpt lat="48.06832" lon="-4.65389">
        <ele>57.82</ele>
        <time>2017-05-25T09:30:13Z</time>
      </trkpt>
      <trkpt lat="48.06824" lon="-4.65357">
        <ele>58.3</ele>
        <time>2017-05-25T09:30:29Z</time>
      </trkpt>
      <trkpt lat="48.06823" lon="-4.65356">
        <ele>58.3</ele>
        <time>2017-05-25T09:30:30Z</time>
      </trkpt>
      <trkpt lat="48.06822" lon="-4.65343">
        <ele>59.26</ele>
        <time>2017-05-25T09:30:36Z</time>
      </trkpt>
      <trkpt lat="48.06828" lon="-4.65318">
        <ele>61.18</ele>
        <time>2017-05-25T09:30:52Z</time>
      </trkpt>
      <trkpt lat="48.06827" lon="-4.6531">
        <ele>61.66</ele>
        <time>2017-05-25T09:30:57Z</time>
      </trkpt>
      <trkpt lat="48.06827" lon="-4.65298">
        <ele>61.66</ele>
        <time>2017-05-25T09:31:03Z</time>
      </trkpt>
      <trkpt lat="48.06824" lon="-4.65269">
        <ele>64.55</ele>
        <time>2017-05-25T09:31:20Z</time>
      </trkpt>
      <trkpt lat="48.06819" lon="-4.65249">
        <ele>66.47</ele>
        <time>2017-05-25T09:31:32Z</time>
      </trkpt>
      <trkpt lat="48.0681" lon="-4.65227">
        <ele>68.39</ele>
        <time>2017-05-25T09:31:48Z</time>
      </trkpt>
      <trkpt lat="48.06802" lon="-4.65201">
        <ele>69.83</ele>
        <time>2017-05-25T09:32:02Z</time>
      </trkpt>
      <trkpt lat="48.06797" lon="-4.65167">
        <ele>68.87</ele>
        <time>2017-05-25T09:32:19Z</time>
      </trkpt>
      <trkpt lat="48.0679" lon="-4.65144">
        <ele>69.35</ele>
        <time>2017-05-25T09:32:33Z</time>
      </trkpt>
      <trkpt lat="48.06784" lon="-4.65114">
        <ele>71.27</ele>
        <time>2017-05-25T09:32:49Z</time>
      </trkpt>
      <trkpt lat="48.06782" lon="-4.65098">
        <ele>72.72</ele>
        <time>2017-05-25T09:32:58Z</time>
      </trkpt>
      <trkpt lat="48.06782" lon="-4.65092">
        <ele>72.72</ele>
        <time>2017-05-25T09:33:01Z</time>
      </trkpt>
      <trkpt lat="48.06786" lon="-4.65081">
        <ele>72.72</ele>
        <time>2017-05-25T09:33:07Z</time>
      </trkpt>
      <trkpt lat="48.06797" lon="-4.65064">
        <ele>72.72</ele>
        <time>2017-05-25T09:33:20Z</time>
      </trkpt>
      <trkpt lat="48.06808" lon="-4.65062">
        <ele>72.24</ele>
        <time>2017-05-25T09:33:29Z</time>
      </trkpt>
      <trkpt lat="48.06829" lon="-4.65062">
        <ele>72.72</ele>
        <time>2017-05-25T09:33:45Z</time>
      </trkpt>
      <trkpt lat="48.06842" lon="-4.65062">
        <ele>73.68</ele>
        <time>2017-05-25T09:34:00Z</time>
      </trkpt>
      <trkpt lat="48.06849" lon="-4.65063">
        <ele>73.2</ele>
        <time>2017-05-25T09:34:14Z</time>
      </trkpt>
      <trkpt lat="48.06858" lon="-4.65062">
        <ele>72.72</ele>
        <time>2017-05-25T09:34:25Z</time>
      </trkpt>
      <trkpt lat="48.06876" lon="-4.65064">
        <ele>71.76</ele>
        <time>2017-05-25T09:34:39Z</time>
      </trkpt>
      <trkpt lat="48.06882" lon="-4.6507">
        <ele>71.27</ele>
        <time>2017-05-25T09:34:45Z</time>
      </trkpt>
      <trkpt lat="48.06884" lon="-4.65072">
        <ele>70.31</ele>
        <time>2017-05-25T09:35:03Z</time>
      </trkpt>
      <trkpt lat="48.06885" lon="-4.65072">
        <ele>69.35</ele>
        <time>2017-05-25T09:35:31Z</time>
      </trkpt>
      <trkpt lat="48.06884" lon="-4.65073">
        <ele>69.35</ele>
        <time>2017-05-25T09:35:54Z</time>
      </trkpt>
      <trkpt lat="48.06884" lon="-4.65073">
        <ele>69.35</ele>
        <time>2017-05-25T09:35:59Z</time>
      </trkpt>
      <trkpt lat="48.06887" lon="-4.65052">
        <ele>68.39</ele>
        <time>2017-05-25T09:36:13Z</time>
      </trkpt>
      <trkpt lat="48.06887" lon="-4.65051">
        <ele>68.39</ele>
        <time>2017-05-25T09:36:14Z</time>
      </trkpt>
      <trkpt lat="48.06886" lon="-4.65043">
        <ele>67.91</ele>
        <time>2017-05-25T09:36:19Z</time>
      </trkpt>
      <trkpt lat="48.06887" lon="-4.65035">
        <ele>67.91</ele>
        <time>2017-05-25T09:36:24Z</time>
      </trkpt>
      <trkpt lat="48.06886" lon="-4.65032">
        <ele>67.91</ele>
        <time>2017-05-25T09:36:26Z</time>
      </trkpt>
      <trkpt lat="48.06886" lon="-4.65024">
        <ele>67.91</ele>
        <time>2017-05-25T09:36:30Z</time>
      </trkpt>
      <trkpt lat="48.06875" lon="-4.65011">
        <ele>68.39</ele>
        <time>2017-05-25T09:36:45Z</time>
      </trkpt>
      <trkpt lat="48.06869" lon="-4.65009">
        <ele>68.87</ele>
        <time>2017-05-25T09:36:53Z</time>
      </trkpt>
      <trkpt lat="48.06862" lon="-4.64997">
        <ele>71.27</ele>
        <time>2017-05-25T09:37:07Z</time>
      </trkpt>
      <trkpt lat="48.06857" lon="-4.64976">
        <ele>74.16</ele>
        <time>2017-05-25T09:37:22Z</time>
      </trkpt>
      <trkpt lat="48.06851" lon="-4.64955">
        <ele>77.52</ele>
        <time>2017-05-25T09:37:36Z</time>
      </trkpt>
      <trkpt lat="48.06851" lon="-4.64953">
        <ele>77.52</ele>
        <time>2017-05-25T09:37:37Z</time>
      </trkpt>
      <trkpt lat="48.0685" lon="-4.64946">
        <ele>77.52</ele>
        <time>2017-05-25T09:37:43Z</time>
      </trkpt>
      <trkpt lat="48.06848" lon="-4.64931">
        <ele>75.6</ele>
        <time>2017-05-25T09:37:58Z</time>
      </trkpt>
      <trkpt lat="48.06844" lon="-4.64914">
        <ele>74.16</ele>
        <time>2017-05-25T09:38:10Z</time>
      </trkpt>
      <trkpt lat="48.06844" lon="-4.64911">
        <ele>73.68</ele>
        <time>2017-05-25T09:38:12Z</time>
      </trkpt>
      <trkpt lat="48.06842" lon="-4.649">
        <ele>72.72</ele>
        <time>2017-05-25T09:38:18Z</time>
      </trkpt>
      <trkpt lat="48.06843" lon="-4.64877">
        <ele>71.76</ele>
        <time>2017-05-25T09:38:30Z</time>
      </trkpt>
      <trkpt lat="48.06847" lon="-4.64862">
        <ele>70.79</ele>
        <time>2017-05-25T09:38:37Z</time>
      </trkpt>
      <trkpt lat="48.06832" lon="-4.64838">
        <ele>71.27</ele>
        <time>2017-05-25T09:38:54Z</time>
      </trkpt>
      <trkpt lat="48.06818" lon="-4.64814">
        <ele>71.76</ele>
        <time>2017-05-25T09:39:09Z</time>
      </trkpt>
      <trkpt lat="48.0681" lon="-4.64792">
        <ele>71.76</ele>
        <time>2017-05-25T09:39:23Z</time>
      </trkpt>
      <trkpt lat="48.06809" lon="-4.64785">
        <ele>71.27</ele>
        <time>2017-05-25T09:39:28Z</time>
      </trkpt>
      <trkpt lat="48.06809" lon="-4.64776">
        <ele>70.31</ele>
        <time>2017-05-25T09:39:34Z</time>
      </trkpt>
      <trkpt lat="48.06811" lon="-4.64762">
        <ele>68.87</ele>
        <time>2017-05-25T09:39:42Z</time>
      </trkpt>
      <trkpt lat="48.06807" lon="-4.64752">
        <ele>66.95</ele>
        <time>2017-05-25T09:39:49Z</time>
      </trkpt>
      <trkpt lat="48.06807" lon="-4.64745">
        <ele>65.51</ele>
        <time>2017-05-25T09:39:54Z</time>
      </trkpt>
      <trkpt lat="48.06807" lon="-4.64739">
        <ele>64.55</ele>
        <time>2017-05-25T09:39:58Z</time>
      </trkpt>
      <trkpt lat="48.06813" lon="-4.64733">
        <ele>59.74</ele>
        <time>2017-05-25T09:40:12Z</time>
      </trkpt>
      <trkpt lat="48.06813" lon="-4.64723">
        <ele>56.86</ele>
        <time>2017-05-25T09:40:22Z</time>
      </trkpt>
      <trkpt lat="48.06811" lon="-4.64713">
        <ele>54.93</ele>
        <time>2017-05-25T09:40:29Z</time>
      </trkpt>
      <trkpt lat="48.06803" lon="-4.64701">
        <ele>54.45</ele>
        <time>2017-05-25T09:40:37Z</time>
      </trkpt>
      <trkpt lat="48.06792" lon="-4.64678">
        <ele>53.49</ele>
        <time>2017-05-25T09:40:52Z</time>
      </trkpt>
      <trkpt lat="48.06785" lon="-4.64654">
        <ele>53.49</ele>
        <time>2017-05-25T09:41:05Z</time>
      </trkpt>
      <trkpt lat="48.0678" lon="-4.64635">
        <ele>54.45</ele>
        <time>2017-05-25T09:41:17Z</time>
      </trkpt>
      <trkpt lat="48.06773" lon="-4.64616">
        <ele>55.41</ele>
        <time>2017-05-25T09:41:31Z</time>
      </trkpt>
      <trkpt lat="48.06763" lon="-4.64609">
        <ele>56.86</ele>
        <time>2017-05-25T09:41:40Z</time>
      </trkpt>
      <trkpt lat="48.06758" lon="-4.64606">
        <ele>57.34</ele>
        <time>2017-05-25T09:41:44Z</time>
      </trkpt>
      <trkpt lat="48.06751" lon="-4.646">
        <ele>59.26</ele>
        <time>2017-05-25T09:41:51Z</time>
      </trkpt>
      <trkpt lat="48.06736" lon="-4.64582">
        <ele>61.18</ele>
        <time>2017-05-25T09:42:06Z</time>
      </trkpt>
      <trkpt lat="48.06727" lon="-4.64558">
        <ele>61.18</ele>
        <time>2017-05-25T09:42:20Z</time>
      </trkpt>
      <trkpt lat="48.06719" lon="-4.64531">
        <ele>59.74</ele>
        <time>2017-05-25T09:42:39Z</time>
      </trkpt>
      <trkpt lat="48.06709" lon="-4.64515">
        <ele>58.78</ele>
        <time>2017-05-25T09:42:51Z</time>
      </trkpt>
      <trkpt lat="48.06709" lon="-4.64508">
        <ele>57.34</ele>
        <time>2017-05-25T09:42:56Z</time>
      </trkpt>
      <trkpt lat="48.06698" lon="-4.64503">
        <ele>54.93</ele>
        <time>2017-05-25T09:43:11Z</time>
      </trkpt>
      <trkpt lat="48.06694" lon="-4.64506">
        <ele>55.41</ele>
        <time>2017-05-25T09:43:16Z</time>
      </trkpt>
      <trkpt lat="48.06687" lon="-4.64511">
        <ele>55.89</ele>
        <time>2017-05-25T09:43:23Z</time>
      </trkpt>
      <trkpt lat="48.06685" lon="-4.64505">
        <ele>56.86</ele>
        <time>2017-05-25T09:43:32Z</time>
      </trkpt>
      <trkpt lat="48.06691" lon="-4.64484">
        <ele>56.86</ele>
        <time>2017-05-25T09:43:47Z</time>
      </trkpt>
      <trkpt lat="48.0669" lon="-4.64483">
        <ele>57.34</ele>
        <time>2017-05-25T09:43:49Z</time>
      </trkpt>
      <trkpt lat="48.06681" lon="-4.64462">
        <ele>59.74</ele>
        <time>2017-05-25T09:44:05Z</time>
      </trkpt>
      <trkpt lat="48.06679" lon="-4.64453">
        <ele>60.7</ele>
        <time>2017-05-25T09:44:23Z</time>
      </trkpt>
      <trkpt lat="48.0668" lon="-4.64453">
        <ele>60.7</ele>
        <time>2017-05-25T09:44:48Z</time>
      </trkpt>
      <trkpt lat="48.0668" lon="-4.64453">
        <ele>60.7</ele>
        <time>2017-05-25T09:45:15Z</time>
      </trkpt>
      <trkpt lat="48.06679" lon="-4.64454">
        <ele>61.18</ele>
        <time>2017-05-25T09:45:47Z</time>
      </trkpt>
      <trkpt lat="48.06679" lon="-4.64454">
        <ele>61.18</ele>
        <time>2017-05-25T09:46:15Z</time>
      </trkpt>
      <trkpt lat="48.06679" lon="-4.64453">
        <ele>61.18</ele>
        <time>2017-05-25T09:46:34Z</time>
      </trkpt>
      <trkpt lat="48.06675" lon="-4.64437">
        <ele>62.62</ele>
        <time>2017-05-25T09:46:54Z</time>
      </trkpt>
      <trkpt lat="48.06672" lon="-4.64429">
        <ele>63.1</ele>
        <time>2017-05-25T09:47:00Z</time>
      </trkpt>
      <trkpt lat="48.06672" lon="-4.64419">
        <ele>63.1</ele>
        <time>2017-05-25T09:47:06Z</time>
      </trkpt>
      <trkpt lat="48.0667" lon="-4.64412">
        <ele>63.1</ele>
        <time>2017-05-25T09:47:10Z</time>
      </trkpt>
      <trkpt lat="48.06664" lon="-4.6439">
        <ele>62.62</ele>
        <time>2017-05-25T09:47:27Z</time>
      </trkpt>
      <trkpt lat="48.06662" lon="-4.64382">
        <ele>62.14</ele>
        <time>2017-05-25T09:47:43Z</time>
      </trkpt>
      <trkpt lat="48.06648" lon="-4.6436">
        <ele>62.14</ele>
        <time>2017-05-25T09:47:57Z</time>
      </trkpt>
      <trkpt lat="48.06646" lon="-4.64341">
        <ele>63.1</ele>
        <time>2017-05-25T09:48:08Z</time>
      </trkpt>
      <trkpt lat="48.06636" lon="-4.64313">
        <ele>63.58</ele>
        <time>2017-05-25T09:48:25Z</time>
      </trkpt>
      <trkpt lat="48.06637" lon="-4.64297">
        <ele>64.07</ele>
        <time>2017-05-25T09:48:40Z</time>
      </trkpt>
      <trkpt lat="48.06637" lon="-4.64278">
        <ele>65.51</ele>
        <time>2017-05-25T09:48:58Z</time>
      </trkpt>
      <trkpt lat="48.06643" lon="-4.64267">
        <ele>66.47</ele>
        <time>2017-05-25T09:49:19Z</time>
      </trkpt>
      <trkpt lat="48.06649" lon="-4.64253">
        <ele>65.99</ele>
        <time>2017-05-25T09:49:37Z</time>
      </trkpt>
      <trkpt lat="48.06651" lon="-4.64236">
        <ele>68.39</ele>
        <time>2017-05-25T09:49:46Z</time>
      </trkpt>
      <trkpt lat="48.06656" lon="-4.64222">
        <ele>69.83</ele>
        <time>2017-05-25T09:49:52Z</time>
      </trkpt>
      <trkpt lat="48.06652" lon="-4.6419">
        <ele>68.87</ele>
        <time>2017-05-25T09:50:08Z</time>
      </trkpt>
      <trkpt lat="48.0665" lon="-4.64158">
        <ele>66.95</ele>
        <time>2017-05-25T09:50:24Z</time>
      </trkpt>
      <trkpt lat="48.06651" lon="-4.64139">
        <ele>65.51</ele>
        <time>2017-05-25T09:50:33Z</time>
      </trkpt>
      <trkpt lat="48.0665" lon="-4.64104">
        <ele>64.55</ele>
        <time>2017-05-25T09:50:47Z</time>
      </trkpt>
      <trkpt lat="48.06648" lon="-4.64095">
        <ele>65.03</ele>
        <time>2017-05-25T09:50:54Z</time>
      </trkpt>
      <trkpt lat="48.06646" lon="-4.64079">
        <ele>65.51</ele>
        <time>2017-05-25T09:51:03Z</time>
      </trkpt>
      <trkpt lat="48.06646" lon="-4.64076">
        <ele>65.51</ele>
        <time>2017-05-25T09:51:05Z</time>
      </trkpt>
      <trkpt lat="48.06646" lon="-4.64068">
        <ele>64.55</ele>
        <time>2017-05-25T09:51:10Z</time>
      </trkpt>
      <trkpt lat="48.06646" lon="-4.64061">
        <ele>64.55</ele>
        <time>2017-05-25T09:51:13Z</time>
      </trkpt>
      <trkpt lat="48.06646" lon="-4.64055">
        <ele>64.07</ele>
        <time>2017-05-25T09:51:17Z</time>
      </trkpt>
      <trkpt lat="48.06647" lon="-4.64042">
        <ele>65.03</ele>
        <time>2017-05-25T09:51:24Z</time>
      </trkpt>
      <trkpt lat="48.06652" lon="-4.6403">
        <ele>65.51</ele>
        <time>2017-05-25T09:51:31Z</time>
      </trkpt>
      <trkpt lat="48.06654" lon="-4.64027">
        <ele>65.51</ele>
        <time>2017-05-25T09:51:33Z</time>
      </trkpt>
      <trkpt lat="48.06663" lon="-4.64013">
        <ele>65.99</ele>
        <time>2017-05-25T09:51:44Z</time>
      </trkpt>
      <trkpt lat="48.06672" lon="-4.64003">
        <ele>66.47</ele>
        <time>2017-05-25T09:51:51Z</time>
      </trkpt>
      <trkpt lat="48.0668" lon="-4.63994">
        <ele>65.99</ele>
        <time>2017-05-25T09:51:57Z</time>
      </trkpt>
      <trkpt lat="48.06694" lon="-4.63986">
        <ele>65.03</ele>
        <time>2017-05-25T09:52:05Z</time>
      </trkpt>
      <trkpt lat="48.06702" lon="-4.63977">
        <ele>65.03</ele>
        <time>2017-05-25T09:52:15Z</time>
      </trkpt>
      <trkpt lat="48.06717" lon="-4.63956">
        <ele>67.43</ele>
        <time>2017-05-25T09:52:30Z</time>
      </trkpt>
      <trkpt lat="48.06718" lon="-4.63954">
        <ele>67.91</ele>
        <time>2017-05-25T09:52:32Z</time>
      </trkpt>
      <trkpt lat="48.06723" lon="-4.6394">
        <ele>69.35</ele>
        <time>2017-05-25T09:52:40Z</time>
      </trkpt>
      <trkpt lat="48.06731" lon="-4.63922">
        <ele>72.72</ele>
        <time>2017-05-25T09:52:53Z</time>
      </trkpt>
      <trkpt lat="48.06735" lon="-4.63918">
        <ele>72.72</ele>
        <time>2017-05-25T09:52:58Z</time>
      </trkpt>
      <trkpt lat="48.06742" lon="-4.63915">
        <ele>73.2</ele>
        <time>2017-05-25T09:53:04Z</time>
      </trkpt>
      <trkpt lat="48.06747" lon="-4.63907">
        <ele>73.68</ele>
        <time>2017-05-25T09:53:09Z</time>
      </trkpt>
      <trkpt lat="48.06749" lon="-4.63896">
        <ele>74.16</ele>
        <time>2017-05-25T09:53:16Z</time>
      </trkpt>
      <trkpt lat="48.06752" lon="-4.63882">
        <ele>74.64</ele>
        <time>2017-05-25T09:53:24Z</time>
      </trkpt>
      <trkpt lat="48.06751" lon="-4.63875">
        <ele>73.68</ele>
        <time>2017-05-25T09:53:43Z</time>
      </trkpt>
      <trkpt lat="48.06753" lon="-4.63865">
        <ele>73.68</ele>
        <time>2017-05-25T09:54:03Z</time>
      </trkpt>
      <trkpt lat="48.06754" lon="-4.63857">
        <ele>73.68</ele>
        <time>2017-05-25T09:54:19Z</time>
      </trkpt>
      <trkpt lat="48.06754" lon="-4.63848">
        <ele>73.2</ele>
        <time>2017-05-25T09:54:33Z</time>
      </trkpt>
      <trkpt lat="48.06754" lon="-4.63848">
        <ele>73.2</ele>
        <time>2017-05-25T09:55:04Z</time>
      </trkpt>
      <trkpt lat="48.06755" lon="-4.63842">
        <ele>72.72</ele>
        <time>2017-05-25T09:55:12Z</time>
      </trkpt>
      <trkpt lat="48.06754" lon="-4.63836">
        <ele>72.24</ele>
        <time>2017-05-25T09:55:14Z</time>
      </trkpt>
      <trkpt lat="48.06751" lon="-4.6383">
        <ele>72.72</ele>
        <time>2017-05-25T09:55:18Z</time>
      </trkpt>
      <trkpt lat="48.06749" lon="-4.63824">
        <ele>72.72</ele>
        <time>2017-05-25T09:55:24Z</time>
      </trkpt>
      <trkpt lat="48.06751" lon="-4.63793">
        <ele>70.79</ele>
        <time>2017-05-25T09:55:38Z</time>
      </trkpt>
      <trkpt lat="48.06755" lon="-4.63772">
        <ele>69.35</ele>
        <time>2017-05-25T09:55:49Z</time>
      </trkpt>
      <trkpt lat="48.06758" lon="-4.63752">
        <ele>70.31</ele>
        <time>2017-05-25T09:55:59Z</time>
      </trkpt>
      <trkpt lat="48.0676" lon="-4.63742">
        <ele>71.27</ele>
        <time>2017-05-25T09:56:04Z</time>
      </trkpt>
      <trkpt lat="48.06762" lon="-4.63713">
        <ele>71.76</ele>
        <time>2017-05-25T09:56:20Z</time>
      </trkpt>
      <trkpt lat="48.06764" lon="-4.63708">
        <ele>72.24</ele>
        <time>2017-05-25T09:56:24Z</time>
      </trkpt>
      <trkpt lat="48.06766" lon="-4.63701">
        <ele>72.24</ele>
        <time>2017-05-25T09:56:28Z</time>
      </trkpt>
      <trkpt lat="48.06766" lon="-4.6369">
        <ele>71.76</ele>
        <time>2017-05-25T09:56:32Z</time>
      </trkpt>
      <trkpt lat="48.06759" lon="-4.63675">
        <ele>72.72</ele>
        <time>2017-05-25T09:56:44Z</time>
      </trkpt>
      <trkpt lat="48.06742" lon="-4.63657">
        <ele>74.16</ele>
        <time>2017-05-25T09:56:59Z</time>
      </trkpt>
      <trkpt lat="48.06732" lon="-4.63637">
        <ele>73.68</ele>
        <time>2017-05-25T09:57:13Z</time>
      </trkpt>
      <trkpt lat="48.06731" lon="-4.63636">
        <ele>73.68</ele>
        <time>2017-05-25T09:57:14Z</time>
      </trkpt>
      <trkpt lat="48.0673" lon="-4.63628">
        <ele>73.68</ele>
        <time>2017-05-25T09:57:19Z</time>
      </trkpt>
      <trkpt lat="48.06731" lon="-4.6362">
        <ele>74.16</ele>
        <time>2017-05-25T09:57:24Z</time>
      </trkpt>
      <trkpt lat="48.06729" lon="-4.63603">
        <ele>75.12</ele>
        <time>2017-05-25T09:57:35Z</time>
      </trkpt>
      <trkpt lat="48.06729" lon="-4.63594">
        <ele>75.6</ele>
        <time>2017-05-25T09:57:40Z</time>
      </trkpt>
      <trkpt lat="48.06726" lon="-4.63584">
        <ele>75.6</ele>
        <time>2017-05-25T09:57:45Z</time>
      </trkpt>
      <trkpt lat="48.06725" lon="-4.63554">
        <ele>77.52</ele>
        <time>2017-05-25T09:58:00Z</time>
      </trkpt>
      <trkpt lat="48.06725" lon="-4.6355">
        <ele>78</ele>
        <time>2017-05-25T09:58:02Z</time>
      </trkpt>
      <trkpt lat="48.06726" lon="-4.6354">
        <ele>78.48</ele>
        <time>2017-05-25T09:58:06Z</time>
      </trkpt>
      <trkpt lat="48.06727" lon="-4.63538">
        <ele>78.48</ele>
        <time>2017-05-25T09:58:08Z</time>
      </trkpt>
      <trkpt lat="48.06723" lon="-4.63526">
        <ele>78.48</ele>
        <time>2017-05-25T09:58:16Z</time>
      </trkpt>
      <trkpt lat="48.06724" lon="-4.63501">
        <ele>75.12</ele>
        <time>2017-05-25T09:58:30Z</time>
      </trkpt>
      <trkpt lat="48.06717" lon="-4.63477">
        <ele>73.68</ele>
        <time>2017-05-25T09:58:43Z</time>
      </trkpt>
      <trkpt lat="48.06709" lon="-4.63458">
        <ele>72.72</ele>
        <time>2017-05-25T09:58:56Z</time>
      </trkpt>
      <trkpt lat="48.06708" lon="-4.63455">
        <ele>73.2</ele>
        <time>2017-05-25T09:58:58Z</time>
      </trkpt>
      <trkpt lat="48.06706" lon="-4.63447">
        <ele>72.72</ele>
        <time>2017-05-25T09:59:02Z</time>
      </trkpt>
      <trkpt lat="48.06706" lon="-4.63437">
        <ele>72.72</ele>
        <time>2017-05-25T09:59:09Z</time>
      </trkpt>
      <trkpt lat="48.06704" lon="-4.6343">
        <ele>72.72</ele>
        <time>2017-05-25T09:59:12Z</time>
      </trkpt>
      <trkpt lat="48.0669" lon="-4.63413">
        <ele>72.72</ele>
        <time>2017-05-25T09:59:25Z</time>
      </trkpt>
      <trkpt lat="48.06678" lon="-4.63397">
        <ele>70.79</ele>
        <time>2017-05-25T09:59:37Z</time>
      </trkpt>
      <trkpt lat="48.06669" lon="-4.63384">
        <ele>69.83</ele>
        <time>2017-05-25T09:59:45Z</time>
      </trkpt>
      <trkpt lat="48.06662" lon="-4.6336">
        <ele>66.95</ele>
        <time>2017-05-25T09:59:59Z</time>
      </trkpt>
      <trkpt lat="48.06653" lon="-4.63347">
        <ele>65.99</ele>
        <time>2017-05-25T10:00:08Z</time>
      </trkpt>
      <trkpt lat="48.06653" lon="-4.63336">
        <ele>65.99</ele>
        <time>2017-05-25T10:00:15Z</time>
      </trkpt>
      <trkpt lat="48.0665" lon="-4.63312">
        <ele>68.39</ele>
        <time>2017-05-25T10:00:28Z</time>
      </trkpt>
      <trkpt lat="48.0665" lon="-4.63308">
        <ele>68.39</ele>
        <time>2017-05-25T10:00:30Z</time>
      </trkpt>
      <trkpt lat="48.06643" lon="-4.63288">
        <ele>70.79</ele>
        <time>2017-05-25T10:00:45Z</time>
      </trkpt>
      <trkpt lat="48.06634" lon="-4.63268">
        <ele>72.24</ele>
        <time>2017-05-25T10:00:59Z</time>
      </trkpt>
      <trkpt lat="48.06625" lon="-4.63253">
        <ele>71.76</ele>
        <time>2017-05-25T10:01:11Z</time>
      </trkpt>
      <trkpt lat="48.06632" lon="-4.63238">
        <ele>71.27</ele>
        <time>2017-05-25T10:01:23Z</time>
      </trkpt>
      <trkpt lat="48.06636" lon="-4.63235">
        <ele>70.79</ele>
        <time>2017-05-25T10:01:27Z</time>
      </trkpt>
      <trkpt lat="48.06638" lon="-4.63219">
        <ele>68.87</ele>
        <time>2017-05-25T10:01:35Z</time>
      </trkpt>
      <trkpt lat="48.06635" lon="-4.63189">
        <ele>67.91</ele>
        <time>2017-05-25T10:01:50Z</time>
      </trkpt>
      <trkpt lat="48.06629" lon="-4.63163">
        <ele>69.83</ele>
        <time>2017-05-25T10:02:04Z</time>
      </trkpt>
      <trkpt lat="48.06628" lon="-4.63161">
        <ele>69.83</ele>
        <time>2017-05-25T10:02:05Z</time>
      </trkpt>
      <trkpt lat="48.06627" lon="-4.63157">
        <ele>70.31</ele>
        <time>2017-05-25T10:02:08Z</time>
      </trkpt>
      <trkpt lat="48.06618" lon="-4.63123">
        <ele>70.79</ele>
        <time>2017-05-25T10:02:26Z</time>
      </trkpt>
      <trkpt lat="48.06614" lon="-4.63105">
        <ele>72.24</ele>
        <time>2017-05-25T10:02:37Z</time>
      </trkpt>
      <trkpt lat="48.06612" lon="-4.631">
        <ele>72.24</ele>
        <time>2017-05-25T10:02:40Z</time>
      </trkpt>
      <trkpt lat="48.06611" lon="-4.63091">
        <ele>71.76</ele>
        <time>2017-05-25T10:02:44Z</time>
      </trkpt>
      <trkpt lat="48.0661" lon="-4.63086">
        <ele>71.76</ele>
        <time>2017-05-25T10:02:46Z</time>
      </trkpt>
      <trkpt lat="48.06605" lon="-4.63072">
        <ele>69.35</ele>
        <time>2017-05-25T10:03:00Z</time>
      </trkpt>
      <trkpt lat="48.06596" lon="-4.63075">
        <ele>67.91</ele>
        <time>2017-05-25T10:03:10Z</time>
      </trkpt>
      <trkpt lat="48.06597" lon="-4.63067">
        <ele>65.51</ele>
        <time>2017-05-25T10:03:15Z</time>
      </trkpt>
      <trkpt lat="48.06595" lon="-4.63059">
        <ele>62.62</ele>
        <time>2017-05-25T10:03:24Z</time>
      </trkpt>
      <trkpt lat="48.06588" lon="-4.63041">
        <ele>58.78</ele>
        <time>2017-05-25T10:03:40Z</time>
      </trkpt>
      <trkpt lat="48.06589" lon="-4.63037">
        <ele>57.82</ele>
        <time>2017-05-25T10:03:45Z</time>
      </trkpt>
      <trkpt lat="48.06596" lon="-4.6302">
        <ele>55.41</ele>
        <time>2017-05-25T10:03:56Z</time>
      </trkpt>
      <trkpt lat="48.06591" lon="-4.63021">
        <ele>55.89</ele>
        <time>2017-05-25T10:04:00Z</time>
      </trkpt>
      <trkpt lat="48.06589" lon="-4.63021">
        <ele>56.37</ele>
        <time>2017-05-25T10:04:03Z</time>
      </trkpt>
      <trkpt lat="48.06588" lon="-4.63017">
        <ele>57.34</ele>
        <time>2017-05-25T10:04:08Z</time>
      </trkpt>
      <trkpt lat="48.0659" lon="-4.63013">
        <ele>57.82</ele>
        <time>2017-05-25T10:04:12Z</time>
      </trkpt>
      <trkpt lat="48.06589" lon="-4.63012">
        <ele>57.82</ele>
        <time>2017-05-25T10:04:15Z</time>
      </trkpt>
      <trkpt lat="48.06583" lon="-4.62982">
        <ele>60.7</ele>
        <time>2017-05-25T10:04:33Z</time>
      </trkpt>
      <trkpt lat="48.06576" lon="-4.62969">
        <ele>62.14</ele>
        <time>2017-05-25T10:04:42Z</time>
      </trkpt>
      <trkpt lat="48.06564" lon="-4.62953">
        <ele>63.58</ele>
        <time>2017-05-25T10:04:55Z</time>
      </trkpt>
      <trkpt lat="48.06564" lon="-4.62952">
        <ele>63.58</ele>
        <time>2017-05-25T10:04:56Z</time>
      </trkpt>
      <trkpt lat="48.06561" lon="-4.62918">
        <ele>65.51</ele>
        <time>2017-05-25T10:05:13Z</time>
      </trkpt>
      <trkpt lat="48.06561" lon="-4.62901">
        <ele>65.99</ele>
        <time>2017-05-25T10:05:20Z</time>
      </trkpt>
      <trkpt lat="48.06571" lon="-4.62871">
        <ele>68.39</ele>
        <time>2017-05-25T10:05:36Z</time>
      </trkpt>
      <trkpt lat="48.06577" lon="-4.62858">
        <ele>68.87</ele>
        <time>2017-05-25T10:05:45Z</time>
      </trkpt>
      <trkpt lat="48.0659" lon="-4.6284">
        <ele>68.87</ele>
        <time>2017-05-25T10:05:55Z</time>
      </trkpt>
      <trkpt lat="48.06612" lon="-4.62837">
        <ele>70.79</ele>
        <time>2017-05-25T10:06:12Z</time>
      </trkpt>
      <trkpt lat="48.06616" lon="-4.62839">
        <ele>71.27</ele>
        <time>2017-05-25T10:06:15Z</time>
      </trkpt>
      <trkpt lat="48.06639" lon="-4.62837">
        <ele>70.79</ele>
        <time>2017-05-25T10:06:33Z</time>
      </trkpt>
      <trkpt lat="48.06645" lon="-4.62835">
        <ele>71.27</ele>
        <time>2017-05-25T10:06:46Z</time>
      </trkpt>
      <trkpt lat="48.06645" lon="-4.62835">
        <ele>70.79</ele>
        <time>2017-05-25T10:07:18Z</time>
      </trkpt>
      <trkpt lat="48.06645" lon="-4.62835">
        <ele>70.79</ele>
        <time>2017-05-25T10:07:57Z</time>
      </trkpt>
      <trkpt lat="48.06645" lon="-4.62835">
        <ele>69.83</ele>
        <time>2017-05-25T10:08:27Z</time>
      </trkpt>
      <trkpt lat="48.06645" lon="-4.62835">
        <ele>69.35</ele>
        <time>2017-05-25T10:09:00Z</time>
      </trkpt>
      <trkpt lat="48.06645" lon="-4.62835">
        <ele>69.35</ele>
        <time>2017-05-25T10:09:37Z</time>
      </trkpt>
      <trkpt lat="48.06643" lon="-4.62835">
        <ele>67.91</ele>
        <time>2017-05-25T10:10:05Z</time>
      </trkpt>
      <trkpt lat="48.06644" lon="-4.62834">
        <ele>67.91</ele>
        <time>2017-05-25T10:10:27Z</time>
      </trkpt>
      <trkpt lat="48.06643" lon="-4.62834">
        <ele>67.91</ele>
        <time>2017-05-25T10:10:56Z</time>
      </trkpt>
      <trkpt lat="48.06644" lon="-4.62834">
        <ele>67.43</ele>
        <time>2017-05-25T10:11:17Z</time>
      </trkpt>
      <trkpt lat="48.06645" lon="-4.62835">
        <ele>66.95</ele>
        <time>2017-05-25T10:11:41Z</time>
      </trkpt>
      <trkpt lat="48.0665" lon="-4.62837">
        <ele>66.95</ele>
        <time>2017-05-25T10:11:57Z</time>
      </trkpt>
      <trkpt lat="48.06665" lon="-4.62835">
        <ele>67.43</ele>
        <time>2017-05-25T10:12:11Z</time>
      </trkpt>
      <trkpt lat="48.06672" lon="-4.62838">
        <ele>66.47</ele>
        <time>2017-05-25T10:12:26Z</time>
      </trkpt>
      <trkpt lat="48.06692" lon="-4.62842">
        <ele>65.99</ele>
        <time>2017-05-25T10:12:45Z</time>
      </trkpt>
      <trkpt lat="48.067" lon="-4.62845">
        <ele>65.51</ele>
        <time>2017-05-25T10:12:54Z</time>
      </trkpt>
      <trkpt lat="48.06711" lon="-4.62847">
        <ele>63.58</ele>
        <time>2017-05-25T10:13:07Z</time>
      </trkpt>
      <trkpt lat="48.0672" lon="-4.62846">
        <ele>62.14</ele>
        <time>2017-05-25T10:13:18Z</time>
      </trkpt>
      <trkpt lat="48.06724" lon="-4.62843">
        <ele>60.7</ele>
        <time>2017-05-25T10:13:24Z</time>
      </trkpt>
      <trkpt lat="48.06735" lon="-4.62826">
        <ele>59.26</ele>
        <time>2017-05-25T10:13:39Z</time>
      </trkpt>
      <trkpt lat="48.06747" lon="-4.62812">
        <ele>59.74</ele>
        <time>2017-05-25T10:13:52Z</time>
      </trkpt>
      <trkpt lat="48.06759" lon="-4.62799">
        <ele>60.7</ele>
        <time>2017-05-25T10:14:05Z</time>
      </trkpt>
      <trkpt lat="48.06766" lon="-4.62791">
        <ele>59.26</ele>
        <time>2017-05-25T10:14:12Z</time>
      </trkpt>
      <trkpt lat="48.06771" lon="-4.62781">
        <ele>58.78</ele>
        <time>2017-05-25T10:14:19Z</time>
      </trkpt>
      <trkpt lat="48.0678" lon="-4.62772">
        <ele>58.78</ele>
        <time>2017-05-25T10:14:30Z</time>
      </trkpt>
      <trkpt lat="48.06784" lon="-4.62765">
        <ele>60.22</ele>
        <time>2017-05-25T10:14:36Z</time>
      </trkpt>
      <trkpt lat="48.06788" lon="-4.62759">
        <ele>60.7</ele>
        <time>2017-05-25T10:14:40Z</time>
      </trkpt>
      <trkpt lat="48.06799" lon="-4.62754">
        <ele>61.66</ele>
        <time>2017-05-25T10:14:50Z</time>
      </trkpt>
      <trkpt lat="48.0682" lon="-4.62761">
        <ele>62.14</ele>
        <time>2017-05-25T10:15:07Z</time>
      </trkpt>
      <trkpt lat="48.06828" lon="-4.62762">
        <ele>61.66</ele>
        <time>2017-05-25T10:15:13Z</time>
      </trkpt>
      <trkpt lat="48.06834" lon="-4.62758">
        <ele>60.22</ele>
        <time>2017-05-25T10:15:20Z</time>
      </trkpt>
      <trkpt lat="48.06839" lon="-4.62749">
        <ele>60.7</ele>
        <time>2017-05-25T10:15:27Z</time>
      </trkpt>
      <trkpt lat="48.06844" lon="-4.62747">
        <ele>62.14</ele>
        <time>2017-05-25T10:15:39Z</time>
      </trkpt>
      <trkpt lat="48.06845" lon="-4.62748">
        <ele>63.1</ele>
        <time>2017-05-25T10:16:08Z</time>
      </trkpt>
      <trkpt lat="48.06845" lon="-4.62748">
        <ele>63.58</ele>
        <time>2017-05-25T10:16:30Z</time>
      </trkpt>
      <trkpt lat="48.06845" lon="-4.62749">
        <ele>63.58</ele>
        <time>2017-05-25T10:16:51Z</time>
      </trkpt>
      <trkpt lat="48.06851" lon="-4.62748">
        <ele>63.58</ele>
        <time>2017-05-25T10:17:10Z</time>
      </trkpt>
      <trkpt lat="48.06865" lon="-4.62746">
        <ele>62.62</ele>
        <time>2017-05-25T10:17:23Z</time>
      </trkpt>
      <trkpt lat="48.0688" lon="-4.62745">
        <ele>62.14</ele>
        <time>2017-05-25T10:17:36Z</time>
      </trkpt>
      <trkpt lat="48.06888" lon="-4.62745">
        <ele>62.14</ele>
        <time>2017-05-25T10:17:41Z</time>
      </trkpt>
      <trkpt lat="48.06891" lon="-4.62744">
        <ele>61.66</ele>
        <time>2017-05-25T10:17:43Z</time>
      </trkpt>
      <trkpt lat="48.06907" lon="-4.62744">
        <ele>59.26</ele>
        <time>2017-05-25T10:18:00Z</time>
      </trkpt>
      <trkpt lat="48.0691" lon="-4.62744">
        <ele>59.26</ele>
        <time>2017-05-25T10:18:02Z</time>
      </trkpt>
      <trkpt lat="48.06916" lon="-4.62746">
        <ele>59.26</ele>
        <time>2017-05-25T10:18:07Z</time>
      </trkpt>
      <trkpt lat="48.06932" lon="-4.62747">
        <ele>58.3</ele>
        <time>2017-05-25T10:18:22Z</time>
      </trkpt>
      <trkpt lat="48.06954" lon="-4.62748">
        <ele>59.74</ele>
        <time>2017-05-25T10:18:38Z</time>
      </trkpt>
      <trkpt lat="48.0697" lon="-4.62747">
        <ele>60.7</ele>
        <time>2017-05-25T10:18:53Z</time>
      </trkpt>
      <trkpt lat="48.06975" lon="-4.62748">
        <ele>60.7</ele>
        <time>2017-05-25T10:18:57Z</time>
      </trkpt>
      <trkpt lat="48.06993" lon="-4.6275">
        <ele>63.58</ele>
        <time>2017-05-25T10:19:11Z</time>
      </trkpt>
      <trkpt lat="48.07006" lon="-4.62752">
        <ele>64.07</ele>
        <time>2017-05-25T10:19:23Z</time>
      </trkpt>
      <trkpt lat="48.07012" lon="-4.62758">
        <ele>64.07</ele>
        <time>2017-05-25T10:19:29Z</time>
      </trkpt>
      <trkpt lat="48.07025" lon="-4.62783">
        <ele>62.62</ele>
        <time>2017-05-25T10:19:46Z</time>
      </trkpt>
      <trkpt lat="48.07031" lon="-4.62785">
        <ele>62.14</ele>
        <time>2017-05-25T10:19:58Z</time>
      </trkpt>
      <trkpt lat="48.07032" lon="-4.62786">
        <ele>64.07</ele>
        <time>2017-05-25T10:20:13Z</time>
      </trkpt>
      <trkpt lat="48.07039" lon="-4.62802">
        <ele>64.07</ele>
        <time>2017-05-25T10:20:26Z</time>
      </trkpt>
      <trkpt lat="48.07046" lon="-4.62818">
        <ele>62.14</ele>
        <time>2017-05-25T10:20:40Z</time>
      </trkpt>
      <trkpt lat="48.07058" lon="-4.62834">
        <ele>62.14</ele>
        <time>2017-05-25T10:20:58Z</time>
      </trkpt>
      <trkpt lat="48.07071" lon="-4.62851">
        <ele>64.07</ele>
        <time>2017-05-25T10:21:14Z</time>
      </trkpt>
      <trkpt lat="48.07083" lon="-4.62865">
        <ele>65.99</ele>
        <time>2017-05-25T10:21:28Z</time>
      </trkpt>
      <trkpt lat="48.07086" lon="-4.62869">
        <ele>67.91</ele>
        <time>2017-05-25T10:21:45Z</time>
      </trkpt>
      <trkpt lat="48.07087" lon="-4.62869">
        <ele>69.35</ele>
        <time>2017-05-25T10:22:03Z</time>
      </trkpt>
      <trkpt lat="48.07087" lon="-4.62861">
        <ele>68.39</ele>
        <time>2017-05-25T10:22:18Z</time>
      </trkpt>
      <trkpt lat="48.07088" lon="-4.62854">
        <ele>68.39</ele>
        <time>2017-05-25T10:22:29Z</time>
      </trkpt>
      <trkpt lat="48.07087" lon="-4.62855">
        <ele>68.87</ele>
        <time>2017-05-25T10:22:45Z</time>
      </trkpt>
      <trkpt lat="48.07088" lon="-4.62854">
        <ele>69.35</ele>
        <time>2017-05-25T10:23:01Z</time>
      </trkpt>
      <trkpt lat="48.07089" lon="-4.62855">
        <ele>70.31</ele>
        <time>2017-05-25T10:23:26Z</time>
      </trkpt>
      <trkpt lat="48.07089" lon="-4.62855">
        <ele>70.31</ele>
        <time>2017-05-25T10:23:45Z</time>
      </trkpt>
      <trkpt lat="48.07089" lon="-4.62855">
        <ele>70.79</ele>
        <time>2017-05-25T10:23:57Z</time>
      </trkpt>
      <trkpt lat="48.07096" lon="-4.62856">
        <ele>69.83</ele>
        <time>2017-05-25T10:24:10Z</time>
      </trkpt>
      <trkpt lat="48.07098" lon="-4.62853">
        <ele>68.87</ele>
        <time>2017-05-25T10:24:27Z</time>
      </trkpt>
      <trkpt lat="48.07098" lon="-4.62854">
        <ele>69.35</ele>
        <time>2017-05-25T10:24:41Z</time>
      </trkpt>
      <trkpt lat="48.07097" lon="-4.62855">
        <ele>68.87</ele>
        <time>2017-05-25T10:24:58Z</time>
      </trkpt>
      <trkpt lat="48.07097" lon="-4.62854">
        <ele>68.87</ele>
        <time>2017-05-25T10:25:29Z</time>
      </trkpt>
      <trkpt lat="48.07097" lon="-4.62854">
        <ele>68.87</ele>
        <time>2017-05-25T10:26:02Z</time>
      </trkpt>
      <trkpt lat="48.07097" lon="-4.62854">
        <ele>68.87</ele>
        <time>2017-05-25T10:26:32Z</time>
      </trkpt>
      <trkpt lat="48.07097" lon="-4.62855">
        <ele>68.39</ele>
        <time>2017-05-25T10:27:03Z</time>
      </trkpt>
      <trkpt lat="48.07097" lon="-4.62855">
        <ele>68.39</ele>
        <time>2017-05-25T10:27:38Z</time>
      </trkpt>
      <trkpt lat="48.07097" lon="-4.62855">
        <ele>68.39</ele>
        <time>2017-05-25T10:28:19Z</time>
      </trkpt>
      <trkpt lat="48.07097" lon="-4.62855">
        <ele>67.91</ele>
        <time>2017-05-25T10:28:58Z</time>
      </trkpt>
      <trkpt lat="48.07096" lon="-4.62855">
        <ele>68.39</ele>
        <time>2017-05-25T10:29:29Z</time>
      </trkpt>
      <trkpt lat="48.07097" lon="-4.62855">
        <ele>68.39</ele>
        <time>2017-05-25T10:30:07Z</time>
      </trkpt>
      <trkpt lat="48.07097" lon="-4.62855">
        <ele>68.39</ele>
        <time>2017-05-25T10:30:40Z</time>
      </trkpt>
      <trkpt lat="48.07097" lon="-4.62855">
        <ele>68.39</ele>
        <time>2017-05-25T10:31:18Z</time>
      </trkpt>
      <trkpt lat="48.07097" lon="-4.62855">
        <ele>68.39</ele>
        <time>2017-05-25T10:31:56Z</time>
      </trkpt>
      <trkpt lat="48.07097" lon="-4.62855">
        <ele>67.91</ele>
        <time>2017-05-25T10:32:33Z</time>
      </trkpt>
      <trkpt lat="48.07097" lon="-4.62855">
        <ele>67.91</ele>
        <time>2017-05-25T10:33:09Z</time>
      </trkpt>
      <trkpt lat="48.07097" lon="-4.62855">
        <ele>67.91</ele>
        <time>2017-05-25T10:33:48Z</time>
      </trkpt>
      <trkpt lat="48.07098" lon="-4.62855">
        <ele>67.91</ele>
        <time>2017-05-25T10:34:22Z</time>
      </trkpt>
      <trkpt lat="48.07098" lon="-4.62855">
        <ele>67.43</ele>
        <time>2017-05-25T10:35:07Z</time>
      </trkpt>
      <trkpt lat="48.07098" lon="-4.62855">
        <ele>67.43</ele>
        <time>2017-05-25T10:35:49Z</time>
      </trkpt>
      <trkpt lat="48.07097" lon="-4.62855">
        <ele>67.43</ele>
        <time>2017-05-25T10:36:27Z</time>
      </trkpt>
      <trkpt lat="48.07097" lon="-4.62855">
        <ele>67.43</ele>
        <time>2017-05-25T10:37:05Z</time>
      </trkpt>
      <trkpt lat="48.07097" lon="-4.62855">
        <ele>67.91</ele>
        <time>2017-05-25T10:37:44Z</time>
      </trkpt>
      <trkpt lat="48.07097" lon="-4.62855">
        <ele>67.91</ele>
        <time>2017-05-25T10:38:21Z</time>
      </trkpt>
      <trkpt lat="48.07097" lon="-4.62855">
        <ele>68.39</ele>
        <time>2017-05-25T10:38:58Z</time>
      </trkpt>
      <trkpt lat="48.07097" lon="-4.62855">
        <ele>68.39</ele>
        <time>2017-05-25T10:39:37Z</time>
      </trkpt>
      <trkpt lat="48.07097" lon="-4.62855">
        <ele>68.87</ele>
        <time>2017-05-25T10:40:18Z</time>
      </trkpt>
      <trkpt lat="48.07097" lon="-4.62855">
        <ele>68.87</ele>
        <time>2017-05-25T10:41:00Z</time>
      </trkpt>
      <trkpt lat="48.07096" lon="-4.62855">
        <ele>68.87</ele>
        <time>2017-05-25T10:41:38Z</time>
      </trkpt>
      <trkpt lat="48.07096" lon="-4.62855">
        <ele>68.87</ele>
        <time>2017-05-25T10:42:11Z</time>
      </trkpt>
      <trkpt lat="48.07096" lon="-4.62855">
        <ele>68.87</ele>
        <time>2017-05-25T10:42:49Z</time>
      </trkpt>
      <trkpt lat="48.07096" lon="-4.62855">
        <ele>68.39</ele>
        <time>2017-05-25T10:43:26Z</time>
      </trkpt>
      <trkpt lat="48.07097" lon="-4.62855">
        <ele>68.39</ele>
        <time>2017-05-25T10:43:58Z</time>
      </trkpt>
      <trkpt lat="48.07097" lon="-4.62855">
        <ele>68.39</ele>
        <time>2017-05-25T10:44:30Z</time>
      </trkpt>
      <trkpt lat="48.07097" lon="-4.62855">
        <ele>68.87</ele>
        <time>2017-05-25T10:45:06Z</time>
      </trkpt>
      <trkpt lat="48.07096" lon="-4.62855">
        <ele>68.39</ele>
        <time>2017-05-25T10:45:40Z</time>
      </trkpt>
      <trkpt lat="48.07097" lon="-4.62856">
        <ele>68.39</ele>
        <time>2017-05-25T10:46:20Z</time>
      </trkpt>
      <trkpt lat="48.07097" lon="-4.62855">
        <ele>68.87</ele>
        <time>2017-05-25T10:46:54Z</time>
      </trkpt>
      <trkpt lat="48.07096" lon="-4.62855">
        <ele>69.35</ele>
        <time>2017-05-25T10:47:18Z</time>
      </trkpt>
      <trkpt lat="48.07096" lon="-4.62855">
        <ele>69.35</ele>
        <time>2017-05-25T10:47:53Z</time>
      </trkpt>
      <trkpt lat="48.07096" lon="-4.62856">
        <ele>68.87</ele>
        <time>2017-05-25T10:48:32Z</time>
      </trkpt>
      <trkpt lat="48.07097" lon="-4.62855">
        <ele>68.87</ele>
        <time>2017-05-25T10:49:11Z</time>
      </trkpt>
      <trkpt lat="48.07097" lon="-4.62855">
        <ele>69.35</ele>
        <time>2017-05-25T10:49:41Z</time>
      </trkpt>
      <trkpt lat="48.07097" lon="-4.62855">
        <ele>69.83</ele>
        <time>2017-05-25T10:50:20Z</time>
      </trkpt>
      <trkpt lat="48.07097" lon="-4.62855">
        <ele>69.83</ele>
        <time>2017-05-25T10:50:45Z</time>
      </trkpt>
      <trkpt lat="48.07097" lon="-4.62855">
        <ele>69.83</ele>
        <time>2017-05-25T10:51:26Z</time>
      </trkpt>
      <trkpt lat="48.07097" lon="-4.62855">
        <ele>69.83</ele>
        <time>2017-05-25T10:52:08Z</time>
      </trkpt>
      <trkpt lat="48.07097" lon="-4.62855">
        <ele>69.83</ele>
        <time>2017-05-25T10:52:50Z</time>
      </trkpt>
      <trkpt lat="48.07097" lon="-4.62855">
        <ele>70.31</ele>
        <time>2017-05-25T10:53:29Z</time>
      </trkpt>
      <trkpt lat="48.07097" lon="-4.62855">
        <ele>70.31</ele>
        <time>2017-05-25T10:54:09Z</time>
      </trkpt>
      <trkpt lat="48.07097" lon="-4.62855">
        <ele>70.31</ele>
        <time>2017-05-25T10:54:44Z</time>
      </trkpt>
      <trkpt lat="48.07097" lon="-4.62855">
        <ele>70.31</ele>
        <time>2017-05-25T10:55:15Z</time>
      </trkpt>
      <trkpt lat="48.07097" lon="-4.62855">
        <ele>70.31</ele>
        <time>2017-05-25T10:55:55Z</time>
      </trkpt>
      <trkpt lat="48.07097" lon="-4.62855">
        <ele>70.79</ele>
        <time>2017-05-25T10:56:40Z</time>
      </trkpt>
      <trkpt lat="48.07097" lon="-4.62855">
        <ele>70.79</ele>
        <time>2017-05-25T10:57:20Z</time>
      </trkpt>
      <trkpt lat="48.07097" lon="-4.62855">
        <ele>70.79</ele>
        <time>2017-05-25T10:58:01Z</time>
      </trkpt>
      <trkpt lat="48.07097" lon="-4.62855">
        <ele>70.79</ele>
        <time>2017-05-25T10:58:43Z</time>
      </trkpt>
      <trkpt lat="48.07097" lon="-4.62855">
        <ele>70.79</ele>
        <time>2017-05-25T10:59:23Z</time>
      </trkpt>
      <trkpt lat="48.07097" lon="-4.62855">
        <ele>70.79</ele>
        <time>2017-05-25T11:00:05Z</time>
      </trkpt>
      <trkpt lat="48.07097" lon="-4.62856">
        <ele>70.31</ele>
        <time>2017-05-25T11:00:53Z</time>
      </trkpt>
      <trkpt lat="48.07097" lon="-4.62856">
        <ele>70.31</ele>
        <time>2017-05-25T11:01:34Z</time>
      </trkpt>
      <trkpt lat="48.07097" lon="-4.62856">
        <ele>69.83</ele>
        <time>2017-05-25T11:02:18Z</time>
      </trkpt>
      <trkpt lat="48.07097" lon="-4.62855">
        <ele>69.83</ele>
        <time>2017-05-25T11:03:04Z</time>
      </trkpt>
      <trkpt lat="48.07097" lon="-4.62855">
        <ele>69.83</ele>
        <time>2017-05-25T11:03:41Z</time>
      </trkpt>
      <trkpt lat="48.07097" lon="-4.62855">
        <ele>70.31</ele>
        <time>2017-05-25T11:04:18Z</time>
      </trkpt>
      <trkpt lat="48.07097" lon="-4.62855">
        <ele>70.31</ele>
        <time>2017-05-25T11:04:54Z</time>
      </trkpt>
      <trkpt lat="48.07097" lon="-4.62855">
        <ele>70.31</ele>
        <time>2017-05-25T11:05:45Z</time>
      </trkpt>
      <trkpt lat="48.07097" lon="-4.62855">
        <ele>70.31</ele>
        <time>2017-05-25T11:06:25Z</time>
      </trkpt>
      <trkpt lat="48.07097" lon="-4.62855">
        <ele>70.31</ele>
        <time>2017-05-25T11:07:12Z</time>
      </trkpt>
      <trkpt lat="48.07097" lon="-4.62855">
        <ele>70.31</ele>
        <time>2017-05-25T11:07:57Z</time>
      </trkpt>
      <trkpt lat="48.07097" lon="-4.62855">
        <ele>70.31</ele>
        <time>2017-05-25T11:08:35Z</time>
      </trkpt>
      <trkpt lat="48.07096" lon="-4.62854">
        <ele>70.31</ele>
        <time>2017-05-25T11:09:12Z</time>
      </trkpt>
      <trkpt lat="48.07096" lon="-4.62854">
        <ele>70.79</ele>
        <time>2017-05-25T11:09:52Z</time>
      </trkpt>
      <trkpt lat="48.07096" lon="-4.62854">
        <ele>71.27</ele>
        <time>2017-05-25T11:10:32Z</time>
      </trkpt>
      <trkpt lat="48.07096" lon="-4.62855">
        <ele>71.76</ele>
        <time>2017-05-25T11:11:15Z</time>
      </trkpt>
      <trkpt lat="48.07096" lon="-4.62854">
        <ele>72.72</ele>
        <time>2017-05-25T11:12:03Z</time>
      </trkpt>
      <trkpt lat="48.07096" lon="-4.62854">
        <ele>72.72</ele>
        <time>2017-05-25T11:12:48Z</time>
      </trkpt>
      <trkpt lat="48.07096" lon="-4.62855">
        <ele>72.72</ele>
        <time>2017-05-25T11:13:26Z</time>
      </trkpt>
      <trkpt lat="48.07096" lon="-4.62855">
        <ele>72.24</ele>
        <time>2017-05-25T11:14:05Z</time>
      </trkpt>
      <trkpt lat="48.07096" lon="-4.62855">
        <ele>71.76</ele>
        <time>2017-05-25T11:14:45Z</time>
      </trkpt>
      <trkpt lat="48.07096" lon="-4.62855">
        <ele>71.76</ele>
        <time>2017-05-25T11:15:23Z</time>
      </trkpt>
      <trkpt lat="48.07096" lon="-4.62855">
        <ele>71.76</ele>
        <time>2017-05-25T11:16:04Z</time>
      </trkpt>
      <trkpt lat="48.07096" lon="-4.62855">
        <ele>72.24</ele>
        <time>2017-05-25T11:16:40Z</time>
      </trkpt>
      <trkpt lat="48.07095" lon="-4.62855">
        <ele>72.72</ele>
        <time>2017-05-25T11:17:16Z</time>
      </trkpt>
      <trkpt lat="48.07095" lon="-4.62855">
        <ele>73.2</ele>
        <time>2017-05-25T11:17:52Z</time>
      </trkpt>
      <trkpt lat="48.07095" lon="-4.62853">
        <ele>73.2</ele>
        <time>2017-05-25T11:18:34Z</time>
      </trkpt>
      <trkpt lat="48.07095" lon="-4.62853">
        <ele>73.68</ele>
        <time>2017-05-25T11:19:14Z</time>
      </trkpt>
      <trkpt lat="48.07095" lon="-4.62853">
        <ele>74.16</ele>
        <time>2017-05-25T11:19:57Z</time>
      </trkpt>
      <trkpt lat="48.07095" lon="-4.62852">
        <ele>74.64</ele>
        <time>2017-05-25T11:20:43Z</time>
      </trkpt>
      <trkpt lat="48.07095" lon="-4.62852">
        <ele>74.64</ele>
        <time>2017-05-25T11:21:21Z</time>
      </trkpt>
      <trkpt lat="48.07095" lon="-4.62852">
        <ele>74.64</ele>
        <time>2017-05-25T11:22:00Z</time>
      </trkpt>
      <trkpt lat="48.07094" lon="-4.62852">
        <ele>74.64</ele>
        <time>2017-05-25T11:22:42Z</time>
      </trkpt>
      <trkpt lat="48.07095" lon="-4.62852">
        <ele>74.64</ele>
        <time>2017-05-25T11:23:25Z</time>
      </trkpt>
      <trkpt lat="48.07095" lon="-4.62853">
        <ele>75.12</ele>
        <time>2017-05-25T11:23:58Z</time>
      </trkpt>
      <trkpt lat="48.07095" lon="-4.62854">
        <ele>74.64</ele>
        <time>2017-05-25T11:24:24Z</time>
      </trkpt>
      <trkpt lat="48.07096" lon="-4.62853">
        <ele>74.64</ele>
        <time>2017-05-25T11:24:50Z</time>
      </trkpt>
      <trkpt lat="48.07094" lon="-4.6286">
        <ele>76.08</ele>
        <time>2017-05-25T11:25:04Z</time>
      </trkpt>
      <trkpt lat="48.07085" lon="-4.62861">
        <ele>78.48</ele>
        <time>2017-05-25T11:25:20Z</time>
      </trkpt>
      <trkpt lat="48.0708" lon="-4.62856">
        <ele>79.45</ele>
        <time>2017-05-25T11:25:30Z</time>
      </trkpt>
      <trkpt lat="48.07068" lon="-4.62843">
        <ele>77.52</ele>
        <time>2017-05-25T11:25:48Z</time>
      </trkpt>
      <trkpt lat="48.07059" lon="-4.62834">
        <ele>76.56</ele>
        <time>2017-05-25T11:26:02Z</time>
      </trkpt>
      <trkpt lat="48.07057" lon="-4.6283">
        <ele>75.12</ele>
        <time>2017-05-25T11:26:06Z</time>
      </trkpt>
      <trkpt lat="48.07046" lon="-4.62816">
        <ele>73.68</ele>
        <time>2017-05-25T11:26:20Z</time>
      </trkpt>
      <trkpt lat="48.07038" lon="-4.62805">
        <ele>70.79</ele>
        <time>2017-05-25T11:26:32Z</time>
      </trkpt>
      <trkpt lat="48.07033" lon="-4.62794">
        <ele>68.87</ele>
        <time>2017-05-25T11:26:41Z</time>
      </trkpt>
      <trkpt lat="48.07031" lon="-4.62787">
        <ele>67.91</ele>
        <time>2017-05-25T11:26:47Z</time>
      </trkpt>
      <trkpt lat="48.07027" lon="-4.62782">
        <ele>67.43</ele>
        <time>2017-05-25T11:26:51Z</time>
      </trkpt>
      <trkpt lat="48.07024" lon="-4.62776">
        <ele>67.43</ele>
        <time>2017-05-25T11:26:56Z</time>
      </trkpt>
      <trkpt lat="48.07015" lon="-4.6276">
        <ele>68.39</ele>
        <time>2017-05-25T11:27:11Z</time>
      </trkpt>
      <trkpt lat="48.07001" lon="-4.62751">
        <ele>68.87</ele>
        <time>2017-05-25T11:27:23Z</time>
      </trkpt>
      <trkpt lat="48.06997" lon="-4.6275">
        <ele>68.87</ele>
        <time>2017-05-25T11:27:37Z</time>
      </trkpt>
      <trkpt lat="48.06998" lon="-4.6275">
        <ele>68.87</ele>
        <time>2017-05-25T11:27:42Z</time>
      </trkpt>
      <trkpt lat="48.07009" lon="-4.62753">
        <ele>69.35</ele>
        <time>2017-05-25T11:27:54Z</time>
      </trkpt>
      <trkpt lat="48.0701" lon="-4.62755">
        <ele>69.35</ele>
        <time>2017-05-25T11:27:56Z</time>
      </trkpt>
      <trkpt lat="48.07019" lon="-4.6277">
        <ele>67.91</ele>
        <time>2017-05-25T11:28:12Z</time>
      </trkpt>
      <trkpt lat="48.0703" lon="-4.62784">
        <ele>66.95</ele>
        <time>2017-05-25T11:28:26Z</time>
      </trkpt>
      <trkpt lat="48.07046" lon="-4.62793">
        <ele>66.95</ele>
        <time>2017-05-25T11:28:42Z</time>
      </trkpt>
      <trkpt lat="48.07048" lon="-4.62794">
        <ele>67.43</ele>
        <time>2017-05-25T11:28:44Z</time>
      </trkpt>
      <trkpt lat="48.07059" lon="-4.62802">
        <ele>67.91</ele>
        <time>2017-05-25T11:28:55Z</time>
      </trkpt>
      <trkpt lat="48.07065" lon="-4.62806">
        <ele>68.87</ele>
        <time>2017-05-25T11:29:01Z</time>
      </trkpt>
      <trkpt lat="48.07076" lon="-4.62805">
        <ele>69.35</ele>
        <time>2017-05-25T11:29:14Z</time>
      </trkpt>
      <trkpt lat="48.07072" lon="-4.62784">
        <ele>71.27</ele>
        <time>2017-05-25T11:29:26Z</time>
      </trkpt>
      <trkpt lat="48.07067" lon="-4.62773">
        <ele>72.24</ele>
        <time>2017-05-25T11:29:35Z</time>
      </trkpt>
      <trkpt lat="48.07063" lon="-4.62768">
        <ele>72.24</ele>
        <time>2017-05-25T11:29:40Z</time>
      </trkpt>
      <trkpt lat="48.07057" lon="-4.62761">
        <ele>72.24</ele>
        <time>2017-05-25T11:29:47Z</time>
      </trkpt>
      <trkpt lat="48.07053" lon="-4.62754">
        <ele>71.76</ele>
        <time>2017-05-25T11:29:51Z</time>
      </trkpt>
      <trkpt lat="48.07046" lon="-4.6273">
        <ele>68.87</ele>
        <time>2017-05-25T11:30:06Z</time>
      </trkpt>
      <trkpt lat="48.07044" lon="-4.62728">
        <ele>68.39</ele>
        <time>2017-05-25T11:30:08Z</time>
      </trkpt>
      <trkpt lat="48.07044" lon="-4.62722">
        <ele>67.43</ele>
        <time>2017-05-25T11:30:14Z</time>
      </trkpt>
      <trkpt lat="48.07039" lon="-4.62712">
        <ele>65.99</ele>
        <time>2017-05-25T11:30:21Z</time>
      </trkpt>
      <trkpt lat="48.07032" lon="-4.62702">
        <ele>65.51</ele>
        <time>2017-05-25T11:30:28Z</time>
      </trkpt>
      <trkpt lat="48.07027" lon="-4.62692">
        <ele>66.47</ele>
        <time>2017-05-25T11:30:36Z</time>
      </trkpt>
      <trkpt lat="48.07022" lon="-4.6267">
        <ele>67.43</ele>
        <time>2017-05-25T11:30:48Z</time>
      </trkpt>
      <trkpt lat="48.07018" lon="-4.62661">
        <ele>67.91</ele>
        <time>2017-05-25T11:30:53Z</time>
      </trkpt>
      <trkpt lat="48.07016" lon="-4.62654">
        <ele>67.91</ele>
        <time>2017-05-25T11:30:58Z</time>
      </trkpt>
      <trkpt lat="48.07013" lon="-4.62628">
        <ele>66.95</ele>
        <time>2017-05-25T11:31:13Z</time>
      </trkpt>
      <trkpt lat="48.07009" lon="-4.62615">
        <ele>65.99</ele>
        <time>2017-05-25T11:31:19Z</time>
      </trkpt>
      <trkpt lat="48.07012" lon="-4.62587">
        <ele>65.51</ele>
        <time>2017-05-25T11:31:34Z</time>
      </trkpt>
      <trkpt lat="48.07012" lon="-4.62586">
        <ele>65.51</ele>
        <time>2017-05-25T11:31:35Z</time>
      </trkpt>
      <trkpt lat="48.07005" lon="-4.62563">
        <ele>65.51</ele>
        <time>2017-05-25T11:31:49Z</time>
      </trkpt>
      <trkpt lat="48.06997" lon="-4.62541">
        <ele>64.07</ele>
        <time>2017-05-25T11:32:04Z</time>
      </trkpt>
      <trkpt lat="48.06996" lon="-4.62537">
        <ele>64.07</ele>
        <time>2017-05-25T11:32:07Z</time>
      </trkpt>
      <trkpt lat="48.06989" lon="-4.62516">
        <ele>64.07</ele>
        <time>2017-05-25T11:32:20Z</time>
      </trkpt>
      <trkpt lat="48.06989" lon="-4.62511">
        <ele>63.58</ele>
        <time>2017-05-25T11:32:23Z</time>
      </trkpt>
      <trkpt lat="48.06988" lon="-4.62504">
        <ele>63.1</ele>
        <time>2017-05-25T11:32:26Z</time>
      </trkpt>
      <trkpt lat="48.06985" lon="-4.62486">
        <ele>60.7</ele>
        <time>2017-05-25T11:32:36Z</time>
      </trkpt>
      <trkpt lat="48.06984" lon="-4.62473">
        <ele>59.74</ele>
        <time>2017-05-25T11:32:43Z</time>
      </trkpt>
      <trkpt lat="48.06985" lon="-4.62452">
        <ele>58.78</ele>
        <time>2017-05-25T11:32:55Z</time>
      </trkpt>
      <trkpt lat="48.06986" lon="-4.62439">
        <ele>58.78</ele>
        <time>2017-05-25T11:33:07Z</time>
      </trkpt>
      <trkpt lat="48.06985" lon="-4.62435">
        <ele>58.78</ele>
        <time>2017-05-25T11:33:10Z</time>
      </trkpt>
      <trkpt lat="48.06981" lon="-4.62411">
        <ele>56.37</ele>
        <time>2017-05-25T11:33:24Z</time>
      </trkpt>
      <trkpt lat="48.06981" lon="-4.62409">
        <ele>55.89</ele>
        <time>2017-05-25T11:33:25Z</time>
      </trkpt>
      <trkpt lat="48.06978" lon="-4.62398">
        <ele>53.01</ele>
        <time>2017-05-25T11:33:33Z</time>
      </trkpt>
      <trkpt lat="48.06979" lon="-4.62382">
        <ele>49.16</ele>
        <time>2017-05-25T11:33:49Z</time>
      </trkpt>
      <trkpt lat="48.06977" lon="-4.62379">
        <ele>48.68</ele>
        <time>2017-05-25T11:34:11Z</time>
      </trkpt>
      <trkpt lat="48.06976" lon="-4.62379">
        <ele>48.2</ele>
        <time>2017-05-25T11:34:15Z</time>
      </trkpt>
      <trkpt lat="48.06963" lon="-4.62367">
        <ele>45.32</ele>
        <time>2017-05-25T11:34:31Z</time>
      </trkpt>
      <trkpt lat="48.0696" lon="-4.62362">
        <ele>44.36</ele>
        <time>2017-05-25T11:34:46Z</time>
      </trkpt>
      <trkpt lat="48.06958" lon="-4.62359">
        <ele>43.88</ele>
        <time>2017-05-25T11:35:09Z</time>
      </trkpt>
      <trkpt lat="48.06951" lon="-4.62352">
        <ele>44.36</ele>
        <time>2017-05-25T11:35:16Z</time>
      </trkpt>
      <trkpt lat="48.0694" lon="-4.62339">
        <ele>44.84</ele>
        <time>2017-05-25T11:35:28Z</time>
      </trkpt>
      <trkpt lat="48.06925" lon="-4.62313">
        <ele>46.28</ele>
        <time>2017-05-25T11:35:42Z</time>
      </trkpt>
      <trkpt lat="48.06914" lon="-4.62299">
        <ele>45.32</ele>
        <time>2017-05-25T11:35:55Z</time>
      </trkpt>
      <trkpt lat="48.06901" lon="-4.62283">
        <ele>42.92</ele>
        <time>2017-05-25T11:36:08Z</time>
      </trkpt>
      <trkpt lat="48.06895" lon="-4.62274">
        <ele>41.95</ele>
        <time>2017-05-25T11:36:14Z</time>
      </trkpt>
      <trkpt lat="48.06884" lon="-4.62257">
        <ele>40.03</ele>
        <time>2017-05-25T11:36:27Z</time>
      </trkpt>
      <trkpt lat="48.06879" lon="-4.62248">
        <ele>39.55</ele>
        <time>2017-05-25T11:36:32Z</time>
      </trkpt>
      <trkpt lat="48.06875" lon="-4.62242">
        <ele>39.07</ele>
        <time>2017-05-25T11:36:37Z</time>
      </trkpt>
      <trkpt lat="48.06869" lon="-4.62236">
        <ele>38.59</ele>
        <time>2017-05-25T11:36:43Z</time>
      </trkpt>
      <trkpt lat="48.06866" lon="-4.6223">
        <ele>38.11</ele>
        <time>2017-05-25T11:36:46Z</time>
      </trkpt>
      <trkpt lat="48.06862" lon="-4.62227">
        <ele>38.11</ele>
        <time>2017-05-25T11:36:51Z</time>
      </trkpt>
      <trkpt lat="48.0686" lon="-4.62223">
        <ele>37.63</ele>
        <time>2017-05-25T11:36:54Z</time>
      </trkpt>
      <trkpt lat="48.06852" lon="-4.62217">
        <ele>37.15</ele>
        <time>2017-05-25T11:37:00Z</time>
      </trkpt>
      <trkpt lat="48.06845" lon="-4.62216">
        <ele>35.71</ele>
        <time>2017-05-25T11:37:07Z</time>
      </trkpt>
      <trkpt lat="48.06834" lon="-4.62214">
        <ele>34.74</ele>
        <time>2017-05-25T11:37:14Z</time>
      </trkpt>
      <trkpt lat="48.06832" lon="-4.62213">
        <ele>34.26</ele>
        <time>2017-05-25T11:37:17Z</time>
      </trkpt>
      <trkpt lat="48.0683" lon="-4.62215">
        <ele>34.26</ele>
        <time>2017-05-25T11:37:20Z</time>
      </trkpt>
      <trkpt lat="48.06819" lon="-4.62216">
        <ele>33.78</ele>
        <time>2017-05-25T11:37:33Z</time>
      </trkpt>
      <trkpt lat="48.06815" lon="-4.62215">
        <ele>33.3</ele>
        <time>2017-05-25T11:37:40Z</time>
      </trkpt>
      <trkpt lat="48.06812" lon="-4.62216">
        <ele>32.82</ele>
        <time>2017-05-25T11:37:43Z</time>
      </trkpt>
      <trkpt lat="48.06802" lon="-4.62217">
        <ele>33.78</ele>
        <time>2017-05-25T11:37:55Z</time>
      </trkpt>
      <trkpt lat="48.06791" lon="-4.62216">
        <ele>34.74</ele>
        <time>2017-05-25T11:38:06Z</time>
      </trkpt>
      <trkpt lat="48.06773" lon="-4.62217">
        <ele>35.71</ele>
        <time>2017-05-25T11:38:20Z</time>
      </trkpt>
      <trkpt lat="48.06759" lon="-4.62215">
        <ele>36.67</ele>
        <time>2017-05-25T11:38:34Z</time>
      </trkpt>
      <trkpt lat="48.06746" lon="-4.62214">
        <ele>34.26</ele>
        <time>2017-05-25T11:38:47Z</time>
      </trkpt>
      <trkpt lat="48.06734" lon="-4.62214">
        <ele>32.82</ele>
        <time>2017-05-25T11:39:01Z</time>
      </trkpt>
      <trkpt lat="48.06717" lon="-4.62215">
        <ele>34.74</ele>
        <time>2017-05-25T11:39:17Z</time>
      </trkpt>
      <trkpt lat="48.06706" lon="-4.62216">
        <ele>37.15</ele>
        <time>2017-05-25T11:39:33Z</time>
      </trkpt>
      <trkpt lat="48.06691" lon="-4.62214">
        <ele>38.59</ele>
        <time>2017-05-25T11:39:46Z</time>
      </trkpt>
      <trkpt lat="48.0669" lon="-4.62214">
        <ele>38.11</ele>
        <time>2017-05-25T11:39:47Z</time>
      </trkpt>
      <trkpt lat="48.06687" lon="-4.62209">
        <ele>39.55</ele>
        <time>2017-05-25T11:40:03Z</time>
      </trkpt>
      <trkpt lat="48.06689" lon="-4.622">
        <ele>40.51</ele>
        <time>2017-05-25T11:40:09Z</time>
      </trkpt>
      <trkpt lat="48.06696" lon="-4.6219">
        <ele>40.51</ele>
        <time>2017-05-25T11:40:22Z</time>
      </trkpt>
      <trkpt lat="48.06701" lon="-4.62182">
        <ele>42.92</ele>
        <time>2017-05-25T11:40:28Z</time>
      </trkpt>
      <trkpt lat="48.06706" lon="-4.62178">
        <ele>44.84</ele>
        <time>2017-05-25T11:40:32Z</time>
      </trkpt>
      <trkpt lat="48.0671" lon="-4.62174">
        <ele>45.8</ele>
        <time>2017-05-25T11:40:36Z</time>
      </trkpt>
      <trkpt lat="48.06716" lon="-4.62168">
        <ele>47.72</ele>
        <time>2017-05-25T11:40:44Z</time>
      </trkpt>
      <trkpt lat="48.06716" lon="-4.62157">
        <ele>50.13</ele>
        <time>2017-05-25T11:40:54Z</time>
      </trkpt>
      <trkpt lat="48.0672" lon="-4.62151">
        <ele>50.61</ele>
        <time>2017-05-25T11:40:58Z</time>
      </trkpt>
      <trkpt lat="48.06711" lon="-4.62136">
        <ele>52.53</ele>
        <time>2017-05-25T11:41:09Z</time>
      </trkpt>
      <trkpt lat="48.06711" lon="-4.62125">
        <ele>53.97</ele>
        <time>2017-05-25T11:41:15Z</time>
      </trkpt>
      <trkpt lat="48.06711" lon="-4.62118">
        <ele>53.97</ele>
        <time>2017-05-25T11:41:19Z</time>
      </trkpt>
      <trkpt lat="48.06711" lon="-4.62091">
        <ele>56.37</ele>
        <time>2017-05-25T11:41:33Z</time>
      </trkpt>
      <trkpt lat="48.0671" lon="-4.62069">
        <ele>58.78</ele>
        <time>2017-05-25T11:41:46Z</time>
      </trkpt>
      <trkpt lat="48.06711" lon="-4.6206">
        <ele>60.7</ele>
        <time>2017-05-25T11:42:00Z</time>
      </trkpt>
      <trkpt lat="48.06711" lon="-4.62048">
        <ele>60.7</ele>
        <time>2017-05-25T11:42:15Z</time>
      </trkpt>
      <trkpt lat="48.06712" lon="-4.62038">
        <ele>59.74</ele>
        <time>2017-05-25T11:42:23Z</time>
      </trkpt>
      <trkpt lat="48.06711" lon="-4.62032">
        <ele>59.74</ele>
        <time>2017-05-25T11:42:28Z</time>
      </trkpt>
      <trkpt lat="48.06713" lon="-4.62009">
        <ele>59.26</ele>
        <time>2017-05-25T11:42:43Z</time>
      </trkpt>
      <trkpt lat="48.06713" lon="-4.62002">
        <ele>58.78</ele>
        <time>2017-05-25T11:42:48Z</time>
      </trkpt>
      <trkpt lat="48.06713" lon="-4.61998">
        <ele>58.78</ele>
        <time>2017-05-25T11:42:50Z</time>
      </trkpt>
      <trkpt lat="48.06715" lon="-4.61976">
        <ele>58.3</ele>
        <time>2017-05-25T11:43:04Z</time>
      </trkpt>
      <trkpt lat="48.0672" lon="-4.61972">
        <ele>56.86</ele>
        <time>2017-05-25T11:43:15Z</time>
      </trkpt>
      <trkpt lat="48.06726" lon="-4.61972">
        <ele>53.97</ele>
        <time>2017-05-25T11:43:23Z</time>
      </trkpt>
      <trkpt lat="48.06719" lon="-4.61957">
        <ele>51.57</ele>
        <time>2017-05-25T11:43:34Z</time>
      </trkpt>
      <trkpt lat="48.06716" lon="-4.61945">
        <ele>48.68</ele>
        <time>2017-05-25T11:43:49Z</time>
      </trkpt>
      <trkpt lat="48.06714" lon="-4.61933">
        <ele>45.32</ele>
        <time>2017-05-25T11:44:02Z</time>
      </trkpt>
      <trkpt lat="48.0672" lon="-4.61934">
        <ele>42.92</ele>
        <time>2017-05-25T11:44:09Z</time>
      </trkpt>
      <trkpt lat="48.06735" lon="-4.61944">
        <ele>38.59</ele>
        <time>2017-05-25T11:44:25Z</time>
      </trkpt>
      <trkpt lat="48.06756" lon="-4.61959">
        <ele>35.23</ele>
        <time>2017-05-25T11:44:42Z</time>
      </trkpt>
      <trkpt lat="48.06763" lon="-4.61964">
        <ele>35.23</ele>
        <time>2017-05-25T11:44:49Z</time>
      </trkpt>
      <trkpt lat="48.06772" lon="-4.6198">
        <ele>35.23</ele>
        <time>2017-05-25T11:45:01Z</time>
      </trkpt>
      <trkpt lat="48.06784" lon="-4.6199">
        <ele>35.23</ele>
        <time>2017-05-25T11:45:13Z</time>
      </trkpt>
      <trkpt lat="48.06799" lon="-4.61999">
        <ele>37.63</ele>
        <time>2017-05-25T11:45:24Z</time>
      </trkpt>
      <trkpt lat="48.06816" lon="-4.62011">
        <ele>39.07</ele>
        <time>2017-05-25T11:45:40Z</time>
      </trkpt>
      <trkpt lat="48.0682" lon="-4.62013">
        <ele>40.03</ele>
        <time>2017-05-25T11:45:43Z</time>
      </trkpt>
      <trkpt lat="48.06828" lon="-4.62013">
        <ele>40.03</ele>
        <time>2017-05-25T11:45:52Z</time>
      </trkpt>
      <trkpt lat="48.06832" lon="-4.62008">
        <ele>41.47</ele>
        <time>2017-05-25T11:46:10Z</time>
      </trkpt>
      <trkpt lat="48.06842" lon="-4.61998">
        <ele>42.92</ele>
        <time>2017-05-25T11:46:21Z</time>
      </trkpt>
      <trkpt lat="48.06849" lon="-4.61984">
        <ele>46.76</ele>
        <time>2017-05-25T11:46:34Z</time>
      </trkpt>
      <trkpt lat="48.06849" lon="-4.61984">
        <ele>48.2</ele>
        <time>2017-05-25T11:47:01Z</time>
      </trkpt>
      <trkpt lat="48.06849" lon="-4.61983">
        <ele>49.16</ele>
        <time>2017-05-25T11:47:31Z</time>
      </trkpt>
      <trkpt lat="48.06849" lon="-4.61983">
        <ele>50.13</ele>
        <time>2017-05-25T11:47:57Z</time>
      </trkpt>
      <trkpt lat="48.06849" lon="-4.61983">
        <ele>50.13</ele>
        <time>2017-05-25T11:48:23Z</time>
      </trkpt>
      <trkpt lat="48.06848" lon="-4.61983">
        <ele>50.13</ele>
        <time>2017-05-25T11:48:52Z</time>
      </trkpt>
      <trkpt lat="48.06849" lon="-4.61983">
        <ele>51.09</ele>
        <time>2017-05-25T11:49:20Z</time>
      </trkpt>
      <trkpt lat="48.06849" lon="-4.61982">
        <ele>51.57</ele>
        <time>2017-05-25T11:49:41Z</time>
      </trkpt>
      <trkpt lat="48.0685" lon="-4.61978">
        <ele>52.05</ele>
        <time>2017-05-25T11:49:49Z</time>
      </trkpt>
      <trkpt lat="48.0685" lon="-4.61958">
        <ele>53.01</ele>
        <time>2017-05-25T11:50:00Z</time>
      </trkpt>
      <trkpt lat="48.06849" lon="-4.61939">
        <ele>52.53</ele>
        <time>2017-05-25T11:50:11Z</time>
      </trkpt>
      <trkpt lat="48.06853" lon="-4.61931">
        <ele>52.53</ele>
        <time>2017-05-25T11:50:17Z</time>
      </trkpt>
      <trkpt lat="48.06862" lon="-4.6191">
        <ele>53.49</ele>
        <time>2017-05-25T11:50:30Z</time>
      </trkpt>
      <trkpt lat="48.06871" lon="-4.6189">
        <ele>53.97</ele>
        <time>2017-05-25T11:50:44Z</time>
      </trkpt>
      <trkpt lat="48.06875" lon="-4.61876">
        <ele>52.53</ele>
        <time>2017-05-25T11:50:56Z</time>
      </trkpt>
      <trkpt lat="48.06877" lon="-4.61875">
        <ele>52.05</ele>
        <time>2017-05-25T11:50:58Z</time>
      </trkpt>
      <trkpt lat="48.06891" lon="-4.61857">
        <ele>56.37</ele>
        <time>2017-05-25T11:51:12Z</time>
      </trkpt>
      <trkpt lat="48.06903" lon="-4.61839">
        <ele>61.66</ele>
        <time>2017-05-25T11:51:25Z</time>
      </trkpt>
      <trkpt lat="48.06914" lon="-4.61824">
        <ele>65.51</ele>
        <time>2017-05-25T11:51:37Z</time>
      </trkpt>
      <trkpt lat="48.06916" lon="-4.61821">
        <ele>66.47</ele>
        <time>2017-05-25T11:51:39Z</time>
      </trkpt>
      <trkpt lat="48.06925" lon="-4.61807">
        <ele>70.31</ele>
        <time>2017-05-25T11:51:51Z</time>
      </trkpt>
      <trkpt lat="48.06932" lon="-4.61799">
        <ele>71.76</ele>
        <time>2017-05-25T11:51:59Z</time>
      </trkpt>
      <trkpt lat="48.06939" lon="-4.61798">
        <ele>69.35</ele>
        <time>2017-05-25T11:52:04Z</time>
      </trkpt>
      <trkpt lat="48.06944" lon="-4.61791">
        <ele>68.39</ele>
        <time>2017-05-25T11:52:11Z</time>
      </trkpt>
      <trkpt lat="48.06947" lon="-4.61786">
        <ele>66.95</ele>
        <time>2017-05-25T11:52:26Z</time>
      </trkpt>
      <trkpt lat="48.06947" lon="-4.61786">
        <ele>65.51</ele>
        <time>2017-05-25T11:53:00Z</time>
      </trkpt>
      <trkpt lat="48.06947" lon="-4.61786">
        <ele>65.51</ele>
        <time>2017-05-25T11:53:25Z</time>
      </trkpt>
      <trkpt lat="48.06948" lon="-4.61785">
        <ele>65.03</ele>
        <time>2017-05-25T11:53:36Z</time>
      </trkpt>
      <trkpt lat="48.06948" lon="-4.61782">
        <ele>64.07</ele>
        <time>2017-05-25T11:53:38Z</time>
      </trkpt>
      <trkpt lat="48.06949" lon="-4.61774">
        <ele>63.1</ele>
        <time>2017-05-25T11:53:43Z</time>
      </trkpt>
      <trkpt lat="48.06949" lon="-4.61761">
        <ele>61.66</ele>
        <time>2017-05-25T11:53:52Z</time>
      </trkpt>
      <trkpt lat="48.06948" lon="-4.61741">
        <ele>59.74</ele>
        <time>2017-05-25T11:54:03Z</time>
      </trkpt>
      <trkpt lat="48.06947" lon="-4.61736">
        <ele>59.74</ele>
        <time>2017-05-25T11:54:06Z</time>
      </trkpt>
      <trkpt lat="48.06939" lon="-4.61716">
        <ele>60.7</ele>
        <time>2017-05-25T11:54:19Z</time>
      </trkpt>
      <trkpt lat="48.06936" lon="-4.617">
        <ele>61.66</ele>
        <time>2017-05-25T11:54:29Z</time>
      </trkpt>
      <trkpt lat="48.06945" lon="-4.61686">
        <ele>61.18</ele>
        <time>2017-05-25T11:54:43Z</time>
      </trkpt>
      <trkpt lat="48.06946" lon="-4.61679">
        <ele>61.18</ele>
        <time>2017-05-25T11:54:47Z</time>
      </trkpt>
      <trkpt lat="48.06948" lon="-4.61665">
        <ele>63.1</ele>
        <time>2017-05-25T11:54:56Z</time>
      </trkpt>
      <trkpt lat="48.06941" lon="-4.61656">
        <ele>64.55</ele>
        <time>2017-05-25T11:55:03Z</time>
      </trkpt>
      <trkpt lat="48.06944" lon="-4.61647">
        <ele>65.99</ele>
        <time>2017-05-25T11:55:10Z</time>
      </trkpt>
      <trkpt lat="48.06945" lon="-4.61642">
        <ele>66.47</ele>
        <time>2017-05-25T11:55:13Z</time>
      </trkpt>
      <trkpt lat="48.06946" lon="-4.61632">
        <ele>66.95</ele>
        <time>2017-05-25T11:55:19Z</time>
      </trkpt>
      <trkpt lat="48.06951" lon="-4.61618">
        <ele>66.47</ele>
        <time>2017-05-25T11:55:33Z</time>
      </trkpt>
      <trkpt lat="48.06953" lon="-4.61616">
        <ele>65.99</ele>
        <time>2017-05-25T11:55:38Z</time>
      </trkpt>
      <trkpt lat="48.06954" lon="-4.61614">
        <ele>65.99</ele>
        <time>2017-05-25T11:55:41Z</time>
      </trkpt>
      <trkpt lat="48.06954" lon="-4.61612">
        <ele>65.99</ele>
        <time>2017-05-25T11:55:43Z</time>
      </trkpt>
      <trkpt lat="48.06956" lon="-4.61602">
        <ele>65.99</ele>
        <time>2017-05-25T11:55:50Z</time>
      </trkpt>
      <trkpt lat="48.06948" lon="-4.61587">
        <ele>66.47</ele>
        <time>2017-05-25T11:56:01Z</time>
      </trkpt>
      <trkpt lat="48.06946" lon="-4.61584">
        <ele>66.47</ele>
        <time>2017-05-25T11:56:04Z</time>
      </trkpt>
      <trkpt lat="48.06928" lon="-4.61576">
        <ele>69.35</ele>
        <time>2017-05-25T11:56:18Z</time>
      </trkpt>
      <trkpt lat="48.06913" lon="-4.61569">
        <ele>71.27</ele>
        <time>2017-05-25T11:56:30Z</time>
      </trkpt>
      <trkpt lat="48.06901" lon="-4.61564">
        <ele>71.76</ele>
        <time>2017-05-25T11:56:41Z</time>
      </trkpt>
      <trkpt lat="48.06895" lon="-4.61561">
        <ele>70.79</ele>
        <time>2017-05-25T11:56:46Z</time>
      </trkpt>
      <trkpt lat="48.06891" lon="-4.61559">
        <ele>69.83</ele>
        <time>2017-05-25T11:56:49Z</time>
      </trkpt>
      <trkpt lat="48.06875" lon="-4.61553">
        <ele>66.95</ele>
        <time>2017-05-25T11:57:04Z</time>
      </trkpt>
      <trkpt lat="48.06874" lon="-4.61552">
        <ele>66.47</ele>
        <time>2017-05-25T11:57:05Z</time>
      </trkpt>
      <trkpt lat="48.06872" lon="-4.61545">
        <ele>64.55</ele>
        <time>2017-05-25T11:57:10Z</time>
      </trkpt>
      <trkpt lat="48.06877" lon="-4.61524">
        <ele>61.18</ele>
        <time>2017-05-25T11:57:25Z</time>
      </trkpt>
      <trkpt lat="48.06883" lon="-4.61508">
        <ele>59.26</ele>
        <time>2017-05-25T11:57:37Z</time>
      </trkpt>
      <trkpt lat="48.06885" lon="-4.615">
        <ele>59.26</ele>
        <time>2017-05-25T11:57:42Z</time>
      </trkpt>
      <trkpt lat="48.06887" lon="-4.61482">
        <ele>59.74</ele>
        <time>2017-05-25T11:57:51Z</time>
      </trkpt>
      <trkpt lat="48.06896" lon="-4.61462">
        <ele>62.62</ele>
        <time>2017-05-25T11:58:03Z</time>
      </trkpt>
      <trkpt lat="48.06903" lon="-4.61441">
        <ele>61.66</ele>
        <time>2017-05-25T11:58:17Z</time>
      </trkpt>
      <trkpt lat="48.06908" lon="-4.61429">
        <ele>61.18</ele>
        <time>2017-05-25T11:58:23Z</time>
      </trkpt>
      <trkpt lat="48.06915" lon="-4.61401">
        <ele>60.7</ele>
        <time>2017-05-25T11:58:39Z</time>
      </trkpt>
      <trkpt lat="48.06922" lon="-4.61377">
        <ele>63.1</ele>
        <time>2017-05-25T11:58:52Z</time>
      </trkpt>
      <trkpt lat="48.06931" lon="-4.61354">
        <ele>63.58</ele>
        <time>2017-05-25T11:59:05Z</time>
      </trkpt>
      <trkpt lat="48.06937" lon="-4.61334">
        <ele>65.03</ele>
        <time>2017-05-25T11:59:16Z</time>
      </trkpt>
      <trkpt lat="48.06937" lon="-4.61332">
        <ele>65.51</ele>
        <time>2017-05-25T11:59:17Z</time>
      </trkpt>
      <trkpt lat="48.06937" lon="-4.61329">
        <ele>65.51</ele>
        <time>2017-05-25T11:59:19Z</time>
      </trkpt>
      <trkpt lat="48.06945" lon="-4.613">
        <ele>67.43</ele>
        <time>2017-05-25T11:59:33Z</time>
      </trkpt>
      <trkpt lat="48.06946" lon="-4.61297">
        <ele>67.91</ele>
        <time>2017-05-25T11:59:35Z</time>
      </trkpt>
      <trkpt lat="48.06948" lon="-4.6129">
        <ele>68.39</ele>
        <time>2017-05-25T11:59:40Z</time>
      </trkpt>
      <trkpt lat="48.06951" lon="-4.61279">
        <ele>68.87</ele>
        <time>2017-05-25T11:59:46Z</time>
      </trkpt>
      <trkpt lat="48.06957" lon="-4.61264">
        <ele>66.47</ele>
        <time>2017-05-25T11:59:57Z</time>
      </trkpt>
      <trkpt lat="48.06967" lon="-4.61238">
        <ele>65.99</ele>
        <time>2017-05-25T12:00:13Z</time>
      </trkpt>
      <trkpt lat="48.06967" lon="-4.61236">
        <ele>66.47</ele>
        <time>2017-05-25T12:00:14Z</time>
      </trkpt>
      <trkpt lat="48.06969" lon="-4.6123">
        <ele>67.91</ele>
        <time>2017-05-25T12:00:18Z</time>
      </trkpt>
      <trkpt lat="48.06976" lon="-4.61205">
        <ele>66.47</ele>
        <time>2017-05-25T12:00:33Z</time>
      </trkpt>
      <trkpt lat="48.06977" lon="-4.61204">
        <ele>66.47</ele>
        <time>2017-05-25T12:00:34Z</time>
      </trkpt>
      <trkpt lat="48.06979" lon="-4.61195">
        <ele>65.99</ele>
        <time>2017-05-25T12:00:39Z</time>
      </trkpt>
      <trkpt lat="48.06981" lon="-4.61193">
        <ele>65.51</ele>
        <time>2017-05-25T12:00:41Z</time>
      </trkpt>
      <trkpt lat="48.06988" lon="-4.61173">
        <ele>65.51</ele>
        <time>2017-05-25T12:00:53Z</time>
      </trkpt>
      <trkpt lat="48.0699" lon="-4.61166">
        <ele>65.99</ele>
        <time>2017-05-25T12:00:57Z</time>
      </trkpt>
      <trkpt lat="48.0699" lon="-4.61146">
        <ele>67.43</ele>
        <time>2017-05-25T12:01:08Z</time>
      </trkpt>
      <trkpt lat="48.06999" lon="-4.61122">
        <ele>69.35</ele>
        <time>2017-05-25T12:01:24Z</time>
      </trkpt>
      <trkpt lat="48.07" lon="-4.61119">
        <ele>69.35</ele>
        <time>2017-05-25T12:01:26Z</time>
      </trkpt>
      <trkpt lat="48.0701" lon="-4.61095">
        <ele>71.27</ele>
        <time>2017-05-25T12:01:40Z</time>
      </trkpt>
      <trkpt lat="48.07014" lon="-4.61085">
        <ele>71.76</ele>
        <time>2017-05-25T12:01:47Z</time>
      </trkpt>
      <trkpt lat="48.0702" lon="-4.61067">
        <ele>72.72</ele>
        <time>2017-05-25T12:01:58Z</time>
      </trkpt>
      <trkpt lat="48.07023" lon="-4.61059">
        <ele>72.72</ele>
        <time>2017-05-25T12:02:06Z</time>
      </trkpt>
      <trkpt lat="48.07025" lon="-4.61058">
        <ele>72.72</ele>
        <time>2017-05-25T12:02:21Z</time>
      </trkpt>
      <trkpt lat="48.07025" lon="-4.61058">
        <ele>72.24</ele>
        <time>2017-05-25T12:02:49Z</time>
      </trkpt>
      <trkpt lat="48.07025" lon="-4.61058">
        <ele>72.24</ele>
        <time>2017-05-25T12:03:11Z</time>
      </trkpt>
      <trkpt lat="48.07025" lon="-4.61058">
        <ele>71.76</ele>
        <time>2017-05-25T12:03:34Z</time>
      </trkpt>
      <trkpt lat="48.07025" lon="-4.61056">
        <ele>71.27</ele>
        <time>2017-05-25T12:03:59Z</time>
      </trkpt>
      <trkpt lat="48.07027" lon="-4.61053">
        <ele>71.27</ele>
        <time>2017-05-25T12:04:01Z</time>
      </trkpt>
      <trkpt lat="48.07029" lon="-4.61047">
        <ele>71.76</ele>
        <time>2017-05-25T12:04:04Z</time>
      </trkpt>
      <trkpt lat="48.07037" lon="-4.61027">
        <ele>70.31</ele>
        <time>2017-05-25T12:04:18Z</time>
      </trkpt>
      <trkpt lat="48.07045" lon="-4.61007">
        <ele>67.43</ele>
        <time>2017-05-25T12:04:32Z</time>
      </trkpt>
      <trkpt lat="48.07056" lon="-4.60987">
        <ele>64.55</ele>
        <time>2017-05-25T12:04:45Z</time>
      </trkpt>
      <trkpt lat="48.07057" lon="-4.60986">
        <ele>64.55</ele>
        <time>2017-05-25T12:04:46Z</time>
      </trkpt>
      <trkpt lat="48.07069" lon="-4.60964">
        <ele>59.26</ele>
        <time>2017-05-25T12:05:01Z</time>
      </trkpt>
      <trkpt lat="48.07072" lon="-4.60958">
        <ele>58.78</ele>
        <time>2017-05-25T12:05:05Z</time>
      </trkpt>
      <trkpt lat="48.07085" lon="-4.6094">
        <ele>59.74</ele>
        <time>2017-05-25T12:05:18Z</time>
      </trkpt>
      <trkpt lat="48.07086" lon="-4.60936">
        <ele>59.26</ele>
        <time>2017-05-25T12:05:21Z</time>
      </trkpt>
      <trkpt lat="48.07102" lon="-4.60908">
        <ele>56.86</ele>
        <time>2017-05-25T12:05:37Z</time>
      </trkpt>
      <trkpt lat="48.07108" lon="-4.60901">
        <ele>55.89</ele>
        <time>2017-05-25T12:05:41Z</time>
      </trkpt>
      <trkpt lat="48.07113" lon="-4.60892">
        <ele>52.05</ele>
        <time>2017-05-25T12:05:50Z</time>
      </trkpt>
      <trkpt lat="48.07116" lon="-4.60885">
        <ele>51.09</ele>
        <time>2017-05-25T12:05:54Z</time>
      </trkpt>
      <trkpt lat="48.07122" lon="-4.60873">
        <ele>49.65</ele>
        <time>2017-05-25T12:06:04Z</time>
      </trkpt>
      <trkpt lat="48.07125" lon="-4.60866">
        <ele>48.2</ele>
        <time>2017-05-25T12:06:10Z</time>
      </trkpt>
      <trkpt lat="48.07133" lon="-4.60874">
        <ele>46.28</ele>
        <time>2017-05-25T12:06:19Z</time>
      </trkpt>
      <trkpt lat="48.07146" lon="-4.6088">
        <ele>43.88</ele>
        <time>2017-05-25T12:06:31Z</time>
      </trkpt>
      <trkpt lat="48.07149" lon="-4.60881">
        <ele>43.4</ele>
        <time>2017-05-25T12:06:35Z</time>
      </trkpt>
      <trkpt lat="48.07158" lon="-4.60879">
        <ele>42.44</ele>
        <time>2017-05-25T12:06:43Z</time>
      </trkpt>
      <trkpt lat="48.07174" lon="-4.60879">
        <ele>38.59</ele>
        <time>2017-05-25T12:06:58Z</time>
      </trkpt>
      <trkpt lat="48.0717" lon="-4.60868">
        <ele>37.63</ele>
        <time>2017-05-25T12:07:13Z</time>
      </trkpt>
      <trkpt lat="48.07162" lon="-4.60849">
        <ele>35.71</ele>
        <time>2017-05-25T12:07:22Z</time>
      </trkpt>
      <trkpt lat="48.07177" lon="-4.60837">
        <ele>31.86</ele>
        <time>2017-05-25T12:07:35Z</time>
      </trkpt>
      <trkpt lat="48.07178" lon="-4.60832">
        <ele>30.42</ele>
        <time>2017-05-25T12:07:48Z</time>
      </trkpt>
      <trkpt lat="48.07179" lon="-4.60827">
        <ele>29.46</ele>
        <time>2017-05-25T12:07:51Z</time>
      </trkpt>
      <trkpt lat="48.0719" lon="-4.60824">
        <ele>28.02</ele>
        <time>2017-05-25T12:08:00Z</time>
      </trkpt>
      <trkpt lat="48.07197" lon="-4.60821">
        <ele>26.57</ele>
        <time>2017-05-25T12:08:06Z</time>
      </trkpt>
      <trkpt lat="48.07209" lon="-4.60824">
        <ele>22.25</ele>
        <time>2017-05-25T12:08:19Z</time>
      </trkpt>
      <trkpt lat="48.07211" lon="-4.60822">
        <ele>21.77</ele>
        <time>2017-05-25T12:08:23Z</time>
      </trkpt>
      <trkpt lat="48.07217" lon="-4.6081">
        <ele>19.84</ele>
        <time>2017-05-25T12:08:38Z</time>
      </trkpt>
      <trkpt lat="48.07215" lon="-4.608">
        <ele>21.77</ele>
        <time>2017-05-25T12:08:52Z</time>
      </trkpt>
      <trkpt lat="48.07214" lon="-4.60795">
        <ele>23.21</ele>
        <time>2017-05-25T12:08:58Z</time>
      </trkpt>
      <trkpt lat="48.07212" lon="-4.60792">
        <ele>23.69</ele>
        <time>2017-05-25T12:09:02Z</time>
      </trkpt>
      <trkpt lat="48.07204" lon="-4.60783">
        <ele>25.13</ele>
        <time>2017-05-25T12:09:16Z</time>
      </trkpt>
      <trkpt lat="48.07205" lon="-4.60779">
        <ele>26.09</ele>
        <time>2017-05-25T12:09:30Z</time>
      </trkpt>
      <trkpt lat="48.07205" lon="-4.60778">
        <ele>26.57</ele>
        <time>2017-05-25T12:09:54Z</time>
      </trkpt>
      <trkpt lat="48.07205" lon="-4.60779">
        <ele>27.05</ele>
        <time>2017-05-25T12:10:21Z</time>
      </trkpt>
      <trkpt lat="48.07207" lon="-4.60778">
        <ele>27.05</ele>
        <time>2017-05-25T12:10:31Z</time>
      </trkpt>
      <trkpt lat="48.07223" lon="-4.60774">
        <ele>29.46</ele>
        <time>2017-05-25T12:10:47Z</time>
      </trkpt>
      <trkpt lat="48.07236" lon="-4.60762">
        <ele>31.86</ele>
        <time>2017-05-25T12:11:00Z</time>
      </trkpt>
      <trkpt lat="48.07248" lon="-4.60752">
        <ele>34.74</ele>
        <time>2017-05-25T12:11:14Z</time>
      </trkpt>
      <trkpt lat="48.07259" lon="-4.60748">
        <ele>38.59</ele>
        <time>2017-05-25T12:11:27Z</time>
      </trkpt>
      <trkpt lat="48.07263" lon="-4.60746">
        <ele>41.47</ele>
        <time>2017-05-25T12:11:34Z</time>
      </trkpt>
      <trkpt lat="48.07269" lon="-4.60744">
        <ele>44.36</ele>
        <time>2017-05-25T12:11:45Z</time>
      </trkpt>
      <trkpt lat="48.07271" lon="-4.60741">
        <ele>45.8</ele>
        <time>2017-05-25T12:12:04Z</time>
      </trkpt>
      <trkpt lat="48.07272" lon="-4.60739">
        <ele>45.8</ele>
        <time>2017-05-25T12:12:21Z</time>
      </trkpt>
      <trkpt lat="48.07276" lon="-4.60732">
        <ele>47.24</ele>
        <time>2017-05-25T12:12:44Z</time>
      </trkpt>
      <trkpt lat="48.07288" lon="-4.60725">
        <ele>48.68</ele>
        <time>2017-05-25T12:12:56Z</time>
      </trkpt>
      <trkpt lat="48.07293" lon="-4.60719">
        <ele>49.16</ele>
        <time>2017-05-25T12:13:04Z</time>
      </trkpt>
      <trkpt lat="48.07294" lon="-4.60717">
        <ele>49.16</ele>
        <time>2017-05-25T12:13:07Z</time>
      </trkpt>
      <trkpt lat="48.07296" lon="-4.60715">
        <ele>49.16</ele>
        <time>2017-05-25T12:13:13Z</time>
      </trkpt>
      <trkpt lat="48.07301" lon="-4.60709">
        <ele>50.13</ele>
        <time>2017-05-25T12:13:18Z</time>
      </trkpt>
      <trkpt lat="48.07303" lon="-4.60704">
        <ele>51.57</ele>
        <time>2017-05-25T12:13:22Z</time>
      </trkpt>
      <trkpt lat="48.07308" lon="-4.60701">
        <ele>53.97</ele>
        <time>2017-05-25T12:13:35Z</time>
      </trkpt>
      <trkpt lat="48.07309" lon="-4.60701">
        <ele>53.49</ele>
        <time>2017-05-25T12:13:55Z</time>
      </trkpt>
      <trkpt lat="48.07308" lon="-4.60701">
        <ele>53.49</ele>
        <time>2017-05-25T12:14:23Z</time>
      </trkpt>
      <trkpt lat="48.07308" lon="-4.60701">
        <ele>53.01</ele>
        <time>2017-05-25T12:14:49Z</time>
      </trkpt>
      <trkpt lat="48.07308" lon="-4.60701">
        <ele>53.01</ele>
        <time>2017-05-25T12:15:20Z</time>
      </trkpt>
      <trkpt lat="48.07308" lon="-4.60701">
        <ele>53.01</ele>
        <time>2017-05-25T12:15:44Z</time>
      </trkpt>
      <trkpt lat="48.07308" lon="-4.607">
        <ele>53.01</ele>
        <time>2017-05-25T12:16:12Z</time>
      </trkpt>
      <trkpt lat="48.07309" lon="-4.607">
        <ele>53.01</ele>
        <time>2017-05-25T12:16:35Z</time>
      </trkpt>
      <trkpt lat="48.07314" lon="-4.60697">
        <ele>52.05</ele>
        <time>2017-05-25T12:16:46Z</time>
      </trkpt>
      <trkpt lat="48.07331" lon="-4.60681">
        <ele>52.05</ele>
        <time>2017-05-25T12:17:01Z</time>
      </trkpt>
      <trkpt lat="48.07344" lon="-4.60667">
        <ele>51.09</ele>
        <time>2017-05-25T12:17:14Z</time>
      </trkpt>
      <trkpt lat="48.07347" lon="-4.6066">
        <ele>51.09</ele>
        <time>2017-05-25T12:17:19Z</time>
      </trkpt>
      <trkpt lat="48.0735" lon="-4.60646">
        <ele>50.13</ele>
        <time>2017-05-25T12:17:32Z</time>
      </trkpt>
      <trkpt lat="48.0735" lon="-4.60647">
        <ele>50.13</ele>
        <time>2017-05-25T12:17:56Z</time>
      </trkpt>
      <trkpt lat="48.0735" lon="-4.60647">
        <ele>50.61</ele>
        <time>2017-05-25T12:18:29Z</time>
      </trkpt>
      <trkpt lat="48.0735" lon="-4.60647">
        <ele>50.61</ele>
        <time>2017-05-25T12:18:31Z</time>
      </trkpt>
      <trkpt lat="48.07351" lon="-4.60635">
        <ele>50.61</ele>
        <time>2017-05-25T12:18:39Z</time>
      </trkpt>
      <trkpt lat="48.07357" lon="-4.60614">
        <ele>53.01</ele>
        <time>2017-05-25T12:18:54Z</time>
      </trkpt>
      <trkpt lat="48.0736" lon="-4.6061">
        <ele>53.97</ele>
        <time>2017-05-25T12:19:11Z</time>
      </trkpt>
      <trkpt lat="48.07361" lon="-4.6061">
        <ele>53.49</ele>
        <time>2017-05-25T12:19:42Z</time>
      </trkpt>
      <trkpt lat="48.07369" lon="-4.60602">
        <ele>52.53</ele>
        <time>2017-05-25T12:19:55Z</time>
      </trkpt>
      <trkpt lat="48.07379" lon="-4.60595">
        <ele>51.09</ele>
        <time>2017-05-25T12:20:03Z</time>
      </trkpt>
      <trkpt lat="48.07386" lon="-4.60576">
        <ele>51.09</ele>
        <time>2017-05-25T12:20:16Z</time>
      </trkpt>
      <trkpt lat="48.07386" lon="-4.60569">
        <ele>51.09</ele>
        <time>2017-05-25T12:20:21Z</time>
      </trkpt>
      <trkpt lat="48.0738" lon="-4.60548">
        <ele>53.49</ele>
        <time>2017-05-25T12:20:37Z</time>
      </trkpt>
      <trkpt lat="48.07377" lon="-4.60537">
        <ele>55.41</ele>
        <time>2017-05-25T12:20:47Z</time>
      </trkpt>
      <trkpt lat="48.07372" lon="-4.6052">
        <ele>56.86</ele>
        <time>2017-05-25T12:21:00Z</time>
      </trkpt>
      <trkpt lat="48.07368" lon="-4.60504">
        <ele>57.82</ele>
        <time>2017-05-25T12:21:13Z</time>
      </trkpt>
      <trkpt lat="48.07365" lon="-4.60491">
        <ele>58.78</ele>
        <time>2017-05-25T12:21:23Z</time>
      </trkpt>
      <trkpt lat="48.07362" lon="-4.60478">
        <ele>60.22</ele>
        <time>2017-05-25T12:21:33Z</time>
      </trkpt>
      <trkpt lat="48.07362" lon="-4.60467">
        <ele>60.7</ele>
        <time>2017-05-25T12:21:41Z</time>
      </trkpt>
      <trkpt lat="48.0736" lon="-4.60464">
        <ele>61.66</ele>
        <time>2017-05-25T12:22:03Z</time>
      </trkpt>
      <trkpt lat="48.07361" lon="-4.60463">
        <ele>63.58</ele>
        <time>2017-05-25T12:22:30Z</time>
      </trkpt>
      <trkpt lat="48.07363" lon="-4.60462">
        <ele>63.58</ele>
        <time>2017-05-25T12:22:50Z</time>
      </trkpt>
      <trkpt lat="48.07363" lon="-4.60461">
        <ele>63.58</ele>
        <time>2017-05-25T12:22:52Z</time>
      </trkpt>
      <trkpt lat="48.0737" lon="-4.60444">
        <ele>62.62</ele>
        <time>2017-05-25T12:23:05Z</time>
      </trkpt>
      <trkpt lat="48.07375" lon="-4.60435">
        <ele>63.1</ele>
        <time>2017-05-25T12:23:12Z</time>
      </trkpt>
      <trkpt lat="48.07377" lon="-4.60422">
        <ele>62.62</ele>
        <time>2017-05-25T12:23:20Z</time>
      </trkpt>
      <trkpt lat="48.0738" lon="-4.60415">
        <ele>63.1</ele>
        <time>2017-05-25T12:23:24Z</time>
      </trkpt>
      <trkpt lat="48.07388" lon="-4.60397">
        <ele>63.58</ele>
        <time>2017-05-25T12:23:35Z</time>
      </trkpt>
      <trkpt lat="48.07392" lon="-4.60395">
        <ele>63.1</ele>
        <time>2017-05-25T12:23:49Z</time>
      </trkpt>
      <trkpt lat="48.07392" lon="-4.60394">
        <ele>63.58</ele>
        <time>2017-05-25T12:23:55Z</time>
      </trkpt>
      <trkpt lat="48.07402" lon="-4.6039">
        <ele>64.07</ele>
        <time>2017-05-25T12:24:05Z</time>
      </trkpt>
      <trkpt lat="48.07412" lon="-4.6038">
        <ele>64.55</ele>
        <time>2017-05-25T12:24:17Z</time>
      </trkpt>
      <trkpt lat="48.07416" lon="-4.60379">
        <ele>64.07</ele>
        <time>2017-05-25T12:24:21Z</time>
      </trkpt>
      <trkpt lat="48.07428" lon="-4.60371">
        <ele>65.03</ele>
        <time>2017-05-25T12:24:35Z</time>
      </trkpt>
      <trkpt lat="48.07434" lon="-4.60366">
        <ele>65.99</ele>
        <time>2017-05-25T12:24:47Z</time>
      </trkpt>
      <trkpt lat="48.0744" lon="-4.6036">
        <ele>68.39</ele>
        <time>2017-05-25T12:25:01Z</time>
      </trkpt>
      <trkpt lat="48.07449" lon="-4.60351">
        <ele>71.27</ele>
        <time>2017-05-25T12:25:13Z</time>
      </trkpt>
      <trkpt lat="48.07449" lon="-4.6035">
        <ele>71.76</ele>
        <time>2017-05-25T12:25:15Z</time>
      </trkpt>
      <trkpt lat="48.07451" lon="-4.60346">
        <ele>74.64</ele>
        <time>2017-05-25T12:25:33Z</time>
      </trkpt>
      <trkpt lat="48.07451" lon="-4.60347">
        <ele>75.12</ele>
        <time>2017-05-25T12:25:47Z</time>
      </trkpt>
      <trkpt lat="48.07451" lon="-4.60345">
        <ele>79.93</ele>
        <time>2017-05-25T12:26:05Z</time>
      </trkpt>
      <trkpt lat="48.0745" lon="-4.60345">
        <ele>79.45</ele>
        <time>2017-05-25T12:26:32Z</time>
      </trkpt>
      <trkpt lat="48.0745" lon="-4.60345">
        <ele>78.97</ele>
        <time>2017-05-25T12:26:54Z</time>
      </trkpt>
      <trkpt lat="48.07447" lon="-4.60342">
        <ele>78.97</ele>
        <time>2017-05-25T12:26:58Z</time>
      </trkpt>
      <trkpt lat="48.07446" lon="-4.60337">
        <ele>78.97</ele>
        <time>2017-05-25T12:27:02Z</time>
      </trkpt>
      <trkpt lat="48.07447" lon="-4.60324">
        <ele>78.97</ele>
        <time>2017-05-25T12:27:12Z</time>
      </trkpt>
      <trkpt lat="48.07444" lon="-4.6032">
        <ele>78.97</ele>
        <time>2017-05-25T12:27:16Z</time>
      </trkpt>
      <trkpt lat="48.07441" lon="-4.60297">
        <ele>78.97</ele>
        <time>2017-05-25T12:27:30Z</time>
      </trkpt>
      <trkpt lat="48.07441" lon="-4.60293">
        <ele>78.97</ele>
        <time>2017-05-25T12:27:33Z</time>
      </trkpt>
      <trkpt lat="48.07436" lon="-4.60273">
        <ele>77.52</ele>
        <time>2017-05-25T12:27:45Z</time>
      </trkpt>
      <trkpt lat="48.07434" lon="-4.60256">
        <ele>76.56</ele>
        <time>2017-05-25T12:27:55Z</time>
      </trkpt>
      <trkpt lat="48.07432" lon="-4.60238">
        <ele>74.64</ele>
        <time>2017-05-25T12:28:08Z</time>
      </trkpt>
      <trkpt lat="48.07431" lon="-4.60223">
        <ele>75.12</ele>
        <time>2017-05-25T12:28:15Z</time>
      </trkpt>
      <trkpt lat="48.07429" lon="-4.60204">
        <ele>74.16</ele>
        <time>2017-05-25T12:28:29Z</time>
      </trkpt>
      <trkpt lat="48.07429" lon="-4.60203">
        <ele>74.16</ele>
        <time>2017-05-25T12:28:30Z</time>
      </trkpt>
      <trkpt lat="48.0743" lon="-4.602">
        <ele>74.16</ele>
        <time>2017-05-25T12:28:50Z</time>
      </trkpt>
      <trkpt lat="48.07429" lon="-4.60186">
        <ele>73.68</ele>
        <time>2017-05-25T12:29:05Z</time>
      </trkpt>
      <trkpt lat="48.07428" lon="-4.60163">
        <ele>72.24</ele>
        <time>2017-05-25T12:29:17Z</time>
      </trkpt>
      <trkpt lat="48.0743" lon="-4.60156">
        <ele>72.24</ele>
        <time>2017-05-25T12:29:21Z</time>
      </trkpt>
      <trkpt lat="48.0743" lon="-4.60151">
        <ele>72.72</ele>
        <time>2017-05-25T12:29:42Z</time>
      </trkpt>
      <trkpt lat="48.07431" lon="-4.60149">
        <ele>72.72</ele>
        <time>2017-05-25T12:29:46Z</time>
      </trkpt>
      <trkpt lat="48.07435" lon="-4.6014">
        <ele>71.76</ele>
        <time>2017-05-25T12:30:00Z</time>
      </trkpt>
      <trkpt lat="48.07435" lon="-4.60139">
        <ele>71.76</ele>
        <time>2017-05-25T12:30:02Z</time>
      </trkpt>
      <trkpt lat="48.07433" lon="-4.60137">
        <ele>72.72</ele>
        <time>2017-05-25T12:30:16Z</time>
      </trkpt>
      <trkpt lat="48.07434" lon="-4.60135">
        <ele>73.68</ele>
        <time>2017-05-25T12:30:49Z</time>
      </trkpt>
      <trkpt lat="48.07434" lon="-4.60135">
        <ele>73.68</ele>
        <time>2017-05-25T12:30:50Z</time>
      </trkpt>
      <trkpt lat="48.07438" lon="-4.60127">
        <ele>71.27</ele>
        <time>2017-05-25T12:31:03Z</time>
      </trkpt>
      <trkpt lat="48.07438" lon="-4.60125">
        <ele>70.79</ele>
        <time>2017-05-25T12:31:05Z</time>
      </trkpt>
      <trkpt lat="48.07442" lon="-4.60115">
        <ele>70.79</ele>
        <time>2017-05-25T12:31:14Z</time>
      </trkpt>
      <trkpt lat="48.07447" lon="-4.60097">
        <ele>69.35</ele>
        <time>2017-05-25T12:31:28Z</time>
      </trkpt>
      <trkpt lat="48.07448" lon="-4.60078">
        <ele>66.95</ele>
        <time>2017-05-25T12:31:42Z</time>
      </trkpt>
      <trkpt lat="48.07449" lon="-4.60076">
        <ele>66.47</ele>
        <time>2017-05-25T12:31:44Z</time>
      </trkpt>
      <trkpt lat="48.07454" lon="-4.60056">
        <ele>63.1</ele>
        <time>2017-05-25T12:31:58Z</time>
      </trkpt>
      <trkpt lat="48.07462" lon="-4.60037">
        <ele>57.82</ele>
        <time>2017-05-25T12:32:12Z</time>
      </trkpt>
      <trkpt lat="48.07469" lon="-4.60027">
        <ele>54.45</ele>
        <time>2017-05-25T12:32:27Z</time>
      </trkpt>
      <trkpt lat="48.07469" lon="-4.60026">
        <ele>54.45</ele>
        <time>2017-05-25T12:32:47Z</time>
      </trkpt>
      <trkpt lat="48.0747" lon="-4.60025">
        <ele>53.97</ele>
        <time>2017-05-25T12:33:18Z</time>
      </trkpt>
      <trkpt lat="48.07472" lon="-4.60024">
        <ele>53.97</ele>
        <time>2017-05-25T12:33:33Z</time>
      </trkpt>
      <trkpt lat="48.07472" lon="-4.60023">
        <ele>53.49</ele>
        <time>2017-05-25T12:34:06Z</time>
      </trkpt>
      <trkpt lat="48.07472" lon="-4.60019">
        <ele>52.53</ele>
        <time>2017-05-25T12:34:27Z</time>
      </trkpt>
      <trkpt lat="48.07471" lon="-4.60012">
        <ele>52.53</ele>
        <time>2017-05-25T12:34:31Z</time>
      </trkpt>
      <trkpt lat="48.07474" lon="-4.59991">
        <ele>51.57</ele>
        <time>2017-05-25T12:34:45Z</time>
      </trkpt>
      <trkpt lat="48.07479" lon="-4.59977">
        <ele>51.09</ele>
        <time>2017-05-25T12:34:53Z</time>
      </trkpt>
      <trkpt lat="48.07478" lon="-4.59973">
        <ele>50.61</ele>
        <time>2017-05-25T12:34:56Z</time>
      </trkpt>
      <trkpt lat="48.07483" lon="-4.59954">
        <ele>48.2</ele>
        <time>2017-05-25T12:35:09Z</time>
      </trkpt>
      <trkpt lat="48.0749" lon="-4.59939">
        <ele>44.84</ele>
        <time>2017-05-25T12:35:24Z</time>
      </trkpt>
      <trkpt lat="48.07494" lon="-4.5993">
        <ele>42.92</ele>
        <time>2017-05-25T12:35:40Z</time>
      </trkpt>
      <trkpt lat="48.07494" lon="-4.59931">
        <ele>40.03</ele>
        <time>2017-05-25T12:35:57Z</time>
      </trkpt>
      <trkpt lat="48.07495" lon="-4.5993">
        <ele>39.55</ele>
        <time>2017-05-25T12:35:58Z</time>
      </trkpt>
      <trkpt lat="48.07498" lon="-4.59921">
        <ele>39.07</ele>
        <time>2017-05-25T12:36:04Z</time>
      </trkpt>
      <trkpt lat="48.07498" lon="-4.59917">
        <ele>39.07</ele>
        <time>2017-05-25T12:36:15Z</time>
      </trkpt>
      <trkpt lat="48.07499" lon="-4.59916">
        <ele>38.59</ele>
        <time>2017-05-25T12:36:17Z</time>
      </trkpt>
      <trkpt lat="48.07497" lon="-4.59903">
        <ele>40.03</ele>
        <time>2017-05-25T12:36:24Z</time>
      </trkpt>
      <trkpt lat="48.07494" lon="-4.59901">
        <ele>41.95</ele>
        <time>2017-05-25T12:36:32Z</time>
      </trkpt>
      <trkpt lat="48.0749" lon="-4.59898">
        <ele>45.32</ele>
        <time>2017-05-25T12:36:45Z</time>
      </trkpt>
      <trkpt lat="48.07488" lon="-4.5988">
        <ele>48.2</ele>
        <time>2017-05-25T12:36:59Z</time>
      </trkpt>
      <trkpt lat="48.07489" lon="-4.59874">
        <ele>50.13</ele>
        <time>2017-05-25T12:37:08Z</time>
      </trkpt>
      <trkpt lat="48.07484" lon="-4.5986">
        <ele>52.05</ele>
        <time>2017-05-25T12:37:23Z</time>
      </trkpt>
      <trkpt lat="48.07484" lon="-4.59845">
        <ele>54.93</ele>
        <time>2017-05-25T12:37:39Z</time>
      </trkpt>
      <trkpt lat="48.07482" lon="-4.59836">
        <ele>56.86</ele>
        <time>2017-05-25T12:37:47Z</time>
      </trkpt>
      <trkpt lat="48.07482" lon="-4.59832">
        <ele>57.34</ele>
        <time>2017-05-25T12:37:51Z</time>
      </trkpt>
      <trkpt lat="48.07482" lon="-4.59822">
        <ele>60.22</ele>
        <time>2017-05-25T12:38:07Z</time>
      </trkpt>
      <trkpt lat="48.07482" lon="-4.59805">
        <ele>63.58</ele>
        <time>2017-05-25T12:38:24Z</time>
      </trkpt>
      <trkpt lat="48.07484" lon="-4.59784">
        <ele>66.95</ele>
        <time>2017-05-25T12:38:40Z</time>
      </trkpt>
      <trkpt lat="48.07481" lon="-4.59771">
        <ele>69.35</ele>
        <time>2017-05-25T12:38:54Z</time>
      </trkpt>
      <trkpt lat="48.07481" lon="-4.59769">
        <ele>69.35</ele>
        <time>2017-05-25T12:38:59Z</time>
      </trkpt>
      <trkpt lat="48.0747" lon="-4.59762">
        <ele>69.83</ele>
        <time>2017-05-25T12:39:14Z</time>
      </trkpt>
      <trkpt lat="48.07471" lon="-4.59762">
        <ele>69.83</ele>
        <time>2017-05-25T12:39:40Z</time>
      </trkpt>
      <trkpt lat="48.0747" lon="-4.59761">
        <ele>69.83</ele>
        <time>2017-05-25T12:40:16Z</time>
      </trkpt>
      <trkpt lat="48.07471" lon="-4.59761">
        <ele>69.83</ele>
        <time>2017-05-25T12:40:42Z</time>
      </trkpt>
      <trkpt lat="48.07471" lon="-4.5976">
        <ele>69.35</ele>
        <time>2017-05-25T12:40:58Z</time>
      </trkpt>
      <trkpt lat="48.07471" lon="-4.59759">
        <ele>69.35</ele>
        <time>2017-05-25T12:41:27Z</time>
      </trkpt>
      <trkpt lat="48.07471" lon="-4.59759">
        <ele>69.83</ele>
        <time>2017-05-25T12:41:43Z</time>
      </trkpt>
      <trkpt lat="48.07471" lon="-4.59759">
        <ele>69.83</ele>
        <time>2017-05-25T12:42:14Z</time>
      </trkpt>
      <trkpt lat="48.07468" lon="-4.59757">
        <ele>69.83</ele>
        <time>2017-05-25T12:42:45Z</time>
      </trkpt>
      <trkpt lat="48.07453" lon="-4.59744">
        <ele>70.31</ele>
        <time>2017-05-25T12:42:59Z</time>
      </trkpt>
      <trkpt lat="48.07444" lon="-4.59735">
        <ele>70.79</ele>
        <time>2017-05-25T12:43:08Z</time>
      </trkpt>
      <trkpt lat="48.0744" lon="-4.5973">
        <ele>70.79</ele>
        <time>2017-05-25T12:43:12Z</time>
      </trkpt>
      <trkpt lat="48.07432" lon="-4.59723">
        <ele>70.79</ele>
        <time>2017-05-25T12:43:19Z</time>
      </trkpt>
      <trkpt lat="48.07425" lon="-4.59719">
        <ele>70.31</ele>
        <time>2017-05-25T12:43:26Z</time>
      </trkpt>
      <trkpt lat="48.07406" lon="-4.59707">
        <ele>70.31</ele>
        <time>2017-05-25T12:43:42Z</time>
      </trkpt>
      <trkpt lat="48.07392" lon="-4.5969">
        <ele>72.24</ele>
        <time>2017-05-25T12:43:57Z</time>
      </trkpt>
      <trkpt lat="48.07377" lon="-4.59678">
        <ele>72.72</ele>
        <time>2017-05-25T12:44:11Z</time>
      </trkpt>
      <trkpt lat="48.07364" lon="-4.59675">
        <ele>72.24</ele>
        <time>2017-05-25T12:44:22Z</time>
      </trkpt>
      <trkpt lat="48.07359" lon="-4.59679">
        <ele>73.2</ele>
        <time>2017-05-25T12:44:27Z</time>
      </trkpt>
      <trkpt lat="48.07356" lon="-4.59671">
        <ele>72.72</ele>
        <time>2017-05-25T12:44:36Z</time>
      </trkpt>
      <trkpt lat="48.07357" lon="-4.59652">
        <ele>72.24</ele>
        <time>2017-05-25T12:44:45Z</time>
      </trkpt>
      <trkpt lat="48.07358" lon="-4.59638">
        <ele>72.72</ele>
        <time>2017-05-25T12:44:53Z</time>
      </trkpt>
      <trkpt lat="48.07358" lon="-4.59627">
        <ele>71.76</ele>
        <time>2017-05-25T12:44:59Z</time>
      </trkpt>
      <trkpt lat="48.07364" lon="-4.59602">
        <ele>67.91</ele>
        <time>2017-05-25T12:45:12Z</time>
      </trkpt>
      <trkpt lat="48.07366" lon="-4.59598">
        <ele>66.47</ele>
        <time>2017-05-25T12:45:25Z</time>
      </trkpt>
      <trkpt lat="48.07367" lon="-4.59599">
        <ele>65.99</ele>
        <time>2017-05-25T12:45:26Z</time>
      </trkpt>
      <trkpt lat="48.07374" lon="-4.59601">
        <ele>66.47</ele>
        <time>2017-05-25T12:45:33Z</time>
      </trkpt>
      <trkpt lat="48.07393" lon="-4.59606">
        <ele>67.91</ele>
        <time>2017-05-25T12:45:48Z</time>
      </trkpt>
      <trkpt lat="48.07406" lon="-4.59606">
        <ele>69.35</ele>
        <time>2017-05-25T12:45:57Z</time>
      </trkpt>
      <trkpt lat="48.07412" lon="-4.59606">
        <ele>68.87</ele>
        <time>2017-05-25T12:46:02Z</time>
      </trkpt>
      <trkpt lat="48.07415" lon="-4.59607">
        <ele>69.35</ele>
        <time>2017-05-25T12:46:06Z</time>
      </trkpt>
      <trkpt lat="48.07416" lon="-4.59604">
        <ele>69.35</ele>
        <time>2017-05-25T12:46:13Z</time>
      </trkpt>
      <trkpt lat="48.07418" lon="-4.59601">
        <ele>69.35</ele>
        <time>2017-05-25T12:46:16Z</time>
      </trkpt>
      <trkpt lat="48.0742" lon="-4.59602">
        <ele>69.35</ele>
        <time>2017-05-25T12:46:18Z</time>
      </trkpt>
      <trkpt lat="48.07424" lon="-4.59606">
        <ele>68.87</ele>
        <time>2017-05-25T12:46:31Z</time>
      </trkpt>
      <trkpt lat="48.07422" lon="-4.59606">
        <ele>68.87</ele>
        <time>2017-05-25T12:46:52Z</time>
      </trkpt>
      <trkpt lat="48.07416" lon="-4.59606">
        <ele>69.35</ele>
        <time>2017-05-25T12:47:09Z</time>
      </trkpt>
      <trkpt lat="48.07417" lon="-4.59608">
        <ele>68.87</ele>
        <time>2017-05-25T12:47:31Z</time>
      </trkpt>
      <trkpt lat="48.07413" lon="-4.59606">
        <ele>69.35</ele>
        <time>2017-05-25T12:48:02Z</time>
      </trkpt>
      <trkpt lat="48.07408" lon="-4.59605">
        <ele>67.43</ele>
        <time>2017-05-25T12:48:29Z</time>
      </trkpt>
      <trkpt lat="48.0741" lon="-4.59607">
        <ele>67.43</ele>
        <time>2017-05-25T12:48:57Z</time>
      </trkpt>
      <trkpt lat="48.07411" lon="-4.59617">
        <ele>66.47</ele>
        <time>2017-05-25T12:49:20Z</time>
      </trkpt>
      <trkpt lat="48.07417" lon="-4.59605">
        <ele>66.95</ele>
        <time>2017-05-25T12:49:43Z</time>
      </trkpt>
      <trkpt lat="48.07417" lon="-4.59607">
        <ele>67.43</ele>
        <time>2017-05-25T12:50:07Z</time>
      </trkpt>
      <trkpt lat="48.0741" lon="-4.59606">
        <ele>68.87</ele>
        <time>2017-05-25T12:50:36Z</time>
      </trkpt>
      <trkpt lat="48.07402" lon="-4.59611">
        <ele>68.87</ele>
        <time>2017-05-25T12:50:58Z</time>
      </trkpt>
      <trkpt lat="48.07412" lon="-4.59612">
        <ele>68.87</ele>
        <time>2017-05-25T12:53:49Z</time>
      </trkpt>
      <trkpt lat="48.07411" lon="-4.59606">
        <ele>74.64</ele>
        <time>2017-05-25T12:54:16Z</time>
      </trkpt>
      <trkpt lat="48.07415" lon="-4.59604">
        <ele>75.12</ele>
        <time>2017-05-25T12:54:39Z</time>
      </trkpt>
      <trkpt lat="48.07414" lon="-4.59608">
        <ele>71.27</ele>
        <time>2017-05-25T12:55:09Z</time>
      </trkpt>
      <trkpt lat="48.07417" lon="-4.5961">
        <ele>70.31</ele>
        <time>2017-05-25T12:55:38Z</time>
      </trkpt>
      <trkpt lat="48.07416" lon="-4.5961">
        <ele>70.79</ele>
        <time>2017-05-25T12:56:14Z</time>
      </trkpt>
      <trkpt lat="48.07418" lon="-4.5961">
        <ele>70.31</ele>
        <time>2017-05-25T12:56:29Z</time>
      </trkpt>
      <trkpt lat="48.07424" lon="-4.59606">
        <ele>72.24</ele>
        <time>2017-05-25T12:56:56Z</time>
      </trkpt>
      <trkpt lat="48.07421" lon="-4.59608">
        <ele>72.24</ele>
        <time>2017-05-25T12:57:24Z</time>
      </trkpt>
      <trkpt lat="48.07414" lon="-4.59605">
        <ele>70.79</ele>
        <time>2017-05-25T12:57:38Z</time>
      </trkpt>
      <trkpt lat="48.07409" lon="-4.59607">
        <ele>70.79</ele>
        <time>2017-05-25T12:57:55Z</time>
      </trkpt>
      <trkpt lat="48.07409" lon="-4.59607">
        <ele>70.79</ele>
        <time>2017-05-25T12:58:00Z</time>
      </trkpt>
      <trkpt lat="48.07407" lon="-4.59606">
        <ele>70.31</ele>
        <time>2017-05-25T12:58:04Z</time>
      </trkpt>
      <trkpt lat="48.07394" lon="-4.59605">
        <ele>70.31</ele>
        <time>2017-05-25T12:58:17Z</time>
      </trkpt>
      <trkpt lat="48.07378" lon="-4.59602">
        <ele>71.27</ele>
        <time>2017-05-25T12:58:31Z</time>
      </trkpt>
      <trkpt lat="48.07369" lon="-4.596">
        <ele>72.24</ele>
        <time>2017-05-25T12:58:38Z</time>
      </trkpt>
      <trkpt lat="48.07368" lon="-4.59595">
        <ele>72.24</ele>
        <time>2017-05-25T12:58:42Z</time>
      </trkpt>
      <trkpt lat="48.07374" lon="-4.59576">
        <ele>71.76</ele>
        <time>2017-05-25T12:58:55Z</time>
      </trkpt>
      <trkpt lat="48.07374" lon="-4.59573">
        <ele>71.76</ele>
        <time>2017-05-25T12:58:57Z</time>
      </trkpt>
      <trkpt lat="48.07375" lon="-4.59569">
        <ele>71.27</ele>
        <time>2017-05-25T12:59:00Z</time>
      </trkpt>
      <trkpt lat="48.07375" lon="-4.5956">
        <ele>71.27</ele>
        <time>2017-05-25T12:59:05Z</time>
      </trkpt>
      <trkpt lat="48.07379" lon="-4.59546">
        <ele>70.31</ele>
        <time>2017-05-25T12:59:15Z</time>
      </trkpt>
      <trkpt lat="48.07381" lon="-4.59537">
        <ele>70.79</ele>
        <time>2017-05-25T12:59:20Z</time>
      </trkpt>
      <trkpt lat="48.07382" lon="-4.59525">
        <ele>70.79</ele>
        <time>2017-05-25T12:59:28Z</time>
      </trkpt>
      <trkpt lat="48.07365" lon="-4.59512">
        <ele>70.31</ele>
        <time>2017-05-25T12:59:42Z</time>
      </trkpt>
      <trkpt lat="48.07351" lon="-4.59507">
        <ele>69.83</ele>
        <time>2017-05-25T12:59:55Z</time>
      </trkpt>
      <trkpt lat="48.07342" lon="-4.5949">
        <ele>68.87</ele>
        <time>2017-05-25T13:00:05Z</time>
      </trkpt>
      <trkpt lat="48.07342" lon="-4.59473">
        <ele>67.43</ele>
        <time>2017-05-25T13:00:20Z</time>
      </trkpt>
      <trkpt lat="48.07342" lon="-4.5944">
        <ele>65.51</ele>
        <time>2017-05-25T13:00:36Z</time>
      </trkpt>
      <trkpt lat="48.07341" lon="-4.59435">
        <ele>64.55</ele>
        <time>2017-05-25T13:00:39Z</time>
      </trkpt>
      <trkpt lat="48.0734" lon="-4.59413">
        <ele>64.55</ele>
        <time>2017-05-25T13:00:49Z</time>
      </trkpt>
      <trkpt lat="48.07338" lon="-4.5938">
        <ele>63.58</ele>
        <time>2017-05-25T13:01:05Z</time>
      </trkpt>
      <trkpt lat="48.07335" lon="-4.59347">
        <ele>60.22</ele>
        <time>2017-05-25T13:01:22Z</time>
      </trkpt>
      <trkpt lat="48.07334" lon="-4.59327">
        <ele>59.26</ele>
        <time>2017-05-25T13:01:34Z</time>
      </trkpt>
      <trkpt lat="48.07336" lon="-4.59311">
        <ele>60.7</ele>
        <time>2017-05-25T13:01:42Z</time>
      </trkpt>
      <trkpt lat="48.0734" lon="-4.59297">
        <ele>61.66</ele>
        <time>2017-05-25T13:01:48Z</time>
      </trkpt>
      <trkpt lat="48.0734" lon="-4.59286">
        <ele>61.18</ele>
        <time>2017-05-25T13:01:55Z</time>
      </trkpt>
      <trkpt lat="48.07339" lon="-4.59273">
        <ele>59.74</ele>
        <time>2017-05-25T13:02:02Z</time>
      </trkpt>
      <trkpt lat="48.07341" lon="-4.59266">
        <ele>59.26</ele>
        <time>2017-05-25T13:02:06Z</time>
      </trkpt>
      <trkpt lat="48.07343" lon="-4.59237">
        <ele>57.34</ele>
        <time>2017-05-25T13:02:21Z</time>
      </trkpt>
      <trkpt lat="48.07346" lon="-4.59223">
        <ele>56.37</ele>
        <time>2017-05-25T13:02:36Z</time>
      </trkpt>
      <trkpt lat="48.07342" lon="-4.59222">
        <ele>54.45</ele>
        <time>2017-05-25T13:02:45Z</time>
      </trkpt>
      <trkpt lat="48.07336" lon="-4.59214">
        <ele>50.61</ele>
        <time>2017-05-25T13:03:01Z</time>
      </trkpt>
      <trkpt lat="48.07325" lon="-4.59213">
        <ele>48.68</ele>
        <time>2017-05-25T13:03:10Z</time>
      </trkpt>
      <trkpt lat="48.07321" lon="-4.59205">
        <ele>49.65</ele>
        <time>2017-05-25T13:03:28Z</time>
      </trkpt>
      <trkpt lat="48.07318" lon="-4.59198">
        <ele>52.53</ele>
        <time>2017-05-25T13:03:36Z</time>
      </trkpt>
      <trkpt lat="48.07317" lon="-4.59176">
        <ele>54.93</ele>
        <time>2017-05-25T13:03:48Z</time>
      </trkpt>
      <trkpt lat="48.07314" lon="-4.59168">
        <ele>54.93</ele>
        <time>2017-05-25T13:03:53Z</time>
      </trkpt>
      <trkpt lat="48.073" lon="-4.59143">
        <ele>53.97</ele>
        <time>2017-05-25T13:04:11Z</time>
      </trkpt>
      <trkpt lat="48.07297" lon="-4.59139">
        <ele>53.97</ele>
        <time>2017-05-25T13:04:14Z</time>
      </trkpt>
      <trkpt lat="48.07292" lon="-4.59117">
        <ele>52.53</ele>
        <time>2017-05-25T13:04:27Z</time>
      </trkpt>
      <trkpt lat="48.07282" lon="-4.59092">
        <ele>53.01</ele>
        <time>2017-05-25T13:04:41Z</time>
      </trkpt>
      <trkpt lat="48.07275" lon="-4.59068">
        <ele>53.01</ele>
        <time>2017-05-25T13:04:55Z</time>
      </trkpt>
      <trkpt lat="48.07274" lon="-4.5906">
        <ele>53.01</ele>
        <time>2017-05-25T13:05:00Z</time>
      </trkpt>
      <trkpt lat="48.07269" lon="-4.59051">
        <ele>53.49</ele>
        <time>2017-05-25T13:05:07Z</time>
      </trkpt>
      <trkpt lat="48.07263" lon="-4.59031">
        <ele>53.49</ele>
        <time>2017-05-25T13:05:21Z</time>
      </trkpt>
      <trkpt lat="48.07255" lon="-4.59017">
        <ele>55.41</ele>
        <time>2017-05-25T13:05:35Z</time>
      </trkpt>
      <trkpt lat="48.07259" lon="-4.59006">
        <ele>55.41</ele>
        <time>2017-05-25T13:05:48Z</time>
      </trkpt>
      <trkpt lat="48.07262" lon="-4.59006">
        <ele>55.41</ele>
        <time>2017-05-25T13:05:57Z</time>
      </trkpt>
      <trkpt lat="48.07267" lon="-4.59015">
        <ele>54.93</ele>
        <time>2017-05-25T13:06:04Z</time>
      </trkpt>
      <trkpt lat="48.07282" lon="-4.59028">
        <ele>53.49</ele>
        <time>2017-05-25T13:06:21Z</time>
      </trkpt>
      <trkpt lat="48.07287" lon="-4.5903">
        <ele>53.01</ele>
        <time>2017-05-25T13:06:36Z</time>
      </trkpt>
      <trkpt lat="48.07289" lon="-4.59031">
        <ele>53.01</ele>
        <time>2017-05-25T13:07:02Z</time>
      </trkpt>
      <trkpt lat="48.0729" lon="-4.59032">
        <ele>53.49</ele>
        <time>2017-05-25T13:07:07Z</time>
      </trkpt>
      <trkpt lat="48.07301" lon="-4.59033">
        <ele>53.01</ele>
        <time>2017-05-25T13:07:19Z</time>
      </trkpt>
      <trkpt lat="48.07309" lon="-4.59039">
        <ele>53.97</ele>
        <time>2017-05-25T13:07:26Z</time>
      </trkpt>
      <trkpt lat="48.07315" lon="-4.59041">
        <ele>54.93</ele>
        <time>2017-05-25T13:07:33Z</time>
      </trkpt>
      <trkpt lat="48.07322" lon="-4.5904">
        <ele>56.37</ele>
        <time>2017-05-25T13:07:39Z</time>
      </trkpt>
      <trkpt lat="48.07329" lon="-4.59038">
        <ele>56.86</ele>
        <time>2017-05-25T13:07:48Z</time>
      </trkpt>
      <trkpt lat="48.07333" lon="-4.59039">
        <ele>57.82</ele>
        <time>2017-05-25T13:07:52Z</time>
      </trkpt>
      <trkpt lat="48.07337" lon="-4.59038">
        <ele>59.26</ele>
        <time>2017-05-25T13:07:57Z</time>
      </trkpt>
      <trkpt lat="48.07349" lon="-4.59031">
        <ele>62.14</ele>
        <time>2017-05-25T13:08:09Z</time>
      </trkpt>
      <trkpt lat="48.07356" lon="-4.59011">
        <ele>63.1</ele>
        <time>2017-05-25T13:08:24Z</time>
      </trkpt>
      <trkpt lat="48.07355" lon="-4.59001">
        <ele>62.62</ele>
        <time>2017-05-25T13:08:30Z</time>
      </trkpt>
      <trkpt lat="48.07356" lon="-4.58985">
        <ele>61.66</ele>
        <time>2017-05-25T13:08:38Z</time>
      </trkpt>
      <trkpt lat="48.07363" lon="-4.58976">
        <ele>62.14</ele>
        <time>2017-05-25T13:08:48Z</time>
      </trkpt>
      <trkpt lat="48.07365" lon="-4.5897">
        <ele>62.14</ele>
        <time>2017-05-25T13:08:52Z</time>
      </trkpt>
      <trkpt lat="48.07371" lon="-4.58956">
        <ele>62.62</ele>
        <time>2017-05-25T13:09:01Z</time>
      </trkpt>
      <trkpt lat="48.07378" lon="-4.58948">
        <ele>62.14</ele>
        <time>2017-05-25T13:09:08Z</time>
      </trkpt>
      <trkpt lat="48.07384" lon="-4.58947">
        <ele>61.66</ele>
        <time>2017-05-25T13:09:12Z</time>
      </trkpt>
      <trkpt lat="48.07403" lon="-4.58942">
        <ele>62.14</ele>
        <time>2017-05-25T13:09:28Z</time>
      </trkpt>
      <trkpt lat="48.07408" lon="-4.5894">
        <ele>62.62</ele>
        <time>2017-05-25T13:09:34Z</time>
      </trkpt>
      <trkpt lat="48.07411" lon="-4.58939">
        <ele>63.1</ele>
        <time>2017-05-25T13:09:36Z</time>
      </trkpt>
      <trkpt lat="48.07431" lon="-4.58937">
        <ele>64.07</ele>
        <time>2017-05-25T13:09:52Z</time>
      </trkpt>
      <trkpt lat="48.0744" lon="-4.58932">
        <ele>64.07</ele>
        <time>2017-05-25T13:10:00Z</time>
      </trkpt>
      <trkpt lat="48.07442" lon="-4.58922">
        <ele>64.55</ele>
        <time>2017-05-25T13:10:09Z</time>
      </trkpt>
      <trkpt lat="48.07459" lon="-4.58918">
        <ele>64.55</ele>
        <time>2017-05-25T13:10:21Z</time>
      </trkpt>
      <trkpt lat="48.07484" lon="-4.58916">
        <ele>65.03</ele>
        <time>2017-05-25T13:10:38Z</time>
      </trkpt>
      <trkpt lat="48.07503" lon="-4.58912">
        <ele>66.95</ele>
        <time>2017-05-25T13:10:52Z</time>
      </trkpt>
      <trkpt lat="48.07503" lon="-4.58911">
        <ele>66.95</ele>
        <time>2017-05-25T13:10:53Z</time>
      </trkpt>
      <trkpt lat="48.07509" lon="-4.58906">
        <ele>67.43</ele>
        <time>2017-05-25T13:10:58Z</time>
      </trkpt>
      <trkpt lat="48.07515" lon="-4.58903">
        <ele>67.91</ele>
        <time>2017-05-25T13:11:01Z</time>
      </trkpt>
      <trkpt lat="48.0753" lon="-4.58885">
        <ele>66.95</ele>
        <time>2017-05-25T13:11:17Z</time>
      </trkpt>
      <trkpt lat="48.07531" lon="-4.58884">
        <ele>67.43</ele>
        <time>2017-05-25T13:11:23Z</time>
      </trkpt>
      <trkpt lat="48.07533" lon="-4.58878">
        <ele>67.91</ele>
        <time>2017-05-25T13:11:31Z</time>
      </trkpt>
      <trkpt lat="48.07538" lon="-4.58873">
        <ele>67.43</ele>
        <time>2017-05-25T13:11:35Z</time>
      </trkpt>
      <trkpt lat="48.07551" lon="-4.58852">
        <ele>67.91</ele>
        <time>2017-05-25T13:11:49Z</time>
      </trkpt>
      <trkpt lat="48.0757" lon="-4.58833">
        <ele>70.79</ele>
        <time>2017-05-25T13:12:05Z</time>
      </trkpt>
      <trkpt lat="48.07574" lon="-4.58825">
        <ele>71.27</ele>
        <time>2017-05-25T13:12:09Z</time>
      </trkpt>
      <trkpt lat="48.0758" lon="-4.58819">
        <ele>71.27</ele>
        <time>2017-05-25T13:12:14Z</time>
      </trkpt>
      <trkpt lat="48.07583" lon="-4.5881">
        <ele>71.76</ele>
        <time>2017-05-25T13:12:20Z</time>
      </trkpt>
      <trkpt lat="48.07596" lon="-4.58789">
        <ele>69.35</ele>
        <time>2017-05-25T13:12:34Z</time>
      </trkpt>
      <trkpt lat="48.07598" lon="-4.58784">
        <ele>69.35</ele>
        <time>2017-05-25T13:12:37Z</time>
      </trkpt>
      <trkpt lat="48.07611" lon="-4.58766">
        <ele>69.35</ele>
        <time>2017-05-25T13:12:49Z</time>
      </trkpt>
      <trkpt lat="48.07613" lon="-4.58759">
        <ele>68.39</ele>
        <time>2017-05-25T13:12:54Z</time>
      </trkpt>
      <trkpt lat="48.07617" lon="-4.58751">
        <ele>68.87</ele>
        <time>2017-05-25T13:12:59Z</time>
      </trkpt>
      <trkpt lat="48.07621" lon="-4.58745">
        <ele>69.35</ele>
        <time>2017-05-25T13:13:02Z</time>
      </trkpt>
      <trkpt lat="48.07625" lon="-4.58733">
        <ele>68.87</ele>
        <time>2017-05-25T13:13:10Z</time>
      </trkpt>
      <trkpt lat="48.0763" lon="-4.58727">
        <ele>68.39</ele>
        <time>2017-05-25T13:13:14Z</time>
      </trkpt>
      <trkpt lat="48.07632" lon="-4.58721">
        <ele>67.91</ele>
        <time>2017-05-25T13:13:17Z</time>
      </trkpt>
      <trkpt lat="48.07636" lon="-4.58716">
        <ele>67.43</ele>
        <time>2017-05-25T13:13:20Z</time>
      </trkpt>
      <trkpt lat="48.07639" lon="-4.58708">
        <ele>66.95</ele>
        <time>2017-05-25T13:13:26Z</time>
      </trkpt>
      <trkpt lat="48.07656" lon="-4.58678">
        <ele>63.58</ele>
        <time>2017-05-25T13:13:44Z</time>
      </trkpt>
      <trkpt lat="48.07659" lon="-4.58673">
        <ele>62.14</ele>
        <time>2017-05-25T13:13:47Z</time>
      </trkpt>
      <trkpt lat="48.07662" lon="-4.58668">
        <ele>61.18</ele>
        <time>2017-05-25T13:13:51Z</time>
      </trkpt>
      <trkpt lat="48.07666" lon="-4.58664">
        <ele>60.7</ele>
        <time>2017-05-25T13:13:54Z</time>
      </trkpt>
      <trkpt lat="48.07673" lon="-4.58652">
        <ele>60.7</ele>
        <time>2017-05-25T13:14:03Z</time>
      </trkpt>
      <trkpt lat="48.07684" lon="-4.58634">
        <ele>58.78</ele>
        <time>2017-05-25T13:14:15Z</time>
      </trkpt>
      <trkpt lat="48.07685" lon="-4.58632">
        <ele>58.3</ele>
        <time>2017-05-25T13:14:17Z</time>
      </trkpt>
      <trkpt lat="48.07693" lon="-4.58634">
        <ele>58.78</ele>
        <time>2017-05-25T13:14:27Z</time>
      </trkpt>
      <trkpt lat="48.07695" lon="-4.58632">
        <ele>59.26</ele>
        <time>2017-05-25T13:14:29Z</time>
      </trkpt>
      <trkpt lat="48.07701" lon="-4.58629">
        <ele>59.74</ele>
        <time>2017-05-25T13:14:33Z</time>
      </trkpt>
      <trkpt lat="48.07703" lon="-4.58624">
        <ele>59.74</ele>
        <time>2017-05-25T13:14:35Z</time>
      </trkpt>
      <trkpt lat="48.07714" lon="-4.58604">
        <ele>56.86</ele>
        <time>2017-05-25T13:14:47Z</time>
      </trkpt>
      <trkpt lat="48.07717" lon="-4.58594">
        <ele>57.82</ele>
        <time>2017-05-25T13:14:53Z</time>
      </trkpt>
      <trkpt lat="48.0772" lon="-4.58588">
        <ele>58.78</ele>
        <time>2017-05-25T13:14:57Z</time>
      </trkpt>
      <trkpt lat="48.07722" lon="-4.58589">
        <ele>58.78</ele>
        <time>2017-05-25T13:14:59Z</time>
      </trkpt>
      <trkpt lat="48.07728" lon="-4.58591">
        <ele>59.74</ele>
        <time>2017-05-25T13:15:16Z</time>
      </trkpt>
      <trkpt lat="48.07731" lon="-4.586">
        <ele>60.22</ele>
        <time>2017-05-25T13:15:36Z</time>
      </trkpt>
      <trkpt lat="48.07732" lon="-4.58601">
        <ele>61.66</ele>
        <time>2017-05-25T13:15:53Z</time>
      </trkpt>
      <trkpt lat="48.07732" lon="-4.58602">
        <ele>62.14</ele>
        <time>2017-05-25T13:16:14Z</time>
      </trkpt>
      <trkpt lat="48.07731" lon="-4.58601">
        <ele>62.62</ele>
        <time>2017-05-25T13:16:29Z</time>
      </trkpt>
      <trkpt lat="48.07732" lon="-4.58601">
        <ele>63.1</ele>
        <time>2017-05-25T13:16:55Z</time>
      </trkpt>
      <trkpt lat="48.07732" lon="-4.58601">
        <ele>63.1</ele>
        <time>2017-05-25T13:17:25Z</time>
      </trkpt>
      <trkpt lat="48.07732" lon="-4.58601">
        <ele>63.1</ele>
        <time>2017-05-25T13:17:46Z</time>
      </trkpt>
      <trkpt lat="48.0773" lon="-4.58595">
        <ele>62.14</ele>
        <time>2017-05-25T13:18:07Z</time>
      </trkpt>
      <trkpt lat="48.07729" lon="-4.58593">
        <ele>62.14</ele>
        <time>2017-05-25T13:18:20Z</time>
      </trkpt>
      <trkpt lat="48.07728" lon="-4.58592">
        <ele>62.14</ele>
        <time>2017-05-25T13:18:24Z</time>
      </trkpt>
      <trkpt lat="48.07726" lon="-4.58588">
        <ele>62.14</ele>
        <time>2017-05-25T13:18:27Z</time>
      </trkpt>
      <trkpt lat="48.0773" lon="-4.58571">
        <ele>62.62</ele>
        <time>2017-05-25T13:18:37Z</time>
      </trkpt>
      <trkpt lat="48.07737" lon="-4.58545">
        <ele>62.14</ele>
        <time>2017-05-25T13:18:51Z</time>
      </trkpt>
      <trkpt lat="48.07741" lon="-4.58541">
        <ele>61.66</ele>
        <time>2017-05-25T13:18:56Z</time>
      </trkpt>
      <trkpt lat="48.07745" lon="-4.5853">
        <ele>62.14</ele>
        <time>2017-05-25T13:19:02Z</time>
      </trkpt>
      <trkpt lat="48.0775" lon="-4.58519">
        <ele>61.66</ele>
        <time>2017-05-25T13:19:07Z</time>
      </trkpt>
      <trkpt lat="48.07754" lon="-4.5851">
        <ele>61.18</ele>
        <time>2017-05-25T13:19:15Z</time>
      </trkpt>
      <trkpt lat="48.07763" lon="-4.58496">
        <ele>62.14</ele>
        <time>2017-05-25T13:19:23Z</time>
      </trkpt>
      <trkpt lat="48.07767" lon="-4.58488">
        <ele>62.62</ele>
        <time>2017-05-25T13:19:27Z</time>
      </trkpt>
      <trkpt lat="48.0777" lon="-4.58485">
        <ele>62.14</ele>
        <time>2017-05-25T13:19:31Z</time>
      </trkpt>
      <trkpt lat="48.07769" lon="-4.58472">
        <ele>61.66</ele>
        <time>2017-05-25T13:19:37Z</time>
      </trkpt>
      <trkpt lat="48.07772" lon="-4.58467">
        <ele>62.14</ele>
        <time>2017-05-25T13:19:42Z</time>
      </trkpt>
      <trkpt lat="48.07781" lon="-4.58462">
        <ele>60.7</ele>
        <time>2017-05-25T13:19:53Z</time>
      </trkpt>
      <trkpt lat="48.07793" lon="-4.5845">
        <ele>58.3</ele>
        <time>2017-05-25T13:20:03Z</time>
      </trkpt>
      <trkpt lat="48.07796" lon="-4.58449">
        <ele>57.82</ele>
        <time>2017-05-25T13:20:06Z</time>
      </trkpt>
      <trkpt lat="48.07806" lon="-4.58439">
        <ele>58.3</ele>
        <time>2017-05-25T13:20:14Z</time>
      </trkpt>
      <trkpt lat="48.07815" lon="-4.58429">
        <ele>57.34</ele>
        <time>2017-05-25T13:20:20Z</time>
      </trkpt>
      <trkpt lat="48.07823" lon="-4.58425">
        <ele>56.86</ele>
        <time>2017-05-25T13:20:28Z</time>
      </trkpt>
      <trkpt lat="48.07844" lon="-4.5841">
        <ele>57.34</ele>
        <time>2017-05-25T13:20:43Z</time>
      </trkpt>
      <trkpt lat="48.07849" lon="-4.58406">
        <ele>57.82</ele>
        <time>2017-05-25T13:20:49Z</time>
      </trkpt>
      <trkpt lat="48.07857" lon="-4.58391">
        <ele>56.86</ele>
        <time>2017-05-25T13:20:56Z</time>
      </trkpt>
      <trkpt lat="48.0787" lon="-4.58369">
        <ele>54.93</ele>
        <time>2017-05-25T13:21:10Z</time>
      </trkpt>
      <trkpt lat="48.07873" lon="-4.58365">
        <ele>54.45</ele>
        <time>2017-05-25T13:21:13Z</time>
      </trkpt>
      <trkpt lat="48.07885" lon="-4.58347">
        <ele>51.57</ele>
        <time>2017-05-25T13:21:27Z</time>
      </trkpt>
      <trkpt lat="48.07887" lon="-4.5834">
        <ele>51.09</ele>
        <time>2017-05-25T13:21:32Z</time>
      </trkpt>
      <trkpt lat="48.07894" lon="-4.58338">
        <ele>48.2</ele>
        <time>2017-05-25T13:21:45Z</time>
      </trkpt>
      <trkpt lat="48.0791" lon="-4.58344">
        <ele>41.47</ele>
        <time>2017-05-25T13:22:01Z</time>
      </trkpt>
      <trkpt lat="48.07917" lon="-4.58347">
        <ele>37.63</ele>
        <time>2017-05-25T13:22:19Z</time>
      </trkpt>
      <trkpt lat="48.07918" lon="-4.58346">
        <ele>37.63</ele>
        <time>2017-05-25T13:22:43Z</time>
      </trkpt>
      <trkpt lat="48.07926" lon="-4.58348">
        <ele>35.71</ele>
        <time>2017-05-25T13:22:55Z</time>
      </trkpt>
      <trkpt lat="48.07937" lon="-4.58346">
        <ele>30.42</ele>
        <time>2017-05-25T13:23:09Z</time>
      </trkpt>
      <trkpt lat="48.07938" lon="-4.58344">
        <ele>29.46</ele>
        <time>2017-05-25T13:23:12Z</time>
      </trkpt>
      <trkpt lat="48.07934" lon="-4.58332">
        <ele>27.53</ele>
        <time>2017-05-25T13:23:19Z</time>
      </trkpt>
      <trkpt lat="48.07934" lon="-4.58328">
        <ele>24.65</ele>
        <time>2017-05-25T13:23:40Z</time>
      </trkpt>
      <trkpt lat="48.07932" lon="-4.58328">
        <ele>24.17</ele>
        <time>2017-05-25T13:24:00Z</time>
      </trkpt>
      <trkpt lat="48.07933" lon="-4.58329">
        <ele>23.21</ele>
        <time>2017-05-25T13:24:35Z</time>
      </trkpt>
      <trkpt lat="48.07933" lon="-4.58328">
        <ele>23.69</ele>
        <time>2017-05-25T13:25:14Z</time>
      </trkpt>
      <trkpt lat="48.07933" lon="-4.58328">
        <ele>23.69</ele>
        <time>2017-05-25T13:25:53Z</time>
      </trkpt>
      <trkpt lat="48.07933" lon="-4.58328">
        <ele>23.69</ele>
        <time>2017-05-25T13:26:28Z</time>
      </trkpt>
      <trkpt lat="48.07933" lon="-4.58327">
        <ele>23.69</ele>
        <time>2017-05-25T13:26:58Z</time>
      </trkpt>
      <trkpt lat="48.07934" lon="-4.58325">
        <ele>24.65</ele>
        <time>2017-05-25T13:27:28Z</time>
      </trkpt>
      <trkpt lat="48.07934" lon="-4.58321">
        <ele>24.17</ele>
        <time>2017-05-25T13:27:31Z</time>
      </trkpt>
      <trkpt lat="48.07938" lon="-4.58321">
        <ele>22.73</ele>
        <time>2017-05-25T13:27:35Z</time>
      </trkpt>
      <trkpt lat="48.07943" lon="-4.58319">
        <ele>21.29</ele>
        <time>2017-05-25T13:27:39Z</time>
      </trkpt>
      <trkpt lat="48.0795" lon="-4.58316">
        <ele>18.88</ele>
        <time>2017-05-25T13:27:46Z</time>
      </trkpt>
      <trkpt lat="48.07954" lon="-4.58312">
        <ele>16.48</ele>
        <time>2017-05-25T13:27:56Z</time>
      </trkpt>
      <trkpt lat="48.0796" lon="-4.58308">
        <ele>18.88</ele>
        <time>2017-05-25T13:28:08Z</time>
      </trkpt>
      <trkpt lat="48.0796" lon="-4.58305">
        <ele>19.36</ele>
        <time>2017-05-25T13:28:11Z</time>
      </trkpt>
      <trkpt lat="48.07955" lon="-4.58302">
        <ele>21.29</ele>
        <time>2017-05-25T13:28:17Z</time>
      </trkpt>
      <trkpt lat="48.0794" lon="-4.58291">
        <ele>26.09</ele>
        <time>2017-05-25T13:28:29Z</time>
      </trkpt>
      <trkpt lat="48.07938" lon="-4.58291">
        <ele>26.57</ele>
        <time>2017-05-25T13:28:31Z</time>
      </trkpt>
      <trkpt lat="48.0793" lon="-4.58279">
        <ele>30.9</ele>
        <time>2017-05-25T13:28:43Z</time>
      </trkpt>
      <trkpt lat="48.07931" lon="-4.58274">
        <ele>31.86</ele>
        <time>2017-05-25T13:28:46Z</time>
      </trkpt>
      <trkpt lat="48.07935" lon="-4.58268">
        <ele>33.3</ele>
        <time>2017-05-25T13:28:53Z</time>
      </trkpt>
      <trkpt lat="48.07939" lon="-4.58262">
        <ele>35.71</ele>
        <time>2017-05-25T13:29:01Z</time>
      </trkpt>
      <trkpt lat="48.07946" lon="-4.58255">
        <ele>38.59</ele>
        <time>2017-05-25T13:29:12Z</time>
      </trkpt>
      <trkpt lat="48.0794" lon="-4.5825">
        <ele>40.03</ele>
        <time>2017-05-25T13:29:18Z</time>
      </trkpt>
      <trkpt lat="48.07937" lon="-4.58245">
        <ele>42.92</ele>
        <time>2017-05-25T13:29:26Z</time>
      </trkpt>
      <trkpt lat="48.07941" lon="-4.58244">
        <ele>43.88</ele>
        <time>2017-05-25T13:29:29Z</time>
      </trkpt>
      <trkpt lat="48.07945" lon="-4.58241">
        <ele>45.32</ele>
        <time>2017-05-25T13:29:34Z</time>
      </trkpt>
      <trkpt lat="48.07948" lon="-4.5824">
        <ele>45.8</ele>
        <time>2017-05-25T13:29:37Z</time>
      </trkpt>
      <trkpt lat="48.07966" lon="-4.58231">
        <ele>48.2</ele>
        <time>2017-05-25T13:29:50Z</time>
      </trkpt>
      <trkpt lat="48.07971" lon="-4.58228">
        <ele>47.72</ele>
        <time>2017-05-25T13:29:54Z</time>
      </trkpt>
      <trkpt lat="48.07978" lon="-4.58222">
        <ele>47.24</ele>
        <time>2017-05-25T13:29:59Z</time>
      </trkpt>
      <trkpt lat="48.07986" lon="-4.58203">
        <ele>48.68</ele>
        <time>2017-05-25T13:30:08Z</time>
      </trkpt>
      <trkpt lat="48.07991" lon="-4.58201">
        <ele>49.16</ele>
        <time>2017-05-25T13:30:12Z</time>
      </trkpt>
      <trkpt lat="48.08" lon="-4.58183">
        <ele>47.72</ele>
        <time>2017-05-25T13:30:24Z</time>
      </trkpt>
      <trkpt lat="48.08018" lon="-4.58153">
        <ele>46.28</ele>
        <time>2017-05-25T13:30:42Z</time>
      </trkpt>
      <trkpt lat="48.08038" lon="-4.58151">
        <ele>44.84</ele>
        <time>2017-05-25T13:30:55Z</time>
      </trkpt>
      <trkpt lat="48.08046" lon="-4.58155">
        <ele>45.32</ele>
        <time>2017-05-25T13:31:03Z</time>
      </trkpt>
      <trkpt lat="48.08055" lon="-4.58154">
        <ele>43.88</ele>
        <time>2017-05-25T13:31:16Z</time>
      </trkpt>
      <trkpt lat="48.08059" lon="-4.58155">
        <ele>43.4</ele>
        <time>2017-05-25T13:31:21Z</time>
      </trkpt>
      <trkpt lat="48.08065" lon="-4.58153">
        <ele>42.44</ele>
        <time>2017-05-25T13:31:26Z</time>
      </trkpt>
      <trkpt lat="48.08068" lon="-4.58153">
        <ele>42.44</ele>
        <time>2017-05-25T13:31:44Z</time>
      </trkpt>
      <trkpt lat="48.08077" lon="-4.58155">
        <ele>40.03</ele>
        <time>2017-05-25T13:31:57Z</time>
      </trkpt>
      <trkpt lat="48.0808" lon="-4.58156">
        <ele>39.55</ele>
        <time>2017-05-25T13:31:59Z</time>
      </trkpt>
      <trkpt lat="48.08094" lon="-4.5816">
        <ele>37.15</ele>
        <time>2017-05-25T13:32:10Z</time>
      </trkpt>
      <trkpt lat="48.08099" lon="-4.58159">
        <ele>36.67</ele>
        <time>2017-05-25T13:32:14Z</time>
      </trkpt>
      <trkpt lat="48.08115" lon="-4.58162">
        <ele>35.23</ele>
        <time>2017-05-25T13:32:27Z</time>
      </trkpt>
      <trkpt lat="48.08116" lon="-4.58162">
        <ele>34.74</ele>
        <time>2017-05-25T13:32:28Z</time>
      </trkpt>
      <trkpt lat="48.08121" lon="-4.58166">
        <ele>33.78</ele>
        <time>2017-05-25T13:32:35Z</time>
      </trkpt>
      <trkpt lat="48.08124" lon="-4.58169">
        <ele>32.82</ele>
        <time>2017-05-25T13:32:38Z</time>
      </trkpt>
      <trkpt lat="48.08133" lon="-4.58184">
        <ele>30.9</ele>
        <time>2017-05-25T13:32:49Z</time>
      </trkpt>
      <trkpt lat="48.08147" lon="-4.58189">
        <ele>29.94</ele>
        <time>2017-05-25T13:33:01Z</time>
      </trkpt>
      <trkpt lat="48.08152" lon="-4.5819">
        <ele>27.53</ele>
        <time>2017-05-25T13:33:08Z</time>
      </trkpt>
      <trkpt lat="48.08158" lon="-4.58182">
        <ele>28.02</ele>
        <time>2017-05-25T13:33:15Z</time>
      </trkpt>
      <trkpt lat="48.08159" lon="-4.58171">
        <ele>27.53</ele>
        <time>2017-05-25T13:33:22Z</time>
      </trkpt>
      <trkpt lat="48.08162" lon="-4.58142">
        <ele>28.5</ele>
        <time>2017-05-25T13:33:37Z</time>
      </trkpt>
      <trkpt lat="48.08165" lon="-4.58133">
        <ele>28.98</ele>
        <time>2017-05-25T13:33:44Z</time>
      </trkpt>
      <trkpt lat="48.08166" lon="-4.58129">
        <ele>29.94</ele>
        <time>2017-05-25T13:33:47Z</time>
      </trkpt>
      <trkpt lat="48.08169" lon="-4.58106">
        <ele>30.42</ele>
        <time>2017-05-25T13:34:04Z</time>
      </trkpt>
      <trkpt lat="48.08166" lon="-4.58088">
        <ele>28.5</ele>
        <time>2017-05-25T13:34:20Z</time>
      </trkpt>
      <trkpt lat="48.08163" lon="-4.58064">
        <ele>28.98</ele>
        <time>2017-05-25T13:34:34Z</time>
      </trkpt>
      <trkpt lat="48.08163" lon="-4.58063">
        <ele>28.98</ele>
        <time>2017-05-25T13:34:35Z</time>
      </trkpt>
      <trkpt lat="48.08166" lon="-4.58053">
        <ele>26.57</ele>
        <time>2017-05-25T13:34:42Z</time>
      </trkpt>
      <trkpt lat="48.08171" lon="-4.58029">
        <ele>22.25</ele>
        <time>2017-05-25T13:34:58Z</time>
      </trkpt>
      <trkpt lat="48.08163" lon="-4.58018">
        <ele>24.17</ele>
        <time>2017-05-25T13:35:12Z</time>
      </trkpt>
      <trkpt lat="48.08162" lon="-4.58014">
        <ele>24.65</ele>
        <time>2017-05-25T13:35:15Z</time>
      </trkpt>
      <trkpt lat="48.08157" lon="-4.57999">
        <ele>25.13</ele>
        <time>2017-05-25T13:35:23Z</time>
      </trkpt>
      <trkpt lat="48.08151" lon="-4.57985">
        <ele>26.09</ele>
        <time>2017-05-25T13:35:32Z</time>
      </trkpt>
      <trkpt lat="48.08148" lon="-4.5797">
        <ele>23.69</ele>
        <time>2017-05-25T13:35:47Z</time>
      </trkpt>
      <trkpt lat="48.08141" lon="-4.5796">
        <ele>24.17</ele>
        <time>2017-05-25T13:36:01Z</time>
      </trkpt>
      <trkpt lat="48.0814" lon="-4.57959">
        <ele>24.17</ele>
        <time>2017-05-25T13:36:02Z</time>
      </trkpt>
      <trkpt lat="48.08135" lon="-4.57955">
        <ele>27.05</ele>
        <time>2017-05-25T13:36:15Z</time>
      </trkpt>
      <trkpt lat="48.08132" lon="-4.57948">
        <ele>29.94</ele>
        <time>2017-05-25T13:36:30Z</time>
      </trkpt>
      <trkpt lat="48.08127" lon="-4.57947">
        <ele>32.34</ele>
        <time>2017-05-25T13:36:43Z</time>
      </trkpt>
      <trkpt lat="48.08125" lon="-4.57946">
        <ele>33.3</ele>
        <time>2017-05-25T13:36:44Z</time>
      </trkpt>
      <trkpt lat="48.08115" lon="-4.57938">
        <ele>38.59</ele>
        <time>2017-05-25T13:36:59Z</time>
      </trkpt>
      <trkpt lat="48.08112" lon="-4.57936">
        <ele>39.55</ele>
        <time>2017-05-25T13:37:03Z</time>
      </trkpt>
      <trkpt lat="48.08112" lon="-4.57923">
        <ele>43.4</ele>
        <time>2017-05-25T13:37:14Z</time>
      </trkpt>
      <trkpt lat="48.08111" lon="-4.57914">
        <ele>43.4</ele>
        <time>2017-05-25T13:37:29Z</time>
      </trkpt>
      <trkpt lat="48.08111" lon="-4.57913">
        <ele>43.4</ele>
        <time>2017-05-25T13:38:00Z</time>
      </trkpt>
      <trkpt lat="48.08111" lon="-4.57912">
        <ele>42.92</ele>
        <time>2017-05-25T13:38:33Z</time>
      </trkpt>
      <trkpt lat="48.08112" lon="-4.57914">
        <ele>43.4</ele>
        <time>2017-05-25T13:39:02Z</time>
      </trkpt>
      <trkpt lat="48.08112" lon="-4.57915">
        <ele>43.4</ele>
        <time>2017-05-25T13:39:25Z</time>
      </trkpt>
      <trkpt lat="48.08112" lon="-4.57915">
        <ele>43.4</ele>
        <time>2017-05-25T13:39:51Z</time>
      </trkpt>
      <trkpt lat="48.08111" lon="-4.57915">
        <ele>43.4</ele>
        <time>2017-05-25T13:40:19Z</time>
      </trkpt>
      <trkpt lat="48.08111" lon="-4.57915">
        <ele>43.4</ele>
        <time>2017-05-25T13:40:40Z</time>
      </trkpt>
      <trkpt lat="48.08112" lon="-4.57915">
        <ele>43.4</ele>
        <time>2017-05-25T13:41:04Z</time>
      </trkpt>
      <trkpt lat="48.08112" lon="-4.57914">
        <ele>43.88</ele>
        <time>2017-05-25T13:41:32Z</time>
      </trkpt>
      <trkpt lat="48.08112" lon="-4.57915">
        <ele>43.88</ele>
        <time>2017-05-25T13:41:53Z</time>
      </trkpt>
      <trkpt lat="48.08112" lon="-4.57915">
        <ele>43.88</ele>
        <time>2017-05-25T13:42:16Z</time>
      </trkpt>
      <trkpt lat="48.08112" lon="-4.57915">
        <ele>43.88</ele>
        <time>2017-05-25T13:42:44Z</time>
      </trkpt>
      <trkpt lat="48.08112" lon="-4.57915">
        <ele>43.88</ele>
        <time>2017-05-25T13:42:46Z</time>
      </trkpt>
      <trkpt lat="48.08109" lon="-4.57917">
        <ele>44.36</ele>
        <time>2017-05-25T13:42:52Z</time>
      </trkpt>
      <trkpt lat="48.08105" lon="-4.57913">
        <ele>45.8</ele>
        <time>2017-05-25T13:42:58Z</time>
      </trkpt>
      <trkpt lat="48.08103" lon="-4.5791">
        <ele>46.76</ele>
        <time>2017-05-25T13:43:00Z</time>
      </trkpt>
      <trkpt lat="48.08096" lon="-4.57889">
        <ele>49.65</ele>
        <time>2017-05-25T13:43:14Z</time>
      </trkpt>
      <trkpt lat="48.08094" lon="-4.57882">
        <ele>50.13</ele>
        <time>2017-05-25T13:43:30Z</time>
      </trkpt>
      <trkpt lat="48.08092" lon="-4.57881">
        <ele>50.13</ele>
        <time>2017-05-25T13:43:59Z</time>
      </trkpt>
      <trkpt lat="48.08092" lon="-4.5788">
        <ele>50.61</ele>
        <time>2017-05-25T13:44:19Z</time>
      </trkpt>
      <trkpt lat="48.08091" lon="-4.5788">
        <ele>50.61</ele>
        <time>2017-05-25T13:44:49Z</time>
      </trkpt>
      <trkpt lat="48.08091" lon="-4.57879">
        <ele>50.61</ele>
        <time>2017-05-25T13:45:30Z</time>
      </trkpt>
      <trkpt lat="48.08091" lon="-4.57878">
        <ele>50.61</ele>
        <time>2017-05-25T13:46:11Z</time>
      </trkpt>
      <trkpt lat="48.08092" lon="-4.57877">
        <ele>51.09</ele>
        <time>2017-05-25T13:46:46Z</time>
      </trkpt>
      <trkpt lat="48.08092" lon="-4.57877">
        <ele>51.09</ele>
        <time>2017-05-25T13:47:17Z</time>
      </trkpt>
      <trkpt lat="48.08091" lon="-4.57877">
        <ele>51.09</ele>
        <time>2017-05-25T13:47:51Z</time>
      </trkpt>
      <trkpt lat="48.08091" lon="-4.57876">
        <ele>51.57</ele>
        <time>2017-05-25T13:48:28Z</time>
      </trkpt>
      <trkpt lat="48.08091" lon="-4.57875">
        <ele>51.57</ele>
        <time>2017-05-25T13:49:05Z</time>
      </trkpt>
      <trkpt lat="48.08091" lon="-4.57875">
        <ele>51.57</ele>
        <time>2017-05-25T13:49:37Z</time>
      </trkpt>
      <trkpt lat="48.08091" lon="-4.57875">
        <ele>51.57</ele>
        <time>2017-05-25T13:50:11Z</time>
      </trkpt>
      <trkpt lat="48.08091" lon="-4.57875">
        <ele>52.05</ele>
        <time>2017-05-25T13:50:48Z</time>
      </trkpt>
      <trkpt lat="48.08091" lon="-4.57875">
        <ele>52.05</ele>
        <time>2017-05-25T13:51:27Z</time>
      </trkpt>
      <trkpt lat="48.08091" lon="-4.57875">
        <ele>52.05</ele>
        <time>2017-05-25T13:52:05Z</time>
      </trkpt>
      <trkpt lat="48.08091" lon="-4.57875">
        <ele>52.05</ele>
        <time>2017-05-25T13:52:47Z</time>
      </trkpt>
      <trkpt lat="48.08092" lon="-4.57875">
        <ele>52.05</ele>
        <time>2017-05-25T13:53:24Z</time>
      </trkpt>
      <trkpt lat="48.08092" lon="-4.57876">
        <ele>52.05</ele>
        <time>2017-05-25T13:53:58Z</time>
      </trkpt>
      <trkpt lat="48.08092" lon="-4.57877">
        <ele>52.53</ele>
        <time>2017-05-25T13:54:22Z</time>
      </trkpt>
      <trkpt lat="48.08092" lon="-4.57877">
        <ele>52.53</ele>
        <time>2017-05-25T13:54:47Z</time>
      </trkpt>
      <trkpt lat="48.08092" lon="-4.57878">
        <ele>52.53</ele>
        <time>2017-05-25T13:55:12Z</time>
      </trkpt>
      <trkpt lat="48.08091" lon="-4.57877">
        <ele>52.53</ele>
        <time>2017-05-25T13:55:37Z</time>
      </trkpt>
      <trkpt lat="48.08092" lon="-4.57874">
        <ele>53.01</ele>
        <time>2017-05-25T13:55:56Z</time>
      </trkpt>
      <trkpt lat="48.08091" lon="-4.57872">
        <ele>52.53</ele>
        <time>2017-05-25T13:56:21Z</time>
      </trkpt>
      <trkpt lat="48.0809" lon="-4.57865">
        <ele>52.53</ele>
        <time>2017-05-25T13:56:27Z</time>
      </trkpt>
      <trkpt lat="48.08078" lon="-4.57847">
        <ele>52.05</ele>
        <time>2017-05-25T13:56:42Z</time>
      </trkpt>
      <trkpt lat="48.08076" lon="-4.57838">
        <ele>51.57</ele>
        <time>2017-05-25T13:56:47Z</time>
      </trkpt>
      <trkpt lat="48.08075" lon="-4.57835">
        <ele>51.57</ele>
        <time>2017-05-25T13:56:49Z</time>
      </trkpt>
      <trkpt lat="48.08066" lon="-4.57821">
        <ele>53.49</ele>
        <time>2017-05-25T13:57:02Z</time>
      </trkpt>
      <trkpt lat="48.08062" lon="-4.57816">
        <ele>53.97</ele>
        <time>2017-05-25T13:57:08Z</time>
      </trkpt>
      <trkpt lat="48.08066" lon="-4.57789">
        <ele>54.45</ele>
        <time>2017-05-25T13:57:23Z</time>
      </trkpt>
      <trkpt lat="48.08069" lon="-4.57781">
        <ele>53.97</ele>
        <time>2017-05-25T13:57:30Z</time>
      </trkpt>
      <trkpt lat="48.08074" lon="-4.57775">
        <ele>54.45</ele>
        <time>2017-05-25T13:57:35Z</time>
      </trkpt>
      <trkpt lat="48.0808" lon="-4.57768">
        <ele>53.49</ele>
        <time>2017-05-25T13:57:42Z</time>
      </trkpt>
      <trkpt lat="48.08086" lon="-4.57758">
        <ele>52.53</ele>
        <time>2017-05-25T13:57:47Z</time>
      </trkpt>
      <trkpt lat="48.08094" lon="-4.57746">
        <ele>52.05</ele>
        <time>2017-05-25T13:57:57Z</time>
      </trkpt>
      <trkpt lat="48.08101" lon="-4.57731">
        <ele>52.05</ele>
        <time>2017-05-25T13:58:10Z</time>
      </trkpt>
      <trkpt lat="48.08104" lon="-4.57718">
        <ele>51.09</ele>
        <time>2017-05-25T13:58:20Z</time>
      </trkpt>
      <trkpt lat="48.08103" lon="-4.57708">
        <ele>50.61</ele>
        <time>2017-05-25T13:58:26Z</time>
      </trkpt>
      <trkpt lat="48.08102" lon="-4.57681">
        <ele>49.65</ele>
        <time>2017-05-25T13:58:42Z</time>
      </trkpt>
      <trkpt lat="48.08102" lon="-4.57679">
        <ele>49.65</ele>
        <time>2017-05-25T13:58:43Z</time>
      </trkpt>
      <trkpt lat="48.08101" lon="-4.57669">
        <ele>50.61</ele>
        <time>2017-05-25T13:58:49Z</time>
      </trkpt>
      <trkpt lat="48.081" lon="-4.57664">
        <ele>51.09</ele>
        <time>2017-05-25T13:58:52Z</time>
      </trkpt>
      <trkpt lat="48.08101" lon="-4.57656">
        <ele>51.57</ele>
        <time>2017-05-25T13:58:57Z</time>
      </trkpt>
      <trkpt lat="48.08101" lon="-4.5765">
        <ele>52.05</ele>
        <time>2017-05-25T13:59:02Z</time>
      </trkpt>
      <trkpt lat="48.081" lon="-4.57641">
        <ele>53.97</ele>
        <time>2017-05-25T13:59:09Z</time>
      </trkpt>
      <trkpt lat="48.08099" lon="-4.57631">
        <ele>54.45</ele>
        <time>2017-05-25T13:59:15Z</time>
      </trkpt>
      <trkpt lat="48.08093" lon="-4.5762">
        <ele>56.37</ele>
        <time>2017-05-25T13:59:25Z</time>
      </trkpt>
      <trkpt lat="48.08092" lon="-4.57615">
        <ele>55.41</ele>
        <time>2017-05-25T13:59:30Z</time>
      </trkpt>
      <trkpt lat="48.0809" lon="-4.57613">
        <ele>56.37</ele>
        <time>2017-05-25T13:59:33Z</time>
      </trkpt>
      <trkpt lat="48.08088" lon="-4.57605">
        <ele>56.37</ele>
        <time>2017-05-25T13:59:37Z</time>
      </trkpt>
      <trkpt lat="48.08078" lon="-4.57591">
        <ele>59.26</ele>
        <time>2017-05-25T13:59:51Z</time>
      </trkpt>
      <trkpt lat="48.08074" lon="-4.57567">
        <ele>58.3</ele>
        <time>2017-05-25T14:00:05Z</time>
      </trkpt>
      <trkpt lat="48.08072" lon="-4.57561">
        <ele>56.86</ele>
        <time>2017-05-25T14:00:11Z</time>
      </trkpt>
      <trkpt lat="48.08076" lon="-4.57557">
        <ele>55.89</ele>
        <time>2017-05-25T14:00:15Z</time>
      </trkpt>
      <trkpt lat="48.08086" lon="-4.57549">
        <ele>54.45</ele>
        <time>2017-05-25T14:00:27Z</time>
      </trkpt>
      <trkpt lat="48.08101" lon="-4.57547">
        <ele>51.57</ele>
        <time>2017-05-25T14:00:39Z</time>
      </trkpt>
      <trkpt lat="48.08108" lon="-4.57545">
        <ele>50.13</ele>
        <time>2017-05-25T14:00:45Z</time>
      </trkpt>
      <trkpt lat="48.08112" lon="-4.57543">
        <ele>48.68</ele>
        <time>2017-05-25T14:00:49Z</time>
      </trkpt>
      <trkpt lat="48.08122" lon="-4.57542">
        <ele>45.8</ele>
        <time>2017-05-25T14:00:58Z</time>
      </trkpt>
      <trkpt lat="48.08135" lon="-4.57538">
        <ele>44.84</ele>
        <time>2017-05-25T14:01:09Z</time>
      </trkpt>
      <trkpt lat="48.08143" lon="-4.57536">
        <ele>43.4</ele>
        <time>2017-05-25T14:01:17Z</time>
      </trkpt>
      <trkpt lat="48.08146" lon="-4.57517">
        <ele>41.95</ele>
        <time>2017-05-25T14:01:30Z</time>
      </trkpt>
      <trkpt lat="48.08146" lon="-4.57511">
        <ele>41.47</ele>
        <time>2017-05-25T14:01:33Z</time>
      </trkpt>
      <trkpt lat="48.08146" lon="-4.57508">
        <ele>40.99</ele>
        <time>2017-05-25T14:01:35Z</time>
      </trkpt>
      <trkpt lat="48.08146" lon="-4.57486">
        <ele>37.63</ele>
        <time>2017-05-25T14:01:49Z</time>
      </trkpt>
      <trkpt lat="48.08147" lon="-4.57473">
        <ele>37.15</ele>
        <time>2017-05-25T14:01:58Z</time>
      </trkpt>
      <trkpt lat="48.08149" lon="-4.57468">
        <ele>37.63</ele>
        <time>2017-05-25T14:02:15Z</time>
      </trkpt>
      <trkpt lat="48.08153" lon="-4.57442">
        <ele>36.67</ele>
        <time>2017-05-25T14:02:28Z</time>
      </trkpt>
      <trkpt lat="48.08156" lon="-4.57413">
        <ele>34.26</ele>
        <time>2017-05-25T14:02:42Z</time>
      </trkpt>
      <trkpt lat="48.08158" lon="-4.57404">
        <ele>32.34</ele>
        <time>2017-05-25T14:02:50Z</time>
      </trkpt>
      <trkpt lat="48.08156" lon="-4.5739">
        <ele>28.98</ele>
        <time>2017-05-25T14:02:56Z</time>
      </trkpt>
      <trkpt lat="48.08152" lon="-4.57377">
        <ele>27.05</ele>
        <time>2017-05-25T14:03:03Z</time>
      </trkpt>
      <trkpt lat="48.08161" lon="-4.57377">
        <ele>22.73</ele>
        <time>2017-05-25T14:03:15Z</time>
      </trkpt>
      <trkpt lat="48.08165" lon="-4.57357">
        <ele>19.36</ele>
        <time>2017-05-25T14:03:30Z</time>
      </trkpt>
      <trkpt lat="48.08158" lon="-4.57336">
        <ele>16</ele>
        <time>2017-05-25T14:03:47Z</time>
      </trkpt>
      <trkpt lat="48.08156" lon="-4.5733">
        <ele>16</ele>
        <time>2017-05-25T14:03:52Z</time>
      </trkpt>
      <trkpt lat="48.08147" lon="-4.57322">
        <ele>16.96</ele>
        <time>2017-05-25T14:04:03Z</time>
      </trkpt>
      <trkpt lat="48.0814" lon="-4.5732">
        <ele>18.88</ele>
        <time>2017-05-25T14:04:09Z</time>
      </trkpt>
      <trkpt lat="48.08137" lon="-4.5732">
        <ele>19.84</ele>
        <time>2017-05-25T14:04:14Z</time>
      </trkpt>
      <trkpt lat="48.08132" lon="-4.57329">
        <ele>22.25</ele>
        <time>2017-05-25T14:04:26Z</time>
      </trkpt>
      <trkpt lat="48.08128" lon="-4.57334">
        <ele>25.13</ele>
        <time>2017-05-25T14:04:37Z</time>
      </trkpt>
      <trkpt lat="48.08127" lon="-4.57335">
        <ele>26.09</ele>
        <time>2017-05-25T14:04:40Z</time>
      </trkpt>
      <trkpt lat="48.08122" lon="-4.57336">
        <ele>28.98</ele>
        <time>2017-05-25T14:04:48Z</time>
      </trkpt>
      <trkpt lat="48.08115" lon="-4.57333">
        <ele>31.38</ele>
        <time>2017-05-25T14:05:00Z</time>
      </trkpt>
      <trkpt lat="48.08113" lon="-4.5733">
        <ele>31.86</ele>
        <time>2017-05-25T14:05:04Z</time>
      </trkpt>
      <trkpt lat="48.08106" lon="-4.57327">
        <ele>34.74</ele>
        <time>2017-05-25T14:05:13Z</time>
      </trkpt>
      <trkpt lat="48.08096" lon="-4.57315">
        <ele>36.19</ele>
        <time>2017-05-25T14:05:25Z</time>
      </trkpt>
      <trkpt lat="48.08088" lon="-4.57303">
        <ele>37.63</ele>
        <time>2017-05-25T14:05:37Z</time>
      </trkpt>
      <trkpt lat="48.08078" lon="-4.57286">
        <ele>40.51</ele>
        <time>2017-05-25T14:05:51Z</time>
      </trkpt>
      <trkpt lat="48.08073" lon="-4.57276">
        <ele>42.92</ele>
        <time>2017-05-25T14:06:03Z</time>
      </trkpt>
      <trkpt lat="48.08073" lon="-4.57275">
        <ele>42.92</ele>
        <time>2017-05-25T14:06:26Z</time>
      </trkpt>
      <trkpt lat="48.08076" lon="-4.57279">
        <ele>41.47</ele>
        <time>2017-05-25T14:06:50Z</time>
      </trkpt>
      <trkpt lat="48.08076" lon="-4.5728">
        <ele>41.95</ele>
        <time>2017-05-25T14:07:13Z</time>
      </trkpt>
      <trkpt lat="48.08076" lon="-4.57281">
        <ele>41.95</ele>
        <time>2017-05-25T14:07:43Z</time>
      </trkpt>
      <trkpt lat="48.08076" lon="-4.57281">
        <ele>41.47</ele>
        <time>2017-05-25T14:08:16Z</time>
      </trkpt>
      <trkpt lat="48.08076" lon="-4.57281">
        <ele>41.95</ele>
        <time>2017-05-25T14:08:39Z</time>
      </trkpt>
      <trkpt lat="48.08075" lon="-4.57279">
        <ele>42.44</ele>
        <time>2017-05-25T14:09:00Z</time>
      </trkpt>
      <trkpt lat="48.08075" lon="-4.57279">
        <ele>42.44</ele>
        <time>2017-05-25T14:09:01Z</time>
      </trkpt>
      <trkpt lat="48.08067" lon="-4.57275">
        <ele>42.44</ele>
        <time>2017-05-25T14:09:14Z</time>
      </trkpt>
      <trkpt lat="48.08062" lon="-4.57273">
        <ele>43.88</ele>
        <time>2017-05-25T14:09:27Z</time>
      </trkpt>
      <trkpt lat="48.08046" lon="-4.5727">
        <ele>45.8</ele>
        <time>2017-05-25T14:09:40Z</time>
      </trkpt>
      <trkpt lat="48.08041" lon="-4.57266">
        <ele>47.72</ele>
        <time>2017-05-25T14:09:49Z</time>
      </trkpt>
      <trkpt lat="48.08028" lon="-4.5725">
        <ele>47.72</ele>
        <time>2017-05-25T14:10:04Z</time>
      </trkpt>
      <trkpt lat="48.08017" lon="-4.57233">
        <ele>50.13</ele>
        <time>2017-05-25T14:10:18Z</time>
      </trkpt>
      <trkpt lat="48.08015" lon="-4.57218">
        <ele>50.61</ele>
        <time>2017-05-25T14:10:30Z</time>
      </trkpt>
      <trkpt lat="48.08016" lon="-4.57206">
        <ele>49.65</ele>
        <time>2017-05-25T14:10:41Z</time>
      </trkpt>
      <trkpt lat="48.08018" lon="-4.57202">
        <ele>50.13</ele>
        <time>2017-05-25T14:10:45Z</time>
      </trkpt>
      <trkpt lat="48.08022" lon="-4.57195">
        <ele>51.09</ele>
        <time>2017-05-25T14:10:50Z</time>
      </trkpt>
      <trkpt lat="48.08041" lon="-4.57178">
        <ele>52.05</ele>
        <time>2017-05-25T14:11:07Z</time>
      </trkpt>
      <trkpt lat="48.08044" lon="-4.57174">
        <ele>53.01</ele>
        <time>2017-05-25T14:11:12Z</time>
      </trkpt>
      <trkpt lat="48.0805" lon="-4.57169">
        <ele>52.53</ele>
        <time>2017-05-25T14:11:16Z</time>
      </trkpt>
      <trkpt lat="48.08057" lon="-4.57151">
        <ele>51.09</ele>
        <time>2017-05-25T14:11:29Z</time>
      </trkpt>
      <trkpt lat="48.08047" lon="-4.5714">
        <ele>53.97</ele>
        <time>2017-05-25T14:11:41Z</time>
      </trkpt>
      <trkpt lat="48.08042" lon="-4.57136">
        <ele>55.89</ele>
        <time>2017-05-25T14:11:49Z</time>
      </trkpt>
      <trkpt lat="48.0804" lon="-4.57129">
        <ele>57.82</ele>
        <time>2017-05-25T14:11:55Z</time>
      </trkpt>
      <trkpt lat="48.0804" lon="-4.57127">
        <ele>58.3</ele>
        <time>2017-05-25T14:11:57Z</time>
      </trkpt>
      <trkpt lat="48.0805" lon="-4.57115">
        <ele>59.74</ele>
        <time>2017-05-25T14:12:08Z</time>
      </trkpt>
      <trkpt lat="48.08052" lon="-4.57102">
        <ele>61.18</ele>
        <time>2017-05-25T14:12:18Z</time>
      </trkpt>
      <trkpt lat="48.08059" lon="-4.57081">
        <ele>61.18</ele>
        <time>2017-05-25T14:12:31Z</time>
      </trkpt>
      <trkpt lat="48.08068" lon="-4.5706">
        <ele>63.1</ele>
        <time>2017-05-25T14:12:45Z</time>
      </trkpt>
      <trkpt lat="48.0807" lon="-4.57049">
        <ele>64.07</ele>
        <time>2017-05-25T14:12:52Z</time>
      </trkpt>
      <trkpt lat="48.08078" lon="-4.5703">
        <ele>65.03</ele>
        <time>2017-05-25T14:13:05Z</time>
      </trkpt>
      <trkpt lat="48.08089" lon="-4.57008">
        <ele>66.47</ele>
        <time>2017-05-25T14:13:18Z</time>
      </trkpt>
      <trkpt lat="48.08091" lon="-4.56998">
        <ele>65.51</ele>
        <time>2017-05-25T14:13:25Z</time>
      </trkpt>
      <trkpt lat="48.08087" lon="-4.56986">
        <ele>65.99</ele>
        <time>2017-05-25T14:13:32Z</time>
      </trkpt>
      <trkpt lat="48.08082" lon="-4.56964">
        <ele>66.95</ele>
        <time>2017-05-25T14:13:46Z</time>
      </trkpt>
      <trkpt lat="48.08083" lon="-4.56962">
        <ele>66.47</ele>
        <time>2017-05-25T14:13:48Z</time>
      </trkpt>
      <trkpt lat="48.08084" lon="-4.56956">
        <ele>66.47</ele>
        <time>2017-05-25T14:13:53Z</time>
      </trkpt>
      <trkpt lat="48.08083" lon="-4.56951">
        <ele>65.99</ele>
        <time>2017-05-25T14:13:56Z</time>
      </trkpt>
      <trkpt lat="48.08088" lon="-4.56934">
        <ele>65.03</ele>
        <time>2017-05-25T14:14:08Z</time>
      </trkpt>
      <trkpt lat="48.081" lon="-4.56916">
        <ele>66.47</ele>
        <time>2017-05-25T14:14:18Z</time>
      </trkpt>
      <trkpt lat="48.08102" lon="-4.56914">
        <ele>67.91</ele>
        <time>2017-05-25T14:14:31Z</time>
      </trkpt>
      <trkpt lat="48.08102" lon="-4.56915">
        <ele>67.91</ele>
        <time>2017-05-25T14:15:00Z</time>
      </trkpt>
      <trkpt lat="48.08101" lon="-4.56915">
        <ele>68.39</ele>
        <time>2017-05-25T14:15:24Z</time>
      </trkpt>
      <trkpt lat="48.08099" lon="-4.56915">
        <ele>69.35</ele>
        <time>2017-05-25T14:15:44Z</time>
      </trkpt>
      <trkpt lat="48.08099" lon="-4.56915">
        <ele>68.87</ele>
        <time>2017-05-25T14:15:59Z</time>
      </trkpt>
      <trkpt lat="48.08099" lon="-4.56916">
        <ele>69.35</ele>
        <time>2017-05-25T14:16:21Z</time>
      </trkpt>
      <trkpt lat="48.08101" lon="-4.56916">
        <ele>69.35</ele>
        <time>2017-05-25T14:16:53Z</time>
      </trkpt>
      <trkpt lat="48.08101" lon="-4.56915">
        <ele>68.87</ele>
        <time>2017-05-25T14:17:09Z</time>
      </trkpt>
      <trkpt lat="48.081" lon="-4.56914">
        <ele>69.35</ele>
        <time>2017-05-25T14:17:38Z</time>
      </trkpt>
      <trkpt lat="48.081" lon="-4.56914">
        <ele>68.87</ele>
        <time>2017-05-25T14:18:04Z</time>
      </trkpt>
      <trkpt lat="48.081" lon="-4.56915">
        <ele>68.87</ele>
        <time>2017-05-25T14:18:29Z</time>
      </trkpt>
      <trkpt lat="48.081" lon="-4.56915">
        <ele>68.39</ele>
        <time>2017-05-25T14:19:05Z</time>
      </trkpt>
      <trkpt lat="48.08099" lon="-4.56915">
        <ele>68.39</ele>
        <time>2017-05-25T14:19:39Z</time>
      </trkpt>
      <trkpt lat="48.08099" lon="-4.56915">
        <ele>68.87</ele>
        <time>2017-05-25T14:20:04Z</time>
      </trkpt>
      <trkpt lat="48.08102" lon="-4.56913">
        <ele>68.87</ele>
        <time>2017-05-25T14:20:34Z</time>
      </trkpt>
      <trkpt lat="48.08115" lon="-4.56903">
        <ele>67.43</ele>
        <time>2017-05-25T14:20:47Z</time>
      </trkpt>
      <trkpt lat="48.08119" lon="-4.569">
        <ele>66.47</ele>
        <time>2017-05-25T14:20:51Z</time>
      </trkpt>
      <trkpt lat="48.0813" lon="-4.56889">
        <ele>65.99</ele>
        <time>2017-05-25T14:21:05Z</time>
      </trkpt>
      <trkpt lat="48.08138" lon="-4.56877">
        <ele>65.51</ele>
        <time>2017-05-25T14:21:17Z</time>
      </trkpt>
      <trkpt lat="48.08144" lon="-4.56866">
        <ele>64.55</ele>
        <time>2017-05-25T14:21:28Z</time>
      </trkpt>
      <trkpt lat="48.08142" lon="-4.56865">
        <ele>65.99</ele>
        <time>2017-05-25T14:21:40Z</time>
      </trkpt>
      <trkpt lat="48.0814" lon="-4.56858">
        <ele>67.91</ele>
        <time>2017-05-25T14:21:59Z</time>
      </trkpt>
      <trkpt lat="48.08138" lon="-4.56858">
        <ele>68.87</ele>
        <time>2017-05-25T14:22:07Z</time>
      </trkpt>
      <trkpt lat="48.08131" lon="-4.56857">
        <ele>70.79</ele>
        <time>2017-05-25T14:22:16Z</time>
      </trkpt>
      <trkpt lat="48.08123" lon="-4.56848">
        <ele>74.64</ele>
        <time>2017-05-25T14:22:29Z</time>
      </trkpt>
      <trkpt lat="48.0812" lon="-4.56844">
        <ele>73.68</ele>
        <time>2017-05-25T14:22:46Z</time>
      </trkpt>
      <trkpt lat="48.08119" lon="-4.56844">
        <ele>74.16</ele>
        <time>2017-05-25T14:23:02Z</time>
      </trkpt>
      <trkpt lat="48.0812" lon="-4.56845">
        <ele>74.16</ele>
        <time>2017-05-25T14:23:07Z</time>
      </trkpt>
      <trkpt lat="48.08125" lon="-4.5685">
        <ele>71.27</ele>
        <time>2017-05-25T14:23:22Z</time>
      </trkpt>
      <trkpt lat="48.08128" lon="-4.56856">
        <ele>70.31</ele>
        <time>2017-05-25T14:23:27Z</time>
      </trkpt>
      <trkpt lat="48.08133" lon="-4.56859">
        <ele>67.91</ele>
        <time>2017-05-25T14:23:34Z</time>
      </trkpt>
      <trkpt lat="48.0814" lon="-4.56866">
        <ele>65.99</ele>
        <time>2017-05-25T14:23:45Z</time>
      </trkpt>
      <trkpt lat="48.08146" lon="-4.56859">
        <ele>63.1</ele>
        <time>2017-05-25T14:23:57Z</time>
      </trkpt>
      <trkpt lat="48.0815" lon="-4.56852">
        <ele>62.14</ele>
        <time>2017-05-25T14:24:01Z</time>
      </trkpt>
      <trkpt lat="48.08157" lon="-4.56816">
        <ele>60.22</ele>
        <time>2017-05-25T14:24:16Z</time>
      </trkpt>
      <trkpt lat="48.0816" lon="-4.56808">
        <ele>60.22</ele>
        <time>2017-05-25T14:24:19Z</time>
      </trkpt>
      <trkpt lat="48.08161" lon="-4.56804">
        <ele>60.7</ele>
        <time>2017-05-25T14:24:21Z</time>
      </trkpt>
      <trkpt lat="48.08164" lon="-4.56797">
        <ele>60.7</ele>
        <time>2017-05-25T14:24:25Z</time>
      </trkpt>
      <trkpt lat="48.08165" lon="-4.56793">
        <ele>61.18</ele>
        <time>2017-05-25T14:24:27Z</time>
      </trkpt>
      <trkpt lat="48.08167" lon="-4.56779">
        <ele>60.7</ele>
        <time>2017-05-25T14:24:32Z</time>
      </trkpt>
      <trkpt lat="48.08159" lon="-4.56751">
        <ele>64.07</ele>
        <time>2017-05-25T14:24:46Z</time>
      </trkpt>
      <trkpt lat="48.08157" lon="-4.56749">
        <ele>65.03</ele>
        <time>2017-05-25T14:24:48Z</time>
      </trkpt>
      <trkpt lat="48.08148" lon="-4.56737">
        <ele>69.35</ele>
        <time>2017-05-25T14:24:59Z</time>
      </trkpt>
      <trkpt lat="48.08144" lon="-4.56733">
        <ele>70.79</ele>
        <time>2017-05-25T14:25:05Z</time>
      </trkpt>
      <trkpt lat="48.08147" lon="-4.56729">
        <ele>69.35</ele>
        <time>2017-05-25T14:25:09Z</time>
      </trkpt>
      <trkpt lat="48.08151" lon="-4.56726">
        <ele>65.99</ele>
        <time>2017-05-25T14:25:12Z</time>
      </trkpt>
      <trkpt lat="48.08153" lon="-4.56724">
        <ele>63.1</ele>
        <time>2017-05-25T14:25:17Z</time>
      </trkpt>
      <trkpt lat="48.08153" lon="-4.56723">
        <ele>62.14</ele>
        <time>2017-05-25T14:25:19Z</time>
      </trkpt>
      <trkpt lat="48.08143" lon="-4.56719">
        <ele>58.3</ele>
        <time>2017-05-25T14:25:33Z</time>
      </trkpt>
      <trkpt lat="48.0814" lon="-4.5672">
        <ele>58.3</ele>
        <time>2017-05-25T14:25:35Z</time>
      </trkpt>
      <trkpt lat="48.08123" lon="-4.56724">
        <ele>58.3</ele>
        <time>2017-05-25T14:25:43Z</time>
      </trkpt>
      <trkpt lat="48.08113" lon="-4.56732">
        <ele>56.37</ele>
        <time>2017-05-25T14:25:51Z</time>
      </trkpt>
      <trkpt lat="48.08105" lon="-4.56738">
        <ele>56.86</ele>
        <time>2017-05-25T14:26:08Z</time>
      </trkpt>
      <trkpt lat="48.08089" lon="-4.56734">
        <ele>60.7</ele>
        <time>2017-05-25T14:26:21Z</time>
      </trkpt>
      <trkpt lat="48.08086" lon="-4.56731">
        <ele>61.66</ele>
        <time>2017-05-25T14:26:24Z</time>
      </trkpt>
      <trkpt lat="48.08077" lon="-4.56726">
        <ele>61.66</ele>
        <time>2017-05-25T14:26:41Z</time>
      </trkpt>
      <trkpt lat="48.08077" lon="-4.56726">
        <ele>60.7</ele>
        <time>2017-05-25T14:27:08Z</time>
      </trkpt>
      <trkpt lat="48.08077" lon="-4.56725">
        <ele>60.22</ele>
        <time>2017-05-25T14:27:30Z</time>
      </trkpt>
      <trkpt lat="48.08077" lon="-4.56724">
        <ele>59.26</ele>
        <time>2017-05-25T14:27:53Z</time>
      </trkpt>
      <trkpt lat="48.08076" lon="-4.56724">
        <ele>59.26</ele>
        <time>2017-05-25T14:28:05Z</time>
      </trkpt>
      <trkpt lat="48.08069" lon="-4.56711">
        <ele>59.26</ele>
        <time>2017-05-25T14:28:13Z</time>
      </trkpt>
      <trkpt lat="48.08051" lon="-4.56685">
        <ele>59.26</ele>
        <time>2017-05-25T14:28:28Z</time>
      </trkpt>
      <trkpt lat="48.08035" lon="-4.5666">
        <ele>58.78</ele>
        <time>2017-05-25T14:28:45Z</time>
      </trkpt>
      <trkpt lat="48.08028" lon="-4.56658">
        <ele>59.74</ele>
        <time>2017-05-25T14:28:51Z</time>
      </trkpt>
      <trkpt lat="48.0802" lon="-4.56652">
        <ele>61.18</ele>
        <time>2017-05-25T14:28:58Z</time>
      </trkpt>
      <trkpt lat="48.07999" lon="-4.56639">
        <ele>64.07</ele>
        <time>2017-05-25T14:29:15Z</time>
      </trkpt>
      <trkpt lat="48.07987" lon="-4.5662">
        <ele>65.03</ele>
        <time>2017-05-25T14:29:29Z</time>
      </trkpt>
      <trkpt lat="48.07981" lon="-4.56608">
        <ele>63.58</ele>
        <time>2017-05-25T14:29:37Z</time>
      </trkpt>
      <trkpt lat="48.07978" lon="-4.566">
        <ele>63.1</ele>
        <time>2017-05-25T14:29:42Z</time>
      </trkpt>
      <trkpt lat="48.07962" lon="-4.56582">
        <ele>63.1</ele>
        <time>2017-05-25T14:29:57Z</time>
      </trkpt>
      <trkpt lat="48.07959" lon="-4.5657">
        <ele>62.14</ele>
        <time>2017-05-25T14:30:14Z</time>
      </trkpt>
      <trkpt lat="48.07959" lon="-4.5657">
        <ele>62.14</ele>
        <time>2017-05-25T14:30:16Z</time>
      </trkpt>
      <trkpt lat="48.07959" lon="-4.5656">
        <ele>60.7</ele>
        <time>2017-05-25T14:30:20Z</time>
      </trkpt>
      <trkpt lat="48.07958" lon="-4.56552">
        <ele>59.26</ele>
        <time>2017-05-25T14:30:23Z</time>
      </trkpt>
      <trkpt lat="48.0795" lon="-4.56533">
        <ele>55.41</ele>
        <time>2017-05-25T14:30:40Z</time>
      </trkpt>
      <trkpt lat="48.07946" lon="-4.56515">
        <ele>55.89</ele>
        <time>2017-05-25T14:30:56Z</time>
      </trkpt>
      <trkpt lat="48.07947" lon="-4.56505">
        <ele>56.86</ele>
        <time>2017-05-25T14:31:02Z</time>
      </trkpt>
      <trkpt lat="48.07946" lon="-4.5648">
        <ele>58.78</ele>
        <time>2017-05-25T14:31:20Z</time>
      </trkpt>
      <trkpt lat="48.07948" lon="-4.56468">
        <ele>58.78</ele>
        <time>2017-05-25T14:31:26Z</time>
      </trkpt>
      <trkpt lat="48.07954" lon="-4.56443">
        <ele>60.7</ele>
        <time>2017-05-25T14:31:40Z</time>
      </trkpt>
      <trkpt lat="48.07956" lon="-4.56415">
        <ele>60.22</ele>
        <time>2017-05-25T14:31:56Z</time>
      </trkpt>
      <trkpt lat="48.07956" lon="-4.56407">
        <ele>59.74</ele>
        <time>2017-05-25T14:32:03Z</time>
      </trkpt>
      <trkpt lat="48.07955" lon="-4.56405">
        <ele>59.74</ele>
        <time>2017-05-25T14:32:06Z</time>
      </trkpt>
      <trkpt lat="48.07952" lon="-4.56389">
        <ele>60.22</ele>
        <time>2017-05-25T14:32:18Z</time>
      </trkpt>
      <trkpt lat="48.07952" lon="-4.56382">
        <ele>61.18</ele>
        <time>2017-05-25T14:32:27Z</time>
      </trkpt>
      <trkpt lat="48.07948" lon="-4.56378">
        <ele>63.58</ele>
        <time>2017-05-25T14:32:36Z</time>
      </trkpt>
      <trkpt lat="48.07942" lon="-4.56372">
        <ele>64.55</ele>
        <time>2017-05-25T14:32:47Z</time>
      </trkpt>
      <trkpt lat="48.0794" lon="-4.56369">
        <ele>64.55</ele>
        <time>2017-05-25T14:32:50Z</time>
      </trkpt>
      <trkpt lat="48.07939" lon="-4.56363">
        <ele>64.55</ele>
        <time>2017-05-25T14:32:54Z</time>
      </trkpt>
      <trkpt lat="48.07931" lon="-4.56351">
        <ele>65.03</ele>
        <time>2017-05-25T14:33:06Z</time>
      </trkpt>
      <trkpt lat="48.07922" lon="-4.56336">
        <ele>67.91</ele>
        <time>2017-05-25T14:33:20Z</time>
      </trkpt>
      <trkpt lat="48.07922" lon="-4.56333">
        <ele>69.35</ele>
        <time>2017-05-25T14:33:44Z</time>
      </trkpt>
      <trkpt lat="48.07921" lon="-4.56335">
        <ele>69.83</ele>
        <time>2017-05-25T14:34:05Z</time>
      </trkpt>
      <trkpt lat="48.07923" lon="-4.56335">
        <ele>70.31</ele>
        <time>2017-05-25T14:34:25Z</time>
      </trkpt>
      <trkpt lat="48.07924" lon="-4.56331">
        <ele>70.79</ele>
        <time>2017-05-25T14:34:30Z</time>
      </trkpt>
      <trkpt lat="48.07916" lon="-4.56317">
        <ele>70.79</ele>
        <time>2017-05-25T14:34:42Z</time>
      </trkpt>
      <trkpt lat="48.07913" lon="-4.56308">
        <ele>70.31</ele>
        <time>2017-05-25T14:34:49Z</time>
      </trkpt>
      <trkpt lat="48.0791" lon="-4.56302">
        <ele>70.31</ele>
        <time>2017-05-25T14:34:54Z</time>
      </trkpt>
      <trkpt lat="48.07909" lon="-4.56295">
        <ele>70.31</ele>
        <time>2017-05-25T14:34:58Z</time>
      </trkpt>
      <trkpt lat="48.07902" lon="-4.56281">
        <ele>70.31</ele>
        <time>2017-05-25T14:35:12Z</time>
      </trkpt>
      <trkpt lat="48.07901" lon="-4.56281">
        <ele>70.31</ele>
        <time>2017-05-25T14:35:13Z</time>
      </trkpt>
      <trkpt lat="48.07889" lon="-4.56277">
        <ele>69.35</ele>
        <time>2017-05-25T14:35:23Z</time>
      </trkpt>
      <trkpt lat="48.07885" lon="-4.56274">
        <ele>69.35</ele>
        <time>2017-05-25T14:35:28Z</time>
      </trkpt>
      <trkpt lat="48.07876" lon="-4.56265">
        <ele>69.83</ele>
        <time>2017-05-25T14:35:36Z</time>
      </trkpt>
      <trkpt lat="48.07874" lon="-4.56255">
        <ele>69.35</ele>
        <time>2017-05-25T14:35:41Z</time>
      </trkpt>
      <trkpt lat="48.07874" lon="-4.56251">
        <ele>69.35</ele>
        <time>2017-05-25T14:35:43Z</time>
      </trkpt>
      <trkpt lat="48.07875" lon="-4.56245">
        <ele>68.87</ele>
        <time>2017-05-25T14:35:46Z</time>
      </trkpt>
      <trkpt lat="48.0787" lon="-4.56232">
        <ele>67.43</ele>
        <time>2017-05-25T14:35:54Z</time>
      </trkpt>
      <trkpt lat="48.07863" lon="-4.56225">
        <ele>66.95</ele>
        <time>2017-05-25T14:36:03Z</time>
      </trkpt>
      <trkpt lat="48.07856" lon="-4.56223">
        <ele>65.99</ele>
        <time>2017-05-25T14:36:08Z</time>
      </trkpt>
      <trkpt lat="48.07837" lon="-4.5622">
        <ele>64.07</ele>
        <time>2017-05-25T14:36:21Z</time>
      </trkpt>
      <trkpt lat="48.07822" lon="-4.56205">
        <ele>63.58</ele>
        <time>2017-05-25T14:36:35Z</time>
      </trkpt>
      <trkpt lat="48.07821" lon="-4.56203">
        <ele>63.58</ele>
        <time>2017-05-25T14:36:36Z</time>
      </trkpt>
      <trkpt lat="48.07815" lon="-4.56174">
        <ele>63.1</ele>
        <time>2017-05-25T14:36:51Z</time>
      </trkpt>
      <trkpt lat="48.07811" lon="-4.56165">
        <ele>63.1</ele>
        <time>2017-05-25T14:36:58Z</time>
      </trkpt>
      <trkpt lat="48.07808" lon="-4.56161">
        <ele>63.58</ele>
        <time>2017-05-25T14:37:02Z</time>
      </trkpt>
      <trkpt lat="48.07805" lon="-4.56135">
        <ele>62.62</ele>
        <time>2017-05-25T14:37:17Z</time>
      </trkpt>
      <trkpt lat="48.07805" lon="-4.56133">
        <ele>62.62</ele>
        <time>2017-05-25T14:37:18Z</time>
      </trkpt>
      <trkpt lat="48.07793" lon="-4.56104">
        <ele>60.22</ele>
        <time>2017-05-25T14:37:35Z</time>
      </trkpt>
      <trkpt lat="48.07788" lon="-4.56094">
        <ele>57.82</ele>
        <time>2017-05-25T14:37:42Z</time>
      </trkpt>
      <trkpt lat="48.07779" lon="-4.56083">
        <ele>56.86</ele>
        <time>2017-05-25T14:37:51Z</time>
      </trkpt>
      <trkpt lat="48.07767" lon="-4.56051">
        <ele>53.97</ele>
        <time>2017-05-25T14:38:08Z</time>
      </trkpt>
      <trkpt lat="48.07756" lon="-4.56029">
        <ele>50.61</ele>
        <time>2017-05-25T14:38:21Z</time>
      </trkpt>
      <trkpt lat="48.07742" lon="-4.56008">
        <ele>47.72</ele>
        <time>2017-05-25T14:38:36Z</time>
      </trkpt>
      <trkpt lat="48.0774" lon="-4.56008">
        <ele>47.72</ele>
        <time>2017-05-25T14:38:39Z</time>
      </trkpt>
      <trkpt lat="48.07732" lon="-4.56002">
        <ele>47.72</ele>
        <time>2017-05-25T14:38:45Z</time>
      </trkpt>
      <trkpt lat="48.07725" lon="-4.56001">
        <ele>47.72</ele>
        <time>2017-05-25T14:39:00Z</time>
      </trkpt>
      <trkpt lat="48.07725" lon="-4.56">
        <ele>47.24</ele>
        <time>2017-05-25T14:39:17Z</time>
      </trkpt>
      <trkpt lat="48.07715" lon="-4.55988">
        <ele>47.24</ele>
        <time>2017-05-25T14:39:33Z</time>
      </trkpt>
      <trkpt lat="48.0772" lon="-4.55972">
        <ele>45.32</ele>
        <time>2017-05-25T14:39:43Z</time>
      </trkpt>
      <trkpt lat="48.0773" lon="-4.55957">
        <ele>41.95</ele>
        <time>2017-05-25T14:39:59Z</time>
      </trkpt>
      <trkpt lat="48.07736" lon="-4.55951">
        <ele>38.59</ele>
        <time>2017-05-25T14:40:09Z</time>
      </trkpt>
      <trkpt lat="48.07742" lon="-4.55938">
        <ele>36.67</ele>
        <time>2017-05-25T14:40:16Z</time>
      </trkpt>
      <trkpt lat="48.0774" lon="-4.55919">
        <ele>34.74</ele>
        <time>2017-05-25T14:40:29Z</time>
      </trkpt>
      <trkpt lat="48.07742" lon="-4.55911">
        <ele>34.74</ele>
        <time>2017-05-25T14:40:35Z</time>
      </trkpt>
      <trkpt lat="48.07744" lon="-4.55902">
        <ele>34.74</ele>
        <time>2017-05-25T14:40:40Z</time>
      </trkpt>
      <trkpt lat="48.07748" lon="-4.55892">
        <ele>35.71</ele>
        <time>2017-05-25T14:40:46Z</time>
      </trkpt>
      <trkpt lat="48.07753" lon="-4.55862">
        <ele>38.11</ele>
        <time>2017-05-25T14:41:01Z</time>
      </trkpt>
      <trkpt lat="48.07751" lon="-4.55852">
        <ele>39.07</ele>
        <time>2017-05-25T14:41:05Z</time>
      </trkpt>
      <trkpt lat="48.07752" lon="-4.55802">
        <ele>43.88</ele>
        <time>2017-05-25T14:41:20Z</time>
      </trkpt>
      <trkpt lat="48.07738" lon="-4.55775">
        <ele>42.44</ele>
        <time>2017-05-25T14:41:34Z</time>
      </trkpt>
      <trkpt lat="48.07723" lon="-4.5577">
        <ele>43.4</ele>
        <time>2017-05-25T14:41:48Z</time>
      </trkpt>
      <trkpt lat="48.07723" lon="-4.55768">
        <ele>43.88</ele>
        <time>2017-05-25T14:41:50Z</time>
      </trkpt>
      <trkpt lat="48.07733" lon="-4.55741">
        <ele>46.28</ele>
        <time>2017-05-25T14:42:04Z</time>
      </trkpt>
      <trkpt lat="48.07741" lon="-4.55731">
        <ele>45.8</ele>
        <time>2017-05-25T14:42:11Z</time>
      </trkpt>
      <trkpt lat="48.07757" lon="-4.55713">
        <ele>43.88</ele>
        <time>2017-05-25T14:42:26Z</time>
      </trkpt>
      <trkpt lat="48.07766" lon="-4.55695">
        <ele>41.47</ele>
        <time>2017-05-25T14:42:38Z</time>
      </trkpt>
      <trkpt lat="48.07776" lon="-4.55705">
        <ele>40.03</ele>
        <time>2017-05-25T14:42:48Z</time>
      </trkpt>
      <trkpt lat="48.0778" lon="-4.55703">
        <ele>40.51</ele>
        <time>2017-05-25T14:42:54Z</time>
      </trkpt>
      <trkpt lat="48.07793" lon="-4.55694">
        <ele>40.51</ele>
        <time>2017-05-25T14:43:04Z</time>
      </trkpt>
      <trkpt lat="48.0781" lon="-4.55693">
        <ele>40.51</ele>
        <time>2017-05-25T14:43:18Z</time>
      </trkpt>
      <trkpt lat="48.07813" lon="-4.55696">
        <ele>39.07</ele>
        <time>2017-05-25T14:43:22Z</time>
      </trkpt>
      <trkpt lat="48.07819" lon="-4.55707">
        <ele>35.71</ele>
        <time>2017-05-25T14:43:36Z</time>
      </trkpt>
      <trkpt lat="48.07822" lon="-4.55708">
        <ele>34.26</ele>
        <time>2017-05-25T14:43:40Z</time>
      </trkpt>
      <trkpt lat="48.0783" lon="-4.55712">
        <ele>28.5</ele>
        <time>2017-05-25T14:43:54Z</time>
      </trkpt>
      <trkpt lat="48.07832" lon="-4.55712">
        <ele>28.02</ele>
        <time>2017-05-25T14:43:56Z</time>
      </trkpt>
      <trkpt lat="48.07835" lon="-4.55715">
        <ele>27.05</ele>
        <time>2017-05-25T14:43:59Z</time>
      </trkpt>
      <trkpt lat="48.0784" lon="-4.55724">
        <ele>24.17</ele>
        <time>2017-05-25T14:44:08Z</time>
      </trkpt>
      <trkpt lat="48.07843" lon="-4.55726">
        <ele>22.73</ele>
        <time>2017-05-25T14:44:13Z</time>
      </trkpt>
      <trkpt lat="48.07846" lon="-4.55727">
        <ele>21.77</ele>
        <time>2017-05-25T14:44:30Z</time>
      </trkpt>
      <trkpt lat="48.07846" lon="-4.55727">
        <ele>21.77</ele>
        <time>2017-05-25T14:44:31Z</time>
      </trkpt>
      <trkpt lat="48.07845" lon="-4.55724">
        <ele>20.81</ele>
        <time>2017-05-25T14:44:49Z</time>
      </trkpt>
      <trkpt lat="48.07845" lon="-4.55725">
        <ele>20.32</ele>
        <time>2017-05-25T14:45:21Z</time>
      </trkpt>
      <trkpt lat="48.07845" lon="-4.55726">
        <ele>20.32</ele>
        <time>2017-05-25T14:46:00Z</time>
      </trkpt>
      <trkpt lat="48.07846" lon="-4.55725">
        <ele>19.84</ele>
        <time>2017-05-25T14:46:26Z</time>
      </trkpt>
      <trkpt lat="48.07847" lon="-4.55726">
        <ele>19.36</ele>
        <time>2017-05-25T14:46:55Z</time>
      </trkpt>
      <trkpt lat="48.07852" lon="-4.55716">
        <ele>18.88</ele>
        <time>2017-05-25T14:47:24Z</time>
      </trkpt>
      <trkpt lat="48.07849" lon="-4.55718">
        <ele>16.48</ele>
        <time>2017-05-25T14:47:59Z</time>
      </trkpt>
      <trkpt lat="48.07848" lon="-4.5572">
        <ele>16.96</ele>
        <time>2017-05-25T14:48:35Z</time>
      </trkpt>
      <trkpt lat="48.07847" lon="-4.55722">
        <ele>16.96</ele>
        <time>2017-05-25T14:49:12Z</time>
      </trkpt>
      <trkpt lat="48.07847" lon="-4.55723">
        <ele>17.44</ele>
        <time>2017-05-25T14:49:44Z</time>
      </trkpt>
      <trkpt lat="48.07842" lon="-4.55733">
        <ele>18.4</ele>
        <time>2017-05-25T14:50:15Z</time>
      </trkpt>
      <trkpt lat="48.07844" lon="-4.55727">
        <ele>16.96</ele>
        <time>2017-05-25T14:50:44Z</time>
      </trkpt>
      <trkpt lat="48.07843" lon="-4.55727">
        <ele>16.48</ele>
        <time>2017-05-25T14:51:31Z</time>
      </trkpt>
      <trkpt lat="48.0784" lon="-4.55721">
        <ele>16.96</ele>
        <time>2017-05-25T14:52:00Z</time>
      </trkpt>
      <trkpt lat="48.07842" lon="-4.55722">
        <ele>16.48</ele>
        <time>2017-05-25T14:52:30Z</time>
      </trkpt>
      <trkpt lat="48.07838" lon="-4.55722">
        <ele>15.04</ele>
        <time>2017-05-25T14:52:55Z</time>
      </trkpt>
      <trkpt lat="48.07843" lon="-4.55733">
        <ele>14.08</ele>
        <time>2017-05-25T14:53:19Z</time>
      </trkpt>
      <trkpt lat="48.07843" lon="-4.55726">
        <ele>16</ele>
        <time>2017-05-25T14:53:47Z</time>
      </trkpt>
      <trkpt lat="48.07846" lon="-4.55726">
        <ele>17.92</ele>
        <time>2017-05-25T14:54:22Z</time>
      </trkpt>
      <trkpt lat="48.07846" lon="-4.55723">
        <ele>17.92</ele>
        <time>2017-05-25T14:54:56Z</time>
      </trkpt>
      <trkpt lat="48.07846" lon="-4.55724">
        <ele>17.92</ele>
        <time>2017-05-25T14:55:39Z</time>
      </trkpt>
      <trkpt lat="48.07846" lon="-4.55724">
        <ele>18.4</ele>
        <time>2017-05-25T14:56:10Z</time>
      </trkpt>
      <trkpt lat="48.07845" lon="-4.55726">
        <ele>19.36</ele>
        <time>2017-05-25T14:56:32Z</time>
      </trkpt>
      <trkpt lat="48.07845" lon="-4.55727">
        <ele>19.36</ele>
        <time>2017-05-25T14:57:11Z</time>
      </trkpt>
      <trkpt lat="48.07845" lon="-4.55727">
        <ele>19.84</ele>
        <time>2017-05-25T14:57:42Z</time>
      </trkpt>
      <trkpt lat="48.07845" lon="-4.55726">
        <ele>21.77</ele>
        <time>2017-05-25T14:58:11Z</time>
      </trkpt>
      <trkpt lat="48.07844" lon="-4.55725">
        <ele>21.29</ele>
        <time>2017-05-25T14:58:31Z</time>
      </trkpt>
      <trkpt lat="48.07843" lon="-4.55727">
        <ele>20.81</ele>
        <time>2017-05-25T14:58:46Z</time>
      </trkpt>
      <trkpt lat="48.07841" lon="-4.55716">
        <ele>20.32</ele>
        <time>2017-05-25T14:59:01Z</time>
      </trkpt>
      <trkpt lat="48.07838" lon="-4.55708">
        <ele>21.29</ele>
        <time>2017-05-25T14:59:06Z</time>
      </trkpt>
      <trkpt lat="48.07832" lon="-4.55679">
        <ele>20.32</ele>
        <time>2017-05-25T14:59:19Z</time>
      </trkpt>
      <trkpt lat="48.07824" lon="-4.55658">
        <ele>21.29</ele>
        <time>2017-05-25T14:59:36Z</time>
      </trkpt>
      <trkpt lat="48.07828" lon="-4.55641">
        <ele>19.36</ele>
        <time>2017-05-25T14:59:47Z</time>
      </trkpt>
      <trkpt lat="48.07834" lon="-4.55613">
        <ele>19.36</ele>
        <time>2017-05-25T15:00:02Z</time>
      </trkpt>
      <trkpt lat="48.07833" lon="-4.55595">
        <ele>17.92</ele>
        <time>2017-05-25T15:00:12Z</time>
      </trkpt>
      <trkpt lat="48.07831" lon="-4.55589">
        <ele>16.48</ele>
        <time>2017-05-25T15:00:15Z</time>
      </trkpt>
      <trkpt lat="48.07824" lon="-4.55561">
        <ele>16</ele>
        <time>2017-05-25T15:00:28Z</time>
      </trkpt>
      <trkpt lat="48.07814" lon="-4.55546">
        <ele>16.96</ele>
        <time>2017-05-25T15:00:40Z</time>
      </trkpt>
      <trkpt lat="48.07803" lon="-4.55537">
        <ele>14.56</ele>
        <time>2017-05-25T15:00:55Z</time>
      </trkpt>
      <trkpt lat="48.07791" lon="-4.55523">
        <ele>12.63</ele>
        <time>2017-05-25T15:01:09Z</time>
      </trkpt>
      <trkpt lat="48.07779" lon="-4.55501">
        <ele>11.67</ele>
        <time>2017-05-25T15:01:21Z</time>
      </trkpt>
      <trkpt lat="48.07779" lon="-4.55499">
        <ele>11.67</ele>
        <time>2017-05-25T15:01:22Z</time>
      </trkpt>
      <trkpt lat="48.07766" lon="-4.55488">
        <ele>8.79</ele>
        <time>2017-05-25T15:01:37Z</time>
      </trkpt>
      <trkpt lat="48.07762" lon="-4.55478">
        <ele>11.67</ele>
        <time>2017-05-25T15:01:48Z</time>
      </trkpt>
      <trkpt lat="48.0776" lon="-4.55477">
        <ele>12.15</ele>
        <time>2017-05-25T15:01:49Z</time>
      </trkpt>
      <trkpt lat="48.07755" lon="-4.55477">
        <ele>14.08</ele>
        <time>2017-05-25T15:01:54Z</time>
      </trkpt>
      <trkpt lat="48.07745" lon="-4.55491">
        <ele>17.92</ele>
        <time>2017-05-25T15:02:09Z</time>
      </trkpt>
      <trkpt lat="48.07737" lon="-4.55497">
        <ele>21.29</ele>
        <time>2017-05-25T15:02:21Z</time>
      </trkpt>
      <trkpt lat="48.07733" lon="-4.55494">
        <ele>22.73</ele>
        <time>2017-05-25T15:02:25Z</time>
      </trkpt>
      <trkpt lat="48.07731" lon="-4.55485">
        <ele>21.77</ele>
        <time>2017-05-25T15:02:33Z</time>
      </trkpt>
      <trkpt lat="48.07717" lon="-4.55472">
        <ele>18.4</ele>
        <time>2017-05-25T15:02:46Z</time>
      </trkpt>
      <trkpt lat="48.07715" lon="-4.55466">
        <ele>17.44</ele>
        <time>2017-05-25T15:02:52Z</time>
      </trkpt>
      <trkpt lat="48.07713" lon="-4.55459">
        <ele>16.48</ele>
        <time>2017-05-25T15:02:56Z</time>
      </trkpt>
      <trkpt lat="48.07712" lon="-4.55456">
        <ele>16</ele>
        <time>2017-05-25T15:02:58Z</time>
      </trkpt>
      <trkpt lat="48.07708" lon="-4.55447">
        <ele>15.04</ele>
        <time>2017-05-25T15:03:04Z</time>
      </trkpt>
      <trkpt lat="48.07702" lon="-4.5544">
        <ele>14.56</ele>
        <time>2017-05-25T15:03:11Z</time>
      </trkpt>
      <trkpt lat="48.07694" lon="-4.55423">
        <ele>16.96</ele>
        <time>2017-05-25T15:03:25Z</time>
      </trkpt>
      <trkpt lat="48.07691" lon="-4.55415">
        <ele>18.88</ele>
        <time>2017-05-25T15:03:31Z</time>
      </trkpt>
      <trkpt lat="48.07691" lon="-4.55411">
        <ele>18.88</ele>
        <time>2017-05-25T15:03:33Z</time>
      </trkpt>
      <trkpt lat="48.07691" lon="-4.5539">
        <ele>18.88</ele>
        <time>2017-05-25T15:03:46Z</time>
      </trkpt>
      <trkpt lat="48.07691" lon="-4.55387">
        <ele>18.88</ele>
        <time>2017-05-25T15:03:48Z</time>
      </trkpt>
      <trkpt lat="48.07684" lon="-4.55357">
        <ele>15.52</ele>
        <time>2017-05-25T15:04:01Z</time>
      </trkpt>
      <trkpt lat="48.07674" lon="-4.55341">
        <ele>16.96</ele>
        <time>2017-05-25T15:04:12Z</time>
      </trkpt>
      <trkpt lat="48.0767" lon="-4.5533">
        <ele>16.96</ele>
        <time>2017-05-25T15:04:19Z</time>
      </trkpt>
      <trkpt lat="48.07669" lon="-4.5532">
        <ele>15.52</ele>
        <time>2017-05-25T15:04:25Z</time>
      </trkpt>
      <trkpt lat="48.07665" lon="-4.55313">
        <ele>13.6</ele>
        <time>2017-05-25T15:04:30Z</time>
      </trkpt>
      <trkpt lat="48.07659" lon="-4.55306">
        <ele>11.19</ele>
        <time>2017-05-25T15:04:36Z</time>
      </trkpt>
      <trkpt lat="48.07655" lon="-4.55304">
        <ele>10.23</ele>
        <time>2017-05-25T15:04:38Z</time>
      </trkpt>
      <trkpt lat="48.07649" lon="-4.55297">
        <ele>8.79</ele>
        <time>2017-05-25T15:04:45Z</time>
      </trkpt>
      <trkpt lat="48.07645" lon="-4.55296">
        <ele>8.31</ele>
        <time>2017-05-25T15:04:49Z</time>
      </trkpt>
      <trkpt lat="48.07634" lon="-4.55291">
        <ele>6.87</ele>
        <time>2017-05-25T15:04:58Z</time>
      </trkpt>
      <trkpt lat="48.07628" lon="-4.55288">
        <ele>7.83</ele>
        <time>2017-05-25T15:05:03Z</time>
      </trkpt>
      <trkpt lat="48.07621" lon="-4.55272">
        <ele>7.35</ele>
        <time>2017-05-25T15:05:14Z</time>
      </trkpt>
      <trkpt lat="48.07618" lon="-4.55265">
        <ele>6.39</ele>
        <time>2017-05-25T15:05:19Z</time>
      </trkpt>
      <trkpt lat="48.07608" lon="-4.55251">
        <ele>4.46</ele>
        <time>2017-05-25T15:05:33Z</time>
      </trkpt>
      <trkpt lat="48.07603" lon="-4.55249">
        <ele>3.98</ele>
        <time>2017-05-25T15:05:36Z</time>
      </trkpt>
      <trkpt lat="48.07597" lon="-4.55231">
        <ele>1.58</ele>
        <time>2017-05-25T15:05:52Z</time>
      </trkpt>
      <trkpt lat="48.07603" lon="-4.55207">
        <ele>-0.34</ele>
        <time>2017-05-25T15:06:09Z</time>
      </trkpt>
      <trkpt lat="48.07602" lon="-4.55204">
        <ele>-0.34</ele>
        <time>2017-05-25T15:06:23Z</time>
      </trkpt>
      <trkpt lat="48.07603" lon="-4.55202">
        <ele>-0.82</ele>
        <time>2017-05-25T15:06:42Z</time>
      </trkpt>
      <trkpt lat="48.07604" lon="-4.552">
        <ele>-0.82</ele>
        <time>2017-05-25T15:07:02Z</time>
      </trkpt>
      <trkpt lat="48.07604" lon="-4.55199">
        <ele>-0.82</ele>
        <time>2017-05-25T15:07:21Z</time>
      </trkpt>
      <trkpt lat="48.07604" lon="-4.55199">
        <ele>-1.3</ele>
        <time>2017-05-25T15:07:45Z</time>
      </trkpt>
      <trkpt lat="48.07604" lon="-4.55199">
        <ele>-1.3</ele>
        <time>2017-05-25T15:08:08Z</time>
      </trkpt>
      <trkpt lat="48.07602" lon="-4.55201">
        <ele>-1.79</ele>
        <time>2017-05-25T15:08:16Z</time>
      </trkpt>
      <trkpt lat="48.07599" lon="-4.55206">
        <ele>-1.79</ele>
        <time>2017-05-25T15:08:21Z</time>
      </trkpt>
      <trkpt lat="48.07588" lon="-4.55204">
        <ele>-2.27</ele>
        <time>2017-05-25T15:08:32Z</time>
      </trkpt>
      <trkpt lat="48.07588" lon="-4.55202">
        <ele>-2.27</ele>
        <time>2017-05-25T15:08:34Z</time>
      </trkpt>
      <trkpt lat="48.07592" lon="-4.55191">
        <ele>-3.71</ele>
        <time>2017-05-25T15:08:50Z</time>
      </trkpt>
      <trkpt lat="48.07591" lon="-4.55188">
        <ele>-1.3</ele>
        <time>2017-05-25T15:09:07Z</time>
      </trkpt>
      <trkpt lat="48.07595" lon="-4.5518">
        <ele>-0.34</ele>
        <time>2017-05-25T15:09:27Z</time>
      </trkpt>
      <trkpt lat="48.07599" lon="-4.55156">
        <ele>3.5</ele>
        <time>2017-05-25T15:09:43Z</time>
      </trkpt>
      <trkpt lat="48.07603" lon="-4.55148">
        <ele>7.35</ele>
        <time>2017-05-25T15:09:50Z</time>
      </trkpt>
      <trkpt lat="48.07613" lon="-4.55131">
        <ele>15.52</ele>
        <time>2017-05-25T15:10:08Z</time>
      </trkpt>
      <trkpt lat="48.07619" lon="-4.5512">
        <ele>18.4</ele>
        <time>2017-05-25T15:10:20Z</time>
      </trkpt>
      <trkpt lat="48.07632" lon="-4.55107">
        <ele>21.77</ele>
        <time>2017-05-25T15:10:40Z</time>
      </trkpt>
      <trkpt lat="48.07649" lon="-4.55108">
        <ele>27.05</ele>
        <time>2017-05-25T15:10:59Z</time>
      </trkpt>
      <trkpt lat="48.07657" lon="-4.55107">
        <ele>29.46</ele>
        <time>2017-05-25T15:11:09Z</time>
      </trkpt>
      <trkpt lat="48.07665" lon="-4.55086">
        <ele>34.74</ele>
        <time>2017-05-25T15:11:26Z</time>
      </trkpt>
      <trkpt lat="48.07674" lon="-4.55066">
        <ele>38.59</ele>
        <time>2017-05-25T15:11:44Z</time>
      </trkpt>
      <trkpt lat="48.07683" lon="-4.5505">
        <ele>41.47</ele>
        <time>2017-05-25T15:11:58Z</time>
      </trkpt>
      <trkpt lat="48.07685" lon="-4.55048">
        <ele>42.44</ele>
        <time>2017-05-25T15:12:02Z</time>
      </trkpt>
      <trkpt lat="48.07688" lon="-4.55045">
        <ele>43.4</ele>
        <time>2017-05-25T15:12:06Z</time>
      </trkpt>
      <trkpt lat="48.07692" lon="-4.55035">
        <ele>43.4</ele>
        <time>2017-05-25T15:12:14Z</time>
      </trkpt>
      <trkpt lat="48.07696" lon="-4.5502">
        <ele>45.32</ele>
        <time>2017-05-25T15:12:31Z</time>
      </trkpt>
      <trkpt lat="48.07696" lon="-4.5502">
        <ele>45.32</ele>
        <time>2017-05-25T15:13:06Z</time>
      </trkpt>
      <trkpt lat="48.07699" lon="-4.55015">
        <ele>45.8</ele>
        <time>2017-05-25T15:13:19Z</time>
      </trkpt>
      <trkpt lat="48.07708" lon="-4.54999">
        <ele>46.28</ele>
        <time>2017-05-25T15:13:33Z</time>
      </trkpt>
      <trkpt lat="48.07708" lon="-4.54995">
        <ele>45.8</ele>
        <time>2017-05-25T15:13:37Z</time>
      </trkpt>
      <trkpt lat="48.07711" lon="-4.5499">
        <ele>45.8</ele>
        <time>2017-05-25T15:13:41Z</time>
      </trkpt>
      <trkpt lat="48.07705" lon="-4.54972">
        <ele>44.36</ele>
        <time>2017-05-25T15:13:52Z</time>
      </trkpt>
      <trkpt lat="48.077" lon="-4.54958">
        <ele>43.4</ele>
        <time>2017-05-25T15:13:58Z</time>
      </trkpt>
      <trkpt lat="48.07696" lon="-4.54944">
        <ele>44.36</ele>
        <time>2017-05-25T15:14:07Z</time>
      </trkpt>
      <trkpt lat="48.07697" lon="-4.54931">
        <ele>43.88</ele>
        <time>2017-05-25T15:14:14Z</time>
      </trkpt>
      <trkpt lat="48.07699" lon="-4.54923">
        <ele>43.4</ele>
        <time>2017-05-25T15:14:18Z</time>
      </trkpt>
      <trkpt lat="48.07699" lon="-4.54918">
        <ele>43.4</ele>
        <time>2017-05-25T15:14:21Z</time>
      </trkpt>
      <trkpt lat="48.07698" lon="-4.54909">
        <ele>42.44</ele>
        <time>2017-05-25T15:14:25Z</time>
      </trkpt>
      <trkpt lat="48.07698" lon="-4.54901">
        <ele>42.44</ele>
        <time>2017-05-25T15:14:31Z</time>
      </trkpt>
      <trkpt lat="48.07699" lon="-4.54897">
        <ele>43.4</ele>
        <time>2017-05-25T15:14:33Z</time>
      </trkpt>
      <trkpt lat="48.07697" lon="-4.54873">
        <ele>39.55</ele>
        <time>2017-05-25T15:14:44Z</time>
      </trkpt>
      <trkpt lat="48.07704" lon="-4.54859">
        <ele>32.34</ele>
        <time>2017-05-25T15:14:59Z</time>
      </trkpt>
      <trkpt lat="48.07719" lon="-4.54869">
        <ele>27.05</ele>
        <time>2017-05-25T15:15:13Z</time>
      </trkpt>
      <trkpt lat="48.07723" lon="-4.5486">
        <ele>24.65</ele>
        <time>2017-05-25T15:15:23Z</time>
      </trkpt>
      <trkpt lat="48.07721" lon="-4.54849">
        <ele>24.65</ele>
        <time>2017-05-25T15:15:30Z</time>
      </trkpt>
      <trkpt lat="48.07725" lon="-4.54846">
        <ele>25.13</ele>
        <time>2017-05-25T15:15:34Z</time>
      </trkpt>
      <trkpt lat="48.07738" lon="-4.54835">
        <ele>24.17</ele>
        <time>2017-05-25T15:15:51Z</time>
      </trkpt>
      <trkpt lat="48.07743" lon="-4.54831">
        <ele>23.69</ele>
        <time>2017-05-25T15:15:58Z</time>
      </trkpt>
      <trkpt lat="48.07746" lon="-4.54829">
        <ele>25.13</ele>
        <time>2017-05-25T15:16:05Z</time>
      </trkpt>
      <trkpt lat="48.07744" lon="-4.54819">
        <ele>24.65</ele>
        <time>2017-05-25T15:16:17Z</time>
      </trkpt>
      <trkpt lat="48.07743" lon="-4.54814">
        <ele>24.65</ele>
        <time>2017-05-25T15:16:22Z</time>
      </trkpt>
      <trkpt lat="48.07744" lon="-4.54804">
        <ele>26.09</ele>
        <time>2017-05-25T15:16:29Z</time>
      </trkpt>
      <trkpt lat="48.0774" lon="-4.54783">
        <ele>27.53</ele>
        <time>2017-05-25T15:16:42Z</time>
      </trkpt>
      <trkpt lat="48.0774" lon="-4.54774">
        <ele>28.98</ele>
        <time>2017-05-25T15:16:47Z</time>
      </trkpt>
      <trkpt lat="48.07739" lon="-4.54769">
        <ele>29.94</ele>
        <time>2017-05-25T15:16:50Z</time>
      </trkpt>
      <trkpt lat="48.07738" lon="-4.54758">
        <ele>31.38</ele>
        <time>2017-05-25T15:16:57Z</time>
      </trkpt>
      <trkpt lat="48.07734" lon="-4.54744">
        <ele>31.86</ele>
        <time>2017-05-25T15:17:05Z</time>
      </trkpt>
      <trkpt lat="48.07731" lon="-4.54732">
        <ele>33.78</ele>
        <time>2017-05-25T15:17:12Z</time>
      </trkpt>
      <trkpt lat="48.0773" lon="-4.54722">
        <ele>35.23</ele>
        <time>2017-05-25T15:17:18Z</time>
      </trkpt>
      <trkpt lat="48.07732" lon="-4.54713">
        <ele>34.74</ele>
        <time>2017-05-25T15:17:22Z</time>
      </trkpt>
      <trkpt lat="48.07734" lon="-4.54701">
        <ele>34.74</ele>
        <time>2017-05-25T15:17:28Z</time>
      </trkpt>
      <trkpt lat="48.0773" lon="-4.54693">
        <ele>36.67</ele>
        <time>2017-05-25T15:17:33Z</time>
      </trkpt>
      <trkpt lat="48.07725" lon="-4.54679">
        <ele>38.59</ele>
        <time>2017-05-25T15:17:41Z</time>
      </trkpt>
      <trkpt lat="48.07719" lon="-4.54658">
        <ele>40.99</ele>
        <time>2017-05-25T15:17:56Z</time>
      </trkpt>
      <trkpt lat="48.07717" lon="-4.54651">
        <ele>40.99</ele>
        <time>2017-05-25T15:18:01Z</time>
      </trkpt>
      <trkpt lat="48.07715" lon="-4.54638">
        <ele>41.47</ele>
        <time>2017-05-25T15:18:09Z</time>
      </trkpt>
      <trkpt lat="48.07719" lon="-4.5461">
        <ele>45.32</ele>
        <time>2017-05-25T15:18:24Z</time>
      </trkpt>
      <trkpt lat="48.07719" lon="-4.54604">
        <ele>46.76</ele>
        <time>2017-05-25T15:18:28Z</time>
      </trkpt>
      <trkpt lat="48.07721" lon="-4.54597">
        <ele>47.72</ele>
        <time>2017-05-25T15:18:32Z</time>
      </trkpt>
      <trkpt lat="48.07726" lon="-4.54586">
        <ele>48.2</ele>
        <time>2017-05-25T15:18:37Z</time>
      </trkpt>
      <trkpt lat="48.07727" lon="-4.54578">
        <ele>49.16</ele>
        <time>2017-05-25T15:18:42Z</time>
      </trkpt>
      <trkpt lat="48.07734" lon="-4.54565">
        <ele>49.65</ele>
        <time>2017-05-25T15:18:51Z</time>
      </trkpt>
      <trkpt lat="48.07738" lon="-4.54558">
        <ele>49.65</ele>
        <time>2017-05-25T15:18:56Z</time>
      </trkpt>
      <trkpt lat="48.07749" lon="-4.5455">
        <ele>48.2</ele>
        <time>2017-05-25T15:19:10Z</time>
      </trkpt>
      <trkpt lat="48.07766" lon="-4.54555">
        <ele>48.68</ele>
        <time>2017-05-25T15:19:26Z</time>
      </trkpt>
      <trkpt lat="48.07765" lon="-4.54555">
        <ele>47.72</ele>
        <time>2017-05-25T15:19:57Z</time>
      </trkpt>
      <trkpt lat="48.07766" lon="-4.54554">
        <ele>47.24</ele>
        <time>2017-05-25T15:20:15Z</time>
      </trkpt>
      <trkpt lat="48.07767" lon="-4.54554">
        <ele>47.72</ele>
        <time>2017-05-25T15:20:32Z</time>
      </trkpt>
      <trkpt lat="48.07771" lon="-4.54554">
        <ele>47.72</ele>
        <time>2017-05-25T15:20:46Z</time>
      </trkpt>
      <trkpt lat="48.07772" lon="-4.54552">
        <ele>47.72</ele>
        <time>2017-05-25T15:20:48Z</time>
      </trkpt>
      <trkpt lat="48.07783" lon="-4.54548">
        <ele>47.72</ele>
        <time>2017-05-25T15:20:56Z</time>
      </trkpt>
      <trkpt lat="48.07785" lon="-4.54554">
        <ele>43.88</ele>
        <time>2017-05-25T15:21:08Z</time>
      </trkpt>
      <trkpt lat="48.07781" lon="-4.54561">
        <ele>40.51</ele>
        <time>2017-05-25T15:21:16Z</time>
      </trkpt>
      <trkpt lat="48.0779" lon="-4.54565">
        <ele>35.23</ele>
        <time>2017-05-25T15:21:31Z</time>
      </trkpt>
      <trkpt lat="48.07792" lon="-4.54564">
        <ele>34.74</ele>
        <time>2017-05-25T15:21:34Z</time>
      </trkpt>
      <trkpt lat="48.07797" lon="-4.54564">
        <ele>33.3</ele>
        <time>2017-05-25T15:21:38Z</time>
      </trkpt>
      <trkpt lat="48.07806" lon="-4.54568">
        <ele>30.9</ele>
        <time>2017-05-25T15:21:49Z</time>
      </trkpt>
      <trkpt lat="48.0782" lon="-4.5457">
        <ele>29.46</ele>
        <time>2017-05-25T15:22:01Z</time>
      </trkpt>
      <trkpt lat="48.07827" lon="-4.54571">
        <ele>28.98</ele>
        <time>2017-05-25T15:22:07Z</time>
      </trkpt>
      <trkpt lat="48.07831" lon="-4.54573">
        <ele>28.5</ele>
        <time>2017-05-25T15:22:10Z</time>
      </trkpt>
      <trkpt lat="48.07834" lon="-4.5457">
        <ele>27.05</ele>
        <time>2017-05-25T15:22:16Z</time>
      </trkpt>
      <trkpt lat="48.07826" lon="-4.54552">
        <ele>28.5</ele>
        <time>2017-05-25T15:22:27Z</time>
      </trkpt>
      <trkpt lat="48.07823" lon="-4.54536">
        <ele>31.86</ele>
        <time>2017-05-25T15:22:37Z</time>
      </trkpt>
      <trkpt lat="48.07823" lon="-4.54529">
        <ele>33.3</ele>
        <time>2017-05-25T15:22:41Z</time>
      </trkpt>
      <trkpt lat="48.07824" lon="-4.54517">
        <ele>34.74</ele>
        <time>2017-05-25T15:22:48Z</time>
      </trkpt>
      <trkpt lat="48.07826" lon="-4.54495">
        <ele>37.63</ele>
        <time>2017-05-25T15:23:02Z</time>
      </trkpt>
      <trkpt lat="48.07831" lon="-4.54484">
        <ele>39.07</ele>
        <time>2017-05-25T15:23:09Z</time>
      </trkpt>
      <trkpt lat="48.07842" lon="-4.54466">
        <ele>37.15</ele>
        <time>2017-05-25T15:23:25Z</time>
      </trkpt>
      <trkpt lat="48.07858" lon="-4.54454">
        <ele>33.3</ele>
        <time>2017-05-25T15:23:37Z</time>
      </trkpt>
      <trkpt lat="48.0786" lon="-4.54452">
        <ele>31.86</ele>
        <time>2017-05-25T15:23:42Z</time>
      </trkpt>
      <trkpt lat="48.07869" lon="-4.54442">
        <ele>30.42</ele>
        <time>2017-05-25T15:23:54Z</time>
      </trkpt>
      <trkpt lat="48.07872" lon="-4.54436">
        <ele>31.38</ele>
        <time>2017-05-25T15:24:02Z</time>
      </trkpt>
      <trkpt lat="48.07875" lon="-4.54439">
        <ele>32.34</ele>
        <time>2017-05-25T15:24:06Z</time>
      </trkpt>
      <trkpt lat="48.07883" lon="-4.54448">
        <ele>31.86</ele>
        <time>2017-05-25T15:24:20Z</time>
      </trkpt>
      <trkpt lat="48.07883" lon="-4.54449">
        <ele>31.38</ele>
        <time>2017-05-25T15:24:23Z</time>
      </trkpt>
      <trkpt lat="48.07893" lon="-4.54468">
        <ele>29.94</ele>
        <time>2017-05-25T15:24:36Z</time>
      </trkpt>
      <trkpt lat="48.07908" lon="-4.54486">
        <ele>29.46</ele>
        <time>2017-05-25T15:24:50Z</time>
      </trkpt>
      <trkpt lat="48.07923" lon="-4.54506">
        <ele>28.5</ele>
        <time>2017-05-25T15:25:06Z</time>
      </trkpt>
      <trkpt lat="48.07928" lon="-4.54512">
        <ele>29.46</ele>
        <time>2017-05-25T15:25:13Z</time>
      </trkpt>
      <trkpt lat="48.07941" lon="-4.54523">
        <ele>32.82</ele>
        <time>2017-05-25T15:25:28Z</time>
      </trkpt>
      <trkpt lat="48.07948" lon="-4.5453">
        <ele>34.26</ele>
        <time>2017-05-25T15:25:35Z</time>
      </trkpt>
      <trkpt lat="48.07958" lon="-4.5454">
        <ele>36.19</ele>
        <time>2017-05-25T15:25:46Z</time>
      </trkpt>
      <trkpt lat="48.07976" lon="-4.54545">
        <ele>34.74</ele>
        <time>2017-05-25T15:26:03Z</time>
      </trkpt>
      <trkpt lat="48.07987" lon="-4.54546">
        <ele>34.26</ele>
        <time>2017-05-25T15:26:13Z</time>
      </trkpt>
      <trkpt lat="48.07989" lon="-4.54547">
        <ele>34.26</ele>
        <time>2017-05-25T15:26:15Z</time>
      </trkpt>
      <trkpt lat="48.08003" lon="-4.54549">
        <ele>33.78</ele>
        <time>2017-05-25T15:26:28Z</time>
      </trkpt>
      <trkpt lat="48.08012" lon="-4.54551">
        <ele>34.74</ele>
        <time>2017-05-25T15:26:37Z</time>
      </trkpt>
      <trkpt lat="48.08016" lon="-4.54553">
        <ele>36.19</ele>
        <time>2017-05-25T15:26:41Z</time>
      </trkpt>
      <trkpt lat="48.08022" lon="-4.54542">
        <ele>38.11</ele>
        <time>2017-05-25T15:26:52Z</time>
      </trkpt>
      <trkpt lat="48.08023" lon="-4.54539">
        <ele>38.59</ele>
        <time>2017-05-25T15:26:54Z</time>
      </trkpt>
      <trkpt lat="48.08025" lon="-4.54532">
        <ele>40.51</ele>
        <time>2017-05-25T15:27:02Z</time>
      </trkpt>
      <trkpt lat="48.0803" lon="-4.54511">
        <ele>43.4</ele>
        <time>2017-05-25T15:27:15Z</time>
      </trkpt>
      <trkpt lat="48.08031" lon="-4.54509">
        <ele>43.88</ele>
        <time>2017-05-25T15:27:16Z</time>
      </trkpt>
      <trkpt lat="48.08037" lon="-4.5449">
        <ele>45.8</ele>
        <time>2017-05-25T15:27:29Z</time>
      </trkpt>
      <trkpt lat="48.08039" lon="-4.54485">
        <ele>45.8</ele>
        <time>2017-05-25T15:27:33Z</time>
      </trkpt>
      <trkpt lat="48.0804" lon="-4.54477">
        <ele>45.8</ele>
        <time>2017-05-25T15:27:37Z</time>
      </trkpt>
      <trkpt lat="48.0805" lon="-4.54453">
        <ele>45.8</ele>
        <time>2017-05-25T15:27:52Z</time>
      </trkpt>
      <trkpt lat="48.08061" lon="-4.54433">
        <ele>46.28</ele>
        <time>2017-05-25T15:28:06Z</time>
      </trkpt>
      <trkpt lat="48.08067" lon="-4.54419">
        <ele>49.16</ele>
        <time>2017-05-25T15:28:16Z</time>
      </trkpt>
      <trkpt lat="48.08074" lon="-4.54418">
        <ele>51.09</ele>
        <time>2017-05-25T15:28:24Z</time>
      </trkpt>
      <trkpt lat="48.08086" lon="-4.5443">
        <ele>51.09</ele>
        <time>2017-05-25T15:28:40Z</time>
      </trkpt>
      <trkpt lat="48.08087" lon="-4.5443">
        <ele>51.09</ele>
        <time>2017-05-25T15:28:41Z</time>
      </trkpt>
      <trkpt lat="48.08095" lon="-4.54429">
        <ele>49.65</ele>
        <time>2017-05-25T15:28:51Z</time>
      </trkpt>
      <trkpt lat="48.08097" lon="-4.54428">
        <ele>49.16</ele>
        <time>2017-05-25T15:29:04Z</time>
      </trkpt>
      <trkpt lat="48.08097" lon="-4.54429">
        <ele>49.65</ele>
        <time>2017-05-25T15:29:20Z</time>
      </trkpt>
      <trkpt lat="48.08097" lon="-4.54429">
        <ele>49.16</ele>
        <time>2017-05-25T15:29:46Z</time>
      </trkpt>
      <trkpt lat="48.08097" lon="-4.5443">
        <ele>48.68</ele>
        <time>2017-05-25T15:30:14Z</time>
      </trkpt>
      <trkpt lat="48.08102" lon="-4.54421">
        <ele>49.16</ele>
        <time>2017-05-25T15:30:34Z</time>
      </trkpt>
      <trkpt lat="48.08103" lon="-4.5442">
        <ele>49.16</ele>
        <time>2017-05-25T15:30:35Z</time>
      </trkpt>
      <trkpt lat="48.08103" lon="-4.54411">
        <ele>49.16</ele>
        <time>2017-05-25T15:30:41Z</time>
      </trkpt>
      <trkpt lat="48.08102" lon="-4.54396">
        <ele>48.68</ele>
        <time>2017-05-25T15:30:55Z</time>
      </trkpt>
      <trkpt lat="48.08104" lon="-4.54378">
        <ele>47.24</ele>
        <time>2017-05-25T15:31:05Z</time>
      </trkpt>
      <trkpt lat="48.08105" lon="-4.54373">
        <ele>46.76</ele>
        <time>2017-05-25T15:31:09Z</time>
      </trkpt>
      <trkpt lat="48.08105" lon="-4.54364">
        <ele>46.28</ele>
        <time>2017-05-25T15:31:14Z</time>
      </trkpt>
      <trkpt lat="48.08102" lon="-4.54354">
        <ele>46.28</ele>
        <time>2017-05-25T15:31:20Z</time>
      </trkpt>
      <trkpt lat="48.08102" lon="-4.5433">
        <ele>44.36</ele>
        <time>2017-05-25T15:31:33Z</time>
      </trkpt>
      <trkpt lat="48.08103" lon="-4.54314">
        <ele>42.44</ele>
        <time>2017-05-25T15:31:43Z</time>
      </trkpt>
      <trkpt lat="48.08105" lon="-4.54297">
        <ele>38.11</ele>
        <time>2017-05-25T15:31:53Z</time>
      </trkpt>
      <trkpt lat="48.08104" lon="-4.54285">
        <ele>37.15</ele>
        <time>2017-05-25T15:31:58Z</time>
      </trkpt>
      <trkpt lat="48.08099" lon="-4.54264">
        <ele>37.15</ele>
        <time>2017-05-25T15:32:10Z</time>
      </trkpt>
      <trkpt lat="48.08094" lon="-4.54254">
        <ele>38.59</ele>
        <time>2017-05-25T15:32:16Z</time>
      </trkpt>
      <trkpt lat="48.08091" lon="-4.54244">
        <ele>38.11</ele>
        <time>2017-05-25T15:32:22Z</time>
      </trkpt>
      <trkpt lat="48.08085" lon="-4.54224">
        <ele>38.59</ele>
        <time>2017-05-25T15:32:34Z</time>
      </trkpt>
      <trkpt lat="48.08088" lon="-4.54213">
        <ele>37.63</ele>
        <time>2017-05-25T15:32:40Z</time>
      </trkpt>
      <trkpt lat="48.08089" lon="-4.54208">
        <ele>37.63</ele>
        <time>2017-05-25T15:32:43Z</time>
      </trkpt>
      <trkpt lat="48.08091" lon="-4.54205">
        <ele>37.15</ele>
        <time>2017-05-25T15:32:45Z</time>
      </trkpt>
      <trkpt lat="48.08093" lon="-4.54198">
        <ele>37.63</ele>
        <time>2017-05-25T15:32:49Z</time>
      </trkpt>
      <trkpt lat="48.08103" lon="-4.54176">
        <ele>36.67</ele>
        <time>2017-05-25T15:33:03Z</time>
      </trkpt>
      <trkpt lat="48.08104" lon="-4.54156">
        <ele>35.23</ele>
        <time>2017-05-25T15:33:15Z</time>
      </trkpt>
      <trkpt lat="48.08105" lon="-4.54146">
        <ele>34.74</ele>
        <time>2017-05-25T15:33:19Z</time>
      </trkpt>
      <trkpt lat="48.08106" lon="-4.54141">
        <ele>34.26</ele>
        <time>2017-05-25T15:33:21Z</time>
      </trkpt>
      <trkpt lat="48.08106" lon="-4.54129">
        <ele>32.34</ele>
        <time>2017-05-25T15:33:29Z</time>
      </trkpt>
      <trkpt lat="48.08108" lon="-4.54107">
        <ele>29.94</ele>
        <time>2017-05-25T15:33:40Z</time>
      </trkpt>
      <trkpt lat="48.08106" lon="-4.54083">
        <ele>26.09</ele>
        <time>2017-05-25T15:33:54Z</time>
      </trkpt>
      <trkpt lat="48.081" lon="-4.54062">
        <ele>26.09</ele>
        <time>2017-05-25T15:34:05Z</time>
      </trkpt>
      <trkpt lat="48.08098" lon="-4.54047">
        <ele>26.57</ele>
        <time>2017-05-25T15:34:13Z</time>
      </trkpt>
      <trkpt lat="48.08093" lon="-4.54031">
        <ele>26.57</ele>
        <time>2017-05-25T15:34:23Z</time>
      </trkpt>
      <trkpt lat="48.08092" lon="-4.54028">
        <ele>26.57</ele>
        <time>2017-05-25T15:34:25Z</time>
      </trkpt>
      <trkpt lat="48.08094" lon="-4.54016">
        <ele>25.13</ele>
        <time>2017-05-25T15:34:38Z</time>
      </trkpt>
      <trkpt lat="48.08096" lon="-4.54014">
        <ele>25.13</ele>
        <time>2017-05-25T15:34:40Z</time>
      </trkpt>
      <trkpt lat="48.08096" lon="-4.54009">
        <ele>22.73</ele>
        <time>2017-05-25T15:34:53Z</time>
      </trkpt>
      <trkpt lat="48.08097" lon="-4.54008">
        <ele>22.25</ele>
        <time>2017-05-25T15:34:56Z</time>
      </trkpt>
      <trkpt lat="48.08105" lon="-4.54008">
        <ele>22.25</ele>
        <time>2017-05-25T15:35:03Z</time>
      </trkpt>
      <trkpt lat="48.08119" lon="-4.54029">
        <ele>21.29</ele>
        <time>2017-05-25T15:35:19Z</time>
      </trkpt>
      <trkpt lat="48.08138" lon="-4.54045">
        <ele>17.92</ele>
        <time>2017-05-25T15:35:34Z</time>
      </trkpt>
      <trkpt lat="48.08149" lon="-4.54051">
        <ele>15.04</ele>
        <time>2017-05-25T15:35:42Z</time>
      </trkpt>
      <trkpt lat="48.08156" lon="-4.54058">
        <ele>13.6</ele>
        <time>2017-05-25T15:35:46Z</time>
      </trkpt>
      <trkpt lat="48.08161" lon="-4.54063">
        <ele>12.63</ele>
        <time>2017-05-25T15:35:53Z</time>
      </trkpt>
      <trkpt lat="48.08176" lon="-4.54083">
        <ele>15.04</ele>
        <time>2017-05-25T15:36:10Z</time>
      </trkpt>
      <trkpt lat="48.08189" lon="-4.54089">
        <ele>18.88</ele>
        <time>2017-05-25T15:36:23Z</time>
      </trkpt>
      <trkpt lat="48.08205" lon="-4.54095">
        <ele>23.21</ele>
        <time>2017-05-25T15:36:37Z</time>
      </trkpt>
      <trkpt lat="48.08213" lon="-4.54096">
        <ele>24.17</ele>
        <time>2017-05-25T15:36:43Z</time>
      </trkpt>
      <trkpt lat="48.0823" lon="-4.54097">
        <ele>27.53</ele>
        <time>2017-05-25T15:36:59Z</time>
      </trkpt>
      <trkpt lat="48.08241" lon="-4.54105">
        <ele>28.98</ele>
        <time>2017-05-25T15:37:11Z</time>
      </trkpt>
      <trkpt lat="48.08242" lon="-4.54105">
        <ele>28.98</ele>
        <time>2017-05-25T15:37:12Z</time>
      </trkpt>
      <trkpt lat="48.08248" lon="-4.54105">
        <ele>30.42</ele>
        <time>2017-05-25T15:37:17Z</time>
      </trkpt>
      <trkpt lat="48.08264" lon="-4.54105">
        <ele>33.78</ele>
        <time>2017-05-25T15:37:31Z</time>
      </trkpt>
      <trkpt lat="48.0828" lon="-4.54099">
        <ele>35.23</ele>
        <time>2017-05-25T15:37:46Z</time>
      </trkpt>
      <trkpt lat="48.08283" lon="-4.54097">
        <ele>35.71</ele>
        <time>2017-05-25T15:37:49Z</time>
      </trkpt>
      <trkpt lat="48.08287" lon="-4.54097">
        <ele>35.71</ele>
        <time>2017-05-25T15:37:54Z</time>
      </trkpt>
      <trkpt lat="48.08292" lon="-4.54097">
        <ele>36.67</ele>
        <time>2017-05-25T15:37:58Z</time>
      </trkpt>
      <trkpt lat="48.08307" lon="-4.54095">
        <ele>38.59</ele>
        <time>2017-05-25T15:38:11Z</time>
      </trkpt>
      <trkpt lat="48.08323" lon="-4.54102">
        <ele>41.47</ele>
        <time>2017-05-25T15:38:25Z</time>
      </trkpt>
      <trkpt lat="48.08328" lon="-4.54099">
        <ele>44.84</ele>
        <time>2017-05-25T15:38:41Z</time>
      </trkpt>
      <trkpt lat="48.08328" lon="-4.54099">
        <ele>44.84</ele>
        <time>2017-05-25T15:38:42Z</time>
      </trkpt>
      <trkpt lat="48.08328" lon="-4.54093">
        <ele>45.8</ele>
        <time>2017-05-25T15:38:48Z</time>
      </trkpt>
      <trkpt lat="48.08327" lon="-4.5409">
        <ele>46.28</ele>
        <time>2017-05-25T15:38:50Z</time>
      </trkpt>
      <trkpt lat="48.08327" lon="-4.54084">
        <ele>46.28</ele>
        <time>2017-05-25T15:39:03Z</time>
      </trkpt>
      <trkpt lat="48.08328" lon="-4.5408">
        <ele>46.76</ele>
        <time>2017-05-25T15:39:07Z</time>
      </trkpt>
      <trkpt lat="48.08329" lon="-4.54078">
        <ele>47.72</ele>
        <time>2017-05-25T15:39:26Z</time>
      </trkpt>
      <trkpt lat="48.08329" lon="-4.54077">
        <ele>48.2</ele>
        <time>2017-05-25T15:39:48Z</time>
      </trkpt>
      <trkpt lat="48.08329" lon="-4.54077">
        <ele>48.2</ele>
        <time>2017-05-25T15:40:08Z</time>
      </trkpt>
      <trkpt lat="48.08328" lon="-4.54071">
        <ele>48.2</ele>
        <time>2017-05-25T15:40:29Z</time>
      </trkpt>
      <trkpt lat="48.08328" lon="-4.54071">
        <ele>48.2</ele>
        <time>2017-05-25T15:40:57Z</time>
      </trkpt>
      <trkpt lat="48.08328" lon="-4.54051">
        <ele>46.76</ele>
        <time>2017-05-25T15:41:15Z</time>
      </trkpt>
      <trkpt lat="48.08332" lon="-4.54022">
        <ele>48.68</ele>
        <time>2017-05-25T15:41:31Z</time>
      </trkpt>
      <trkpt lat="48.08334" lon="-4.54018">
        <ele>49.16</ele>
        <time>2017-05-25T15:41:33Z</time>
      </trkpt>
      <trkpt lat="48.08346" lon="-4.53989">
        <ele>48.2</ele>
        <time>2017-05-25T15:41:48Z</time>
      </trkpt>
      <trkpt lat="48.08347" lon="-4.53987">
        <ele>48.2</ele>
        <time>2017-05-25T15:41:49Z</time>
      </trkpt>
      <trkpt lat="48.08351" lon="-4.53978">
        <ele>47.72</ele>
        <time>2017-05-25T15:41:56Z</time>
      </trkpt>
      <trkpt lat="48.08369" lon="-4.53962">
        <ele>49.16</ele>
        <time>2017-05-25T15:42:15Z</time>
      </trkpt>
      <trkpt lat="48.08383" lon="-4.53955">
        <ele>51.57</ele>
        <time>2017-05-25T15:42:30Z</time>
      </trkpt>
      <trkpt lat="48.08384" lon="-4.53954">
        <ele>52.05</ele>
        <time>2017-05-25T15:42:31Z</time>
      </trkpt>
      <trkpt lat="48.08392" lon="-4.53951">
        <ele>52.53</ele>
        <time>2017-05-25T15:42:37Z</time>
      </trkpt>
      <trkpt lat="48.08416" lon="-4.53943">
        <ele>54.93</ele>
        <time>2017-05-25T15:42:56Z</time>
      </trkpt>
      <trkpt lat="48.08436" lon="-4.53932">
        <ele>55.41</ele>
        <time>2017-05-25T15:43:12Z</time>
      </trkpt>
      <trkpt lat="48.08445" lon="-4.53934">
        <ele>54.93</ele>
        <time>2017-05-25T15:43:19Z</time>
      </trkpt>
      <trkpt lat="48.08451" lon="-4.53937">
        <ele>54.93</ele>
        <time>2017-05-25T15:43:25Z</time>
      </trkpt>
      <trkpt lat="48.08474" lon="-4.53943">
        <ele>51.57</ele>
        <time>2017-05-25T15:43:43Z</time>
      </trkpt>
      <trkpt lat="48.08495" lon="-4.53948">
        <ele>50.61</ele>
        <time>2017-05-25T15:43:59Z</time>
      </trkpt>
      <trkpt lat="48.08512" lon="-4.53956">
        <ele>49.16</ele>
        <time>2017-05-25T15:44:13Z</time>
      </trkpt>
      <trkpt lat="48.08514" lon="-4.53956">
        <ele>49.16</ele>
        <time>2017-05-25T15:44:14Z</time>
      </trkpt>
      <trkpt lat="48.08516" lon="-4.53954">
        <ele>48.68</ele>
        <time>2017-05-25T15:44:17Z</time>
      </trkpt>
      <trkpt lat="48.08518" lon="-4.53948">
        <ele>48.2</ele>
        <time>2017-05-25T15:44:21Z</time>
      </trkpt>
      <trkpt lat="48.08519" lon="-4.53923">
        <ele>45.32</ele>
        <time>2017-05-25T15:44:38Z</time>
      </trkpt>
      <trkpt lat="48.08519" lon="-4.5391">
        <ele>43.4</ele>
        <time>2017-05-25T15:44:46Z</time>
      </trkpt>
      <trkpt lat="48.08521" lon="-4.53898">
        <ele>42.92</ele>
        <time>2017-05-25T15:45:05Z</time>
      </trkpt>
      <trkpt lat="48.08521" lon="-4.53898">
        <ele>42.44</ele>
        <time>2017-05-25T15:45:25Z</time>
      </trkpt>
      <trkpt lat="48.08521" lon="-4.53897">
        <ele>42.92</ele>
        <time>2017-05-25T15:45:26Z</time>
      </trkpt>
      <trkpt lat="48.0852" lon="-4.53882">
        <ele>42.44</ele>
        <time>2017-05-25T15:45:32Z</time>
      </trkpt>
      <trkpt lat="48.08528" lon="-4.53847">
        <ele>39.55</ele>
        <time>2017-05-25T15:45:47Z</time>
      </trkpt>
      <trkpt lat="48.08545" lon="-4.53837">
        <ele>37.15</ele>
        <time>2017-05-25T15:45:58Z</time>
      </trkpt>
      <trkpt lat="48.08568" lon="-4.53857">
        <ele>37.15</ele>
        <time>2017-05-25T15:46:13Z</time>
      </trkpt>
      <trkpt lat="48.08573" lon="-4.53874">
        <ele>39.07</ele>
        <time>2017-05-25T15:46:30Z</time>
      </trkpt>
      <trkpt lat="48.08573" lon="-4.53875">
        <ele>39.07</ele>
        <time>2017-05-25T15:46:31Z</time>
      </trkpt>
      <trkpt lat="48.08581" lon="-4.53894">
        <ele>37.15</ele>
        <time>2017-05-25T15:46:45Z</time>
      </trkpt>
      <trkpt lat="48.08584" lon="-4.53903">
        <ele>35.23</ele>
        <time>2017-05-25T15:46:53Z</time>
      </trkpt>
      <trkpt lat="48.08586" lon="-4.53918">
        <ele>34.74</ele>
        <time>2017-05-25T15:47:05Z</time>
      </trkpt>
      <trkpt lat="48.08591" lon="-4.53928">
        <ele>34.26</ele>
        <time>2017-05-25T15:47:14Z</time>
      </trkpt>
      <trkpt lat="48.08612" lon="-4.5394">
        <ele>33.78</ele>
        <time>2017-05-25T15:47:30Z</time>
      </trkpt>
      <trkpt lat="48.08614" lon="-4.5394">
        <ele>33.78</ele>
        <time>2017-05-25T15:47:32Z</time>
      </trkpt>
      <trkpt lat="48.08619" lon="-4.53941">
        <ele>33.78</ele>
        <time>2017-05-25T15:47:36Z</time>
      </trkpt>
      <trkpt lat="48.08634" lon="-4.53944">
        <ele>33.78</ele>
        <time>2017-05-25T15:47:51Z</time>
      </trkpt>
      <trkpt lat="48.08642" lon="-4.5394">
        <ele>32.82</ele>
        <time>2017-05-25T15:48:04Z</time>
      </trkpt>
      <trkpt lat="48.08653" lon="-4.53928">
        <ele>32.82</ele>
        <time>2017-05-25T15:48:18Z</time>
      </trkpt>
      <trkpt lat="48.08659" lon="-4.53923">
        <ele>33.3</ele>
        <time>2017-05-25T15:48:24Z</time>
      </trkpt>
      <trkpt lat="48.08677" lon="-4.53915">
        <ele>33.3</ele>
        <time>2017-05-25T15:48:39Z</time>
      </trkpt>
      <trkpt lat="48.08698" lon="-4.53912">
        <ele>32.34</ele>
        <time>2017-05-25T15:48:57Z</time>
      </trkpt>
      <trkpt lat="48.08718" lon="-4.53909">
        <ele>34.74</ele>
        <time>2017-05-25T15:49:15Z</time>
      </trkpt>
      <trkpt lat="48.08721" lon="-4.53911">
        <ele>35.23</ele>
        <time>2017-05-25T15:49:18Z</time>
      </trkpt>
      <trkpt lat="48.08725" lon="-4.53912">
        <ele>38.11</ele>
        <time>2017-05-25T15:49:35Z</time>
      </trkpt>
      <trkpt lat="48.08725" lon="-4.53912">
        <ele>38.59</ele>
        <time>2017-05-25T15:49:49Z</time>
      </trkpt>
      <trkpt lat="48.08725" lon="-4.53912">
        <ele>39.07</ele>
        <time>2017-05-25T15:50:11Z</time>
      </trkpt>
      <trkpt lat="48.08724" lon="-4.53913">
        <ele>40.03</ele>
        <time>2017-05-25T15:50:43Z</time>
      </trkpt>
      <trkpt lat="48.08724" lon="-4.53913">
        <ele>39.55</ele>
        <time>2017-05-25T15:51:08Z</time>
      </trkpt>
      <trkpt lat="48.08724" lon="-4.53913">
        <ele>39.55</ele>
        <time>2017-05-25T15:51:40Z</time>
      </trkpt>
      <trkpt lat="48.08724" lon="-4.53913">
        <ele>39.55</ele>
        <time>2017-05-25T15:52:16Z</time>
      </trkpt>
      <trkpt lat="48.08725" lon="-4.53913">
        <ele>39.55</ele>
        <time>2017-05-25T15:52:52Z</time>
      </trkpt>
      <trkpt lat="48.08725" lon="-4.53913">
        <ele>39.55</ele>
        <time>2017-05-25T15:53:21Z</time>
      </trkpt>
      <trkpt lat="48.08726" lon="-4.53909">
        <ele>40.03</ele>
        <time>2017-05-25T15:53:24Z</time>
      </trkpt>
      <trkpt lat="48.08732" lon="-4.53902">
        <ele>41.47</ele>
        <time>2017-05-25T15:53:31Z</time>
      </trkpt>
      <trkpt lat="48.08738" lon="-4.53891">
        <ele>42.92</ele>
        <time>2017-05-25T15:53:40Z</time>
      </trkpt>
      <trkpt lat="48.08744" lon="-4.53873">
        <ele>43.88</ele>
        <time>2017-05-25T15:53:51Z</time>
      </trkpt>
      <trkpt lat="48.08746" lon="-4.53859">
        <ele>44.36</ele>
        <time>2017-05-25T15:54:00Z</time>
      </trkpt>
      <trkpt lat="48.08752" lon="-4.53832">
        <ele>43.88</ele>
        <time>2017-05-25T15:54:15Z</time>
      </trkpt>
      <trkpt lat="48.08755" lon="-4.53821">
        <ele>43.4</ele>
        <time>2017-05-25T15:54:19Z</time>
      </trkpt>
      <trkpt lat="48.0876" lon="-4.53802">
        <ele>44.84</ele>
        <time>2017-05-25T15:54:31Z</time>
      </trkpt>
      <trkpt lat="48.0877" lon="-4.53782">
        <ele>47.24</ele>
        <time>2017-05-25T15:54:45Z</time>
      </trkpt>
      <trkpt lat="48.08773" lon="-4.53775">
        <ele>48.68</ele>
        <time>2017-05-25T15:54:50Z</time>
      </trkpt>
      <trkpt lat="48.08777" lon="-4.53763">
        <ele>50.61</ele>
        <time>2017-05-25T15:54:58Z</time>
      </trkpt>
      <trkpt lat="48.08779" lon="-4.5376">
        <ele>51.09</ele>
        <time>2017-05-25T15:55:01Z</time>
      </trkpt>
      <trkpt lat="48.08789" lon="-4.5374">
        <ele>53.49</ele>
        <time>2017-05-25T15:55:15Z</time>
      </trkpt>
      <trkpt lat="48.08796" lon="-4.5372">
        <ele>57.82</ele>
        <time>2017-05-25T15:55:27Z</time>
      </trkpt>
      <trkpt lat="48.08798" lon="-4.53711">
        <ele>59.74</ele>
        <time>2017-05-25T15:55:32Z</time>
      </trkpt>
      <trkpt lat="48.08801" lon="-4.53676">
        <ele>61.18</ele>
        <time>2017-05-25T15:55:52Z</time>
      </trkpt>
      <trkpt lat="48.088" lon="-4.53657">
        <ele>61.66</ele>
        <time>2017-05-25T15:56:02Z</time>
      </trkpt>
      <trkpt lat="48.088" lon="-4.53623">
        <ele>64.55</ele>
        <time>2017-05-25T15:56:23Z</time>
      </trkpt>
      <trkpt lat="48.08808" lon="-4.53605">
        <ele>59.74</ele>
        <time>2017-05-25T15:56:35Z</time>
      </trkpt>
      <trkpt lat="48.0881" lon="-4.53596">
        <ele>56.86</ele>
        <time>2017-05-25T15:56:42Z</time>
      </trkpt>
      <trkpt lat="48.08821" lon="-4.53568">
        <ele>55.89</ele>
        <time>2017-05-25T15:56:58Z</time>
      </trkpt>
      <trkpt lat="48.08822" lon="-4.53566">
        <ele>55.89</ele>
        <time>2017-05-25T15:56:59Z</time>
      </trkpt>
      <trkpt lat="48.08831" lon="-4.53547">
        <ele>53.49</ele>
        <time>2017-05-25T15:57:12Z</time>
      </trkpt>
      <trkpt lat="48.08834" lon="-4.5354">
        <ele>53.01</ele>
        <time>2017-05-25T15:57:16Z</time>
      </trkpt>
      <trkpt lat="48.08835" lon="-4.53537">
        <ele>53.01</ele>
        <time>2017-05-25T15:57:18Z</time>
      </trkpt>
      <trkpt lat="48.0884" lon="-4.53529">
        <ele>52.05</ele>
        <time>2017-05-25T15:57:24Z</time>
      </trkpt>
      <trkpt lat="48.08842" lon="-4.53521">
        <ele>52.53</ele>
        <time>2017-05-25T15:57:31Z</time>
      </trkpt>
      <trkpt lat="48.08843" lon="-4.53522">
        <ele>53.01</ele>
        <time>2017-05-25T15:57:47Z</time>
      </trkpt>
      <trkpt lat="48.08842" lon="-4.53528">
        <ele>52.53</ele>
        <time>2017-05-25T15:58:03Z</time>
      </trkpt>
      <trkpt lat="48.08841" lon="-4.53527">
        <ele>52.53</ele>
        <time>2017-05-25T15:58:23Z</time>
      </trkpt>
      <trkpt lat="48.08841" lon="-4.53527">
        <ele>52.53</ele>
        <time>2017-05-25T15:58:29Z</time>
      </trkpt>
      <trkpt lat="48.08845" lon="-4.53514">
        <ele>51.57</ele>
        <time>2017-05-25T15:58:42Z</time>
      </trkpt>
      <trkpt lat="48.08842" lon="-4.53486">
        <ele>50.13</ele>
        <time>2017-05-25T15:58:57Z</time>
      </trkpt>
      <trkpt lat="48.0884" lon="-4.53481">
        <ele>50.13</ele>
        <time>2017-05-25T15:59:01Z</time>
      </trkpt>
      <trkpt lat="48.08838" lon="-4.53472">
        <ele>50.13</ele>
        <time>2017-05-25T15:59:07Z</time>
      </trkpt>
      <trkpt lat="48.08833" lon="-4.53448">
        <ele>50.61</ele>
        <time>2017-05-25T15:59:20Z</time>
      </trkpt>
      <trkpt lat="48.08828" lon="-4.53434">
        <ele>50.13</ele>
        <time>2017-05-25T15:59:29Z</time>
      </trkpt>
      <trkpt lat="48.08828" lon="-4.53417">
        <ele>50.13</ele>
        <time>2017-05-25T15:59:41Z</time>
      </trkpt>
      <trkpt lat="48.08826" lon="-4.53403">
        <ele>49.16</ele>
        <time>2017-05-25T15:59:47Z</time>
      </trkpt>
      <trkpt lat="48.08822" lon="-4.5338">
        <ele>46.76</ele>
        <time>2017-05-25T16:00:02Z</time>
      </trkpt>
      <trkpt lat="48.08818" lon="-4.53367">
        <ele>45.8</ele>
        <time>2017-05-25T16:00:15Z</time>
      </trkpt>
      <trkpt lat="48.08818" lon="-4.53364">
        <ele>45.32</ele>
        <time>2017-05-25T16:00:19Z</time>
      </trkpt>
      <trkpt lat="48.08817" lon="-4.53357">
        <ele>44.84</ele>
        <time>2017-05-25T16:00:25Z</time>
      </trkpt>
      <trkpt lat="48.08811" lon="-4.53346">
        <ele>43.4</ele>
        <time>2017-05-25T16:00:36Z</time>
      </trkpt>
      <trkpt lat="48.0881" lon="-4.53335">
        <ele>41.95</ele>
        <time>2017-05-25T16:00:47Z</time>
      </trkpt>
      <trkpt lat="48.0881" lon="-4.53331">
        <ele>40.99</ele>
        <time>2017-05-25T16:00:54Z</time>
      </trkpt>
      <trkpt lat="48.08806" lon="-4.53323">
        <ele>40.03</ele>
        <time>2017-05-25T16:01:00Z</time>
      </trkpt>
      <trkpt lat="48.08797" lon="-4.53316">
        <ele>36.19</ele>
        <time>2017-05-25T16:01:14Z</time>
      </trkpt>
      <trkpt lat="48.0879" lon="-4.53311">
        <ele>33.3</ele>
        <time>2017-05-25T16:01:28Z</time>
      </trkpt>
      <trkpt lat="48.08789" lon="-4.5331">
        <ele>32.34</ele>
        <time>2017-05-25T16:01:30Z</time>
      </trkpt>
      <trkpt lat="48.0878" lon="-4.53308">
        <ele>28.98</ele>
        <time>2017-05-25T16:01:36Z</time>
      </trkpt>
      <trkpt lat="48.08773" lon="-4.53309">
        <ele>25.61</ele>
        <time>2017-05-25T16:01:43Z</time>
      </trkpt>
      <trkpt lat="48.08763" lon="-4.5331">
        <ele>24.17</ele>
        <time>2017-05-25T16:01:50Z</time>
      </trkpt>
      <trkpt lat="48.08745" lon="-4.53321">
        <ele>25.13</ele>
        <time>2017-05-25T16:02:09Z</time>
      </trkpt>
      <trkpt lat="48.08725" lon="-4.53327">
        <ele>28.02</ele>
        <time>2017-05-25T16:02:26Z</time>
      </trkpt>
      <trkpt lat="48.0872" lon="-4.5333">
        <ele>29.94</ele>
        <time>2017-05-25T16:02:30Z</time>
      </trkpt>
      <trkpt lat="48.08702" lon="-4.53338">
        <ele>34.74</ele>
        <time>2017-05-25T16:02:46Z</time>
      </trkpt>
      <trkpt lat="48.08695" lon="-4.53339">
        <ele>36.19</ele>
        <time>2017-05-25T16:02:52Z</time>
      </trkpt>
      <trkpt lat="48.08671" lon="-4.53322">
        <ele>41.95</ele>
        <time>2017-05-25T16:03:09Z</time>
      </trkpt>
      <trkpt lat="48.08656" lon="-4.53301">
        <ele>42.92</ele>
        <time>2017-05-25T16:03:27Z</time>
      </trkpt>
      <trkpt lat="48.08652" lon="-4.53275">
        <ele>41.47</ele>
        <time>2017-05-25T16:03:42Z</time>
      </trkpt>
      <trkpt lat="48.08649" lon="-4.53264">
        <ele>40.03</ele>
        <time>2017-05-25T16:03:51Z</time>
      </trkpt>
      <trkpt lat="48.08644" lon="-4.5325">
        <ele>38.59</ele>
        <time>2017-05-25T16:03:59Z</time>
      </trkpt>
      <trkpt lat="48.08642" lon="-4.53228">
        <ele>37.15</ele>
        <time>2017-05-25T16:04:12Z</time>
      </trkpt>
      <trkpt lat="48.08642" lon="-4.53224">
        <ele>36.19</ele>
        <time>2017-05-25T16:04:15Z</time>
      </trkpt>
      <trkpt lat="48.0864" lon="-4.53218">
        <ele>35.23</ele>
        <time>2017-05-25T16:04:19Z</time>
      </trkpt>
      <trkpt lat="48.08639" lon="-4.5321">
        <ele>33.78</ele>
        <time>2017-05-25T16:04:23Z</time>
      </trkpt>
      <trkpt lat="48.08637" lon="-4.53205">
        <ele>33.78</ele>
        <time>2017-05-25T16:04:26Z</time>
      </trkpt>
      <trkpt lat="48.0863" lon="-4.53176">
        <ele>32.82</ele>
        <time>2017-05-25T16:04:42Z</time>
      </trkpt>
      <trkpt lat="48.0863" lon="-4.53173">
        <ele>32.34</ele>
        <time>2017-05-25T16:04:44Z</time>
      </trkpt>
      <trkpt lat="48.08629" lon="-4.53164">
        <ele>30.42</ele>
        <time>2017-05-25T16:04:51Z</time>
      </trkpt>
      <trkpt lat="48.08628" lon="-4.53159">
        <ele>29.94</ele>
        <time>2017-05-25T16:04:54Z</time>
      </trkpt>
      <trkpt lat="48.08624" lon="-4.53138">
        <ele>29.46</ele>
        <time>2017-05-25T16:05:06Z</time>
      </trkpt>
      <trkpt lat="48.08617" lon="-4.53111">
        <ele>29.46</ele>
        <time>2017-05-25T16:05:22Z</time>
      </trkpt>
      <trkpt lat="48.08616" lon="-4.531">
        <ele>28.5</ele>
        <time>2017-05-25T16:05:28Z</time>
      </trkpt>
      <trkpt lat="48.08617" lon="-4.53094">
        <ele>28.02</ele>
        <time>2017-05-25T16:05:31Z</time>
      </trkpt>
      <trkpt lat="48.08614" lon="-4.53083">
        <ele>28.02</ele>
        <time>2017-05-25T16:05:37Z</time>
      </trkpt>
      <trkpt lat="48.08624" lon="-4.53054">
        <ele>25.61</ele>
        <time>2017-05-25T16:05:53Z</time>
      </trkpt>
      <trkpt lat="48.08631" lon="-4.53038">
        <ele>25.61</ele>
        <time>2017-05-25T16:06:00Z</time>
      </trkpt>
      <trkpt lat="48.08636" lon="-4.53032">
        <ele>26.09</ele>
        <time>2017-05-25T16:06:05Z</time>
      </trkpt>
      <trkpt lat="48.08638" lon="-4.53025">
        <ele>25.13</ele>
        <time>2017-05-25T16:06:22Z</time>
      </trkpt>
      <trkpt lat="48.08637" lon="-4.53025">
        <ele>24.17</ele>
        <time>2017-05-25T16:06:41Z</time>
      </trkpt>
      <trkpt lat="48.08638" lon="-4.53024">
        <ele>24.17</ele>
        <time>2017-05-25T16:07:01Z</time>
      </trkpt>
      <trkpt lat="48.08656" lon="-4.52985">
        <ele>23.21</ele>
        <time>2017-05-25T16:07:18Z</time>
      </trkpt>
      <trkpt lat="48.08659" lon="-4.52975">
        <ele>22.73</ele>
        <time>2017-05-25T16:07:23Z</time>
      </trkpt>
      <trkpt lat="48.08656" lon="-4.52971">
        <ele>22.73</ele>
        <time>2017-05-25T16:07:28Z</time>
      </trkpt>
      <trkpt lat="48.08645" lon="-4.52962">
        <ele>25.13</ele>
        <time>2017-05-25T16:07:38Z</time>
      </trkpt>
      <trkpt lat="48.08645" lon="-4.52954">
        <ele>26.09</ele>
        <time>2017-05-25T16:07:45Z</time>
      </trkpt>
      <trkpt lat="48.08644" lon="-4.52953">
        <ele>26.57</ele>
        <time>2017-05-25T16:07:48Z</time>
      </trkpt>
      <trkpt lat="48.08652" lon="-4.52951">
        <ele>27.05</ele>
        <time>2017-05-25T16:07:55Z</time>
      </trkpt>
      <trkpt lat="48.08651" lon="-4.52953">
        <ele>27.53</ele>
        <time>2017-05-25T16:08:13Z</time>
      </trkpt>
      <trkpt lat="48.08668" lon="-4.52958">
        <ele>27.53</ele>
        <time>2017-05-25T16:08:23Z</time>
      </trkpt>
      <trkpt lat="48.08669" lon="-4.52961">
        <ele>25.61</ele>
        <time>2017-05-25T16:08:36Z</time>
      </trkpt>
      <trkpt lat="48.0867" lon="-4.52963">
        <ele>24.17</ele>
        <time>2017-05-25T16:08:40Z</time>
      </trkpt>
      <trkpt lat="48.08678" lon="-4.52968">
        <ele>22.25</ele>
        <time>2017-05-25T16:08:53Z</time>
      </trkpt>
      <trkpt lat="48.08678" lon="-4.52967">
        <ele>22.73</ele>
        <time>2017-05-25T16:08:58Z</time>
      </trkpt>
      <trkpt lat="48.08669" lon="-4.52957">
        <ele>24.65</ele>
        <time>2017-05-25T16:09:12Z</time>
      </trkpt>
      <trkpt lat="48.08664" lon="-4.52949">
        <ele>25.13</ele>
        <time>2017-05-25T16:09:18Z</time>
      </trkpt>
      <trkpt lat="48.08662" lon="-4.52936">
        <ele>25.13</ele>
        <time>2017-05-25T16:09:25Z</time>
      </trkpt>
      <trkpt lat="48.08655" lon="-4.52913">
        <ele>23.69</ele>
        <time>2017-05-25T16:09:38Z</time>
      </trkpt>
      <trkpt lat="48.0865" lon="-4.52886">
        <ele>25.61</ele>
        <time>2017-05-25T16:09:50Z</time>
      </trkpt>
      <trkpt lat="48.0864" lon="-4.52874">
        <ele>25.61</ele>
        <time>2017-05-25T16:10:03Z</time>
      </trkpt>
      <trkpt lat="48.08639" lon="-4.52871">
        <ele>25.13</ele>
        <time>2017-05-25T16:10:05Z</time>
      </trkpt>
      <trkpt lat="48.08621" lon="-4.52861">
        <ele>23.69</ele>
        <time>2017-05-25T16:10:19Z</time>
      </trkpt>
      <trkpt lat="48.08616" lon="-4.52861">
        <ele>23.21</ele>
        <time>2017-05-25T16:10:25Z</time>
      </trkpt>
      <trkpt lat="48.08607" lon="-4.52862">
        <ele>22.73</ele>
        <time>2017-05-25T16:10:32Z</time>
      </trkpt>
      <trkpt lat="48.08601" lon="-4.52859">
        <ele>22.25</ele>
        <time>2017-05-25T16:10:38Z</time>
      </trkpt>
      <trkpt lat="48.08593" lon="-4.52852">
        <ele>21.77</ele>
        <time>2017-05-25T16:10:44Z</time>
      </trkpt>
      <trkpt lat="48.08589" lon="-4.52849">
        <ele>21.77</ele>
        <time>2017-05-25T16:10:48Z</time>
      </trkpt>
      <trkpt lat="48.08573" lon="-4.52841">
        <ele>22.73</ele>
        <time>2017-05-25T16:11:02Z</time>
      </trkpt>
      <trkpt lat="48.08563" lon="-4.52827">
        <ele>25.13</ele>
        <time>2017-05-25T16:11:14Z</time>
      </trkpt>
      <trkpt lat="48.08548" lon="-4.52802">
        <ele>23.21</ele>
        <time>2017-05-25T16:11:32Z</time>
      </trkpt>
      <trkpt lat="48.08546" lon="-4.52801">
        <ele>23.21</ele>
        <time>2017-05-25T16:11:34Z</time>
      </trkpt>
      <trkpt lat="48.08539" lon="-4.52802">
        <ele>23.21</ele>
        <time>2017-05-25T16:11:42Z</time>
      </trkpt>
      <trkpt lat="48.08534" lon="-4.52804">
        <ele>23.21</ele>
        <time>2017-05-25T16:11:58Z</time>
      </trkpt>
      <trkpt lat="48.08532" lon="-4.52802">
        <ele>25.13</ele>
        <time>2017-05-25T16:12:34Z</time>
      </trkpt>
      <trkpt lat="48.08528" lon="-4.52801">
        <ele>24.65</ele>
        <time>2017-05-25T16:12:49Z</time>
      </trkpt>
      <trkpt lat="48.08517" lon="-4.52799">
        <ele>24.17</ele>
        <time>2017-05-25T16:13:07Z</time>
      </trkpt>
      <trkpt lat="48.08518" lon="-4.52798">
        <ele>24.17</ele>
        <time>2017-05-25T16:13:10Z</time>
      </trkpt>
      <trkpt lat="48.08517" lon="-4.52794">
        <ele>24.17</ele>
        <time>2017-05-25T16:13:24Z</time>
      </trkpt>
      <trkpt lat="48.08515" lon="-4.5279">
        <ele>24.17</ele>
        <time>2017-05-25T16:13:43Z</time>
      </trkpt>
      <trkpt lat="48.08514" lon="-4.5279">
        <ele>24.65</ele>
        <time>2017-05-25T16:13:52Z</time>
      </trkpt>
      <trkpt lat="48.08509" lon="-4.5278">
        <ele>25.61</ele>
        <time>2017-05-25T16:14:04Z</time>
      </trkpt>
      <trkpt lat="48.08518" lon="-4.52767">
        <ele>28.02</ele>
        <time>2017-05-25T16:14:20Z</time>
      </trkpt>
      <trkpt lat="48.08519" lon="-4.52767">
        <ele>28.5</ele>
        <time>2017-05-25T16:14:21Z</time>
      </trkpt>
      <trkpt lat="48.08538" lon="-4.52759">
        <ele>30.42</ele>
        <time>2017-05-25T16:14:39Z</time>
      </trkpt>
      <trkpt lat="48.08545" lon="-4.52748">
        <ele>29.94</ele>
        <time>2017-05-25T16:14:47Z</time>
      </trkpt>
      <trkpt lat="48.08539" lon="-4.52734">
        <ele>29.94</ele>
        <time>2017-05-25T16:14:56Z</time>
      </trkpt>
      <trkpt lat="48.08532" lon="-4.52724">
        <ele>30.9</ele>
        <time>2017-05-25T16:15:05Z</time>
      </trkpt>
      <trkpt lat="48.08527" lon="-4.52719">
        <ele>32.34</ele>
        <time>2017-05-25T16:15:10Z</time>
      </trkpt>
      <trkpt lat="48.08521" lon="-4.52692">
        <ele>36.19</ele>
        <time>2017-05-25T16:15:25Z</time>
      </trkpt>
      <trkpt lat="48.08518" lon="-4.5268">
        <ele>37.15</ele>
        <time>2017-05-25T16:15:32Z</time>
      </trkpt>
      <trkpt lat="48.0851" lon="-4.52671">
        <ele>38.59</ele>
        <time>2017-05-25T16:15:41Z</time>
      </trkpt>
      <trkpt lat="48.08509" lon="-4.5266">
        <ele>39.55</ele>
        <time>2017-05-25T16:15:47Z</time>
      </trkpt>
      <trkpt lat="48.08509" lon="-4.52651">
        <ele>40.03</ele>
        <time>2017-05-25T16:15:52Z</time>
      </trkpt>
      <trkpt lat="48.08498" lon="-4.5264">
        <ele>41.95</ele>
        <time>2017-05-25T16:16:05Z</time>
      </trkpt>
      <trkpt lat="48.08493" lon="-4.52613">
        <ele>40.51</ele>
        <time>2017-05-25T16:16:20Z</time>
      </trkpt>
      <trkpt lat="48.08492" lon="-4.52606">
        <ele>40.03</ele>
        <time>2017-05-25T16:16:24Z</time>
      </trkpt>
      <trkpt lat="48.08493" lon="-4.526">
        <ele>39.55</ele>
        <time>2017-05-25T16:16:28Z</time>
      </trkpt>
      <trkpt lat="48.08495" lon="-4.52566">
        <ele>40.03</ele>
        <time>2017-05-25T16:16:46Z</time>
      </trkpt>
      <trkpt lat="48.0851" lon="-4.52543">
        <ele>40.51</ele>
        <time>2017-05-25T16:17:04Z</time>
      </trkpt>
      <trkpt lat="48.0852" lon="-4.52527">
        <ele>42.44</ele>
        <time>2017-05-25T16:17:17Z</time>
      </trkpt>
      <trkpt lat="48.08525" lon="-4.52512">
        <ele>42.44</ele>
        <time>2017-05-25T16:17:25Z</time>
      </trkpt>
      <trkpt lat="48.08535" lon="-4.52495">
        <ele>42.44</ele>
        <time>2017-05-25T16:17:35Z</time>
      </trkpt>
      <trkpt lat="48.0855" lon="-4.52471">
        <ele>44.36</ele>
        <time>2017-05-25T16:17:52Z</time>
      </trkpt>
      <trkpt lat="48.08561" lon="-4.52452">
        <ele>47.24</ele>
        <time>2017-05-25T16:18:07Z</time>
      </trkpt>
      <trkpt lat="48.08566" lon="-4.52444">
        <ele>48.68</ele>
        <time>2017-05-25T16:18:12Z</time>
      </trkpt>
      <trkpt lat="48.0857" lon="-4.52435">
        <ele>50.13</ele>
        <time>2017-05-25T16:18:19Z</time>
      </trkpt>
      <trkpt lat="48.08582" lon="-4.52435">
        <ele>50.61</ele>
        <time>2017-05-25T16:18:33Z</time>
      </trkpt>
      <trkpt lat="48.0859" lon="-4.52435">
        <ele>49.65</ele>
        <time>2017-05-25T16:18:38Z</time>
      </trkpt>
      <trkpt lat="48.086" lon="-4.52434">
        <ele>48.68</ele>
        <time>2017-05-25T16:18:45Z</time>
      </trkpt>
      <trkpt lat="48.08609" lon="-4.52425">
        <ele>46.76</ele>
        <time>2017-05-25T16:18:56Z</time>
      </trkpt>
      <trkpt lat="48.0861" lon="-4.52417">
        <ele>46.28</ele>
        <time>2017-05-25T16:19:15Z</time>
      </trkpt>
      <trkpt lat="48.0861" lon="-4.52415">
        <ele>45.8</ele>
        <time>2017-05-25T16:19:27Z</time>
      </trkpt>
      <trkpt lat="48.0861" lon="-4.52415">
        <ele>45.8</ele>
        <time>2017-05-25T16:19:30Z</time>
      </trkpt>
      <trkpt lat="48.08608" lon="-4.52414">
        <ele>45.8</ele>
        <time>2017-05-25T16:19:33Z</time>
      </trkpt>
      <trkpt lat="48.08606" lon="-4.52415">
        <ele>45.32</ele>
        <time>2017-05-25T16:19:46Z</time>
      </trkpt>
      <trkpt lat="48.08605" lon="-4.52415">
        <ele>45.8</ele>
        <time>2017-05-25T16:19:59Z</time>
      </trkpt>
      <trkpt lat="48.08604" lon="-4.52416">
        <ele>45.8</ele>
        <time>2017-05-25T16:20:06Z</time>
      </trkpt>
      <trkpt lat="48.08598" lon="-4.52413">
        <ele>46.28</ele>
        <time>2017-05-25T16:20:11Z</time>
      </trkpt>
      <trkpt lat="48.08582" lon="-4.52412">
        <ele>46.76</ele>
        <time>2017-05-25T16:20:22Z</time>
      </trkpt>
      <trkpt lat="48.08569" lon="-4.52407">
        <ele>49.16</ele>
        <time>2017-05-25T16:20:33Z</time>
      </trkpt>
      <trkpt lat="48.08559" lon="-4.52403">
        <ele>50.13</ele>
        <time>2017-05-25T16:20:44Z</time>
      </trkpt>
      <trkpt lat="48.08555" lon="-4.52397">
        <ele>49.16</ele>
        <time>2017-05-25T16:20:51Z</time>
      </trkpt>
      <trkpt lat="48.08546" lon="-4.5238">
        <ele>46.76</ele>
        <time>2017-05-25T16:21:06Z</time>
      </trkpt>
      <trkpt lat="48.08545" lon="-4.52378">
        <ele>45.8</ele>
        <time>2017-05-25T16:21:09Z</time>
      </trkpt>
      <trkpt lat="48.08534" lon="-4.52366">
        <ele>44.36</ele>
        <time>2017-05-25T16:21:21Z</time>
      </trkpt>
      <trkpt lat="48.08531" lon="-4.52361">
        <ele>43.88</ele>
        <time>2017-05-25T16:21:24Z</time>
      </trkpt>
      <trkpt lat="48.0852" lon="-4.52346">
        <ele>43.4</ele>
        <time>2017-05-25T16:21:35Z</time>
      </trkpt>
      <trkpt lat="48.08518" lon="-4.52344">
        <ele>43.4</ele>
        <time>2017-05-25T16:21:37Z</time>
      </trkpt>
      <trkpt lat="48.08514" lon="-4.52337">
        <ele>43.4</ele>
        <time>2017-05-25T16:21:44Z</time>
      </trkpt>
      <trkpt lat="48.08512" lon="-4.52334">
        <ele>43.4</ele>
        <time>2017-05-25T16:21:46Z</time>
      </trkpt>
      <trkpt lat="48.08512" lon="-4.52323">
        <ele>41.95</ele>
        <time>2017-05-25T16:21:53Z</time>
      </trkpt>
      <trkpt lat="48.08511" lon="-4.523">
        <ele>41.95</ele>
        <time>2017-05-25T16:22:08Z</time>
      </trkpt>
      <trkpt lat="48.08517" lon="-4.52272">
        <ele>44.36</ele>
        <time>2017-05-25T16:22:26Z</time>
      </trkpt>
      <trkpt lat="48.08518" lon="-4.5227">
        <ele>44.36</ele>
        <time>2017-05-25T16:22:27Z</time>
      </trkpt>
      <trkpt lat="48.08531" lon="-4.52255">
        <ele>42.44</ele>
        <time>2017-05-25T16:22:41Z</time>
      </trkpt>
      <trkpt lat="48.08534" lon="-4.52253">
        <ele>41.95</ele>
        <time>2017-05-25T16:22:43Z</time>
      </trkpt>
      <trkpt lat="48.08542" lon="-4.52246">
        <ele>40.51</ele>
        <time>2017-05-25T16:22:51Z</time>
      </trkpt>
      <trkpt lat="48.08547" lon="-4.52244">
        <ele>40.03</ele>
        <time>2017-05-25T16:22:55Z</time>
      </trkpt>
      <trkpt lat="48.0856" lon="-4.52235">
        <ele>39.55</ele>
        <time>2017-05-25T16:23:09Z</time>
      </trkpt>
      <trkpt lat="48.08581" lon="-4.52224">
        <ele>37.15</ele>
        <time>2017-05-25T16:23:24Z</time>
      </trkpt>
      <trkpt lat="48.08597" lon="-4.52205">
        <ele>37.15</ele>
        <time>2017-05-25T16:23:38Z</time>
      </trkpt>
      <trkpt lat="48.08601" lon="-4.52198">
        <ele>38.11</ele>
        <time>2017-05-25T16:23:43Z</time>
      </trkpt>
      <trkpt lat="48.08615" lon="-4.52166">
        <ele>38.11</ele>
        <time>2017-05-25T16:24:01Z</time>
      </trkpt>
      <trkpt lat="48.08619" lon="-4.52132">
        <ele>38.59</ele>
        <time>2017-05-25T16:24:20Z</time>
      </trkpt>
      <trkpt lat="48.08625" lon="-4.52114">
        <ele>38.59</ele>
        <time>2017-05-25T16:24:33Z</time>
      </trkpt>
      <trkpt lat="48.08644" lon="-4.52092">
        <ele>39.55</ele>
        <time>2017-05-25T16:24:49Z</time>
      </trkpt>
      <trkpt lat="48.08654" lon="-4.52071">
        <ele>39.55</ele>
        <time>2017-05-25T16:25:04Z</time>
      </trkpt>
      <trkpt lat="48.08656" lon="-4.52068">
        <ele>40.03</ele>
        <time>2017-05-25T16:25:06Z</time>
      </trkpt>
      <trkpt lat="48.08656" lon="-4.52057">
        <ele>41.47</ele>
        <time>2017-05-25T16:25:13Z</time>
      </trkpt>
      <trkpt lat="48.08672" lon="-4.52038">
        <ele>44.84</ele>
        <time>2017-05-25T16:25:31Z</time>
      </trkpt>
      <trkpt lat="48.08674" lon="-4.52036">
        <ele>45.32</ele>
        <time>2017-05-25T16:25:33Z</time>
      </trkpt>
      <trkpt lat="48.08679" lon="-4.52031">
        <ele>46.76</ele>
        <time>2017-05-25T16:25:37Z</time>
      </trkpt>
      <trkpt lat="48.08685" lon="-4.52011">
        <ele>50.13</ele>
        <time>2017-05-25T16:25:53Z</time>
      </trkpt>
      <trkpt lat="48.08685" lon="-4.52012">
        <ele>51.09</ele>
        <time>2017-05-25T16:26:12Z</time>
      </trkpt>
      <trkpt lat="48.08682" lon="-4.51992">
        <ele>52.53</ele>
        <time>2017-05-25T16:26:26Z</time>
      </trkpt>
      <trkpt lat="48.08682" lon="-4.5199">
        <ele>52.53</ele>
        <time>2017-05-25T16:26:28Z</time>
      </trkpt>
      <trkpt lat="48.08684" lon="-4.51983">
        <ele>53.01</ele>
        <time>2017-05-25T16:26:32Z</time>
      </trkpt>
      <trkpt lat="48.08684" lon="-4.51977">
        <ele>52.53</ele>
        <time>2017-05-25T16:26:36Z</time>
      </trkpt>
      <trkpt lat="48.08682" lon="-4.51969">
        <ele>52.53</ele>
        <time>2017-05-25T16:26:42Z</time>
      </trkpt>
      <trkpt lat="48.08681" lon="-4.51963">
        <ele>53.49</ele>
        <time>2017-05-25T16:26:58Z</time>
      </trkpt>
      <trkpt lat="48.08681" lon="-4.51965">
        <ele>53.49</ele>
        <time>2017-05-25T16:27:18Z</time>
      </trkpt>
      <trkpt lat="48.08681" lon="-4.51965">
        <ele>53.49</ele>
        <time>2017-05-25T16:27:36Z</time>
      </trkpt>
      <trkpt lat="48.08681" lon="-4.51965">
        <ele>53.01</ele>
        <time>2017-05-25T16:27:53Z</time>
      </trkpt>
      <trkpt lat="48.08681" lon="-4.51965">
        <ele>53.01</ele>
        <time>2017-05-25T16:28:13Z</time>
      </trkpt>
      <trkpt lat="48.08681" lon="-4.51965">
        <ele>53.01</ele>
        <time>2017-05-25T16:28:37Z</time>
      </trkpt>
      <trkpt lat="48.08681" lon="-4.51966">
        <ele>52.05</ele>
        <time>2017-05-25T16:29:01Z</time>
      </trkpt>
      <trkpt lat="48.08678" lon="-4.51958">
        <ele>52.05</ele>
        <time>2017-05-25T16:29:07Z</time>
      </trkpt>
      <trkpt lat="48.08673" lon="-4.51955">
        <ele>53.01</ele>
        <time>2017-05-25T16:29:13Z</time>
      </trkpt>
      <trkpt lat="48.08666" lon="-4.51946">
        <ele>54.45</ele>
        <time>2017-05-25T16:29:19Z</time>
      </trkpt>
      <trkpt lat="48.08655" lon="-4.51933">
        <ele>55.89</ele>
        <time>2017-05-25T16:29:32Z</time>
      </trkpt>
      <trkpt lat="48.08649" lon="-4.51926">
        <ele>55.89</ele>
        <time>2017-05-25T16:29:38Z</time>
      </trkpt>
      <trkpt lat="48.08639" lon="-4.51918">
        <ele>57.82</ele>
        <time>2017-05-25T16:29:48Z</time>
      </trkpt>
      <trkpt lat="48.08634" lon="-4.51911">
        <ele>59.26</ele>
        <time>2017-05-25T16:29:54Z</time>
      </trkpt>
      <trkpt lat="48.08625" lon="-4.51906">
        <ele>60.22</ele>
        <time>2017-05-25T16:30:02Z</time>
      </trkpt>
      <trkpt lat="48.08614" lon="-4.51893">
        <ele>61.66</ele>
        <time>2017-05-25T16:30:14Z</time>
      </trkpt>
      <trkpt lat="48.08607" lon="-4.51889">
        <ele>62.14</ele>
        <time>2017-05-25T16:30:20Z</time>
      </trkpt>
      <trkpt lat="48.0859" lon="-4.51879">
        <ele>67.43</ele>
        <time>2017-05-25T16:30:36Z</time>
      </trkpt>
      <trkpt lat="48.08582" lon="-4.51876">
        <ele>69.35</ele>
        <time>2017-05-25T16:30:43Z</time>
      </trkpt>
      <trkpt lat="48.08563" lon="-4.51869">
        <ele>71.27</ele>
        <time>2017-05-25T16:30:59Z</time>
      </trkpt>
      <trkpt lat="48.08546" lon="-4.51872">
        <ele>74.64</ele>
        <time>2017-05-25T16:31:13Z</time>
      </trkpt>
      <trkpt lat="48.08531" lon="-4.51867">
        <ele>78.97</ele>
        <time>2017-05-25T16:31:28Z</time>
      </trkpt>
      <trkpt lat="48.0853" lon="-4.51867">
        <ele>79.45</ele>
        <time>2017-05-25T16:31:29Z</time>
      </trkpt>
      <trkpt lat="48.08513" lon="-4.51869">
        <ele>79.45</ele>
        <time>2017-05-25T16:31:43Z</time>
      </trkpt>
      <trkpt lat="48.08505" lon="-4.51871">
        <ele>79.93</ele>
        <time>2017-05-25T16:31:50Z</time>
      </trkpt>
      <trkpt lat="48.08494" lon="-4.51867">
        <ele>80.89</ele>
        <time>2017-05-25T16:32:00Z</time>
      </trkpt>
      <trkpt lat="48.08479" lon="-4.51866">
        <ele>82.33</ele>
        <time>2017-05-25T16:32:16Z</time>
      </trkpt>
      <trkpt lat="48.0846" lon="-4.51851">
        <ele>83.77</ele>
        <time>2017-05-25T16:32:33Z</time>
      </trkpt>
      <trkpt lat="48.08459" lon="-4.51849">
        <ele>84.25</ele>
        <time>2017-05-25T16:32:35Z</time>
      </trkpt>
      <trkpt lat="48.0845" lon="-4.51843">
        <ele>84.25</ele>
        <time>2017-05-25T16:32:43Z</time>
      </trkpt>
      <trkpt lat="48.08431" lon="-4.5183">
        <ele>84.25</ele>
        <time>2017-05-25T16:32:58Z</time>
      </trkpt>
      <trkpt lat="48.0843" lon="-4.5183">
        <ele>84.25</ele>
        <time>2017-05-25T16:32:59Z</time>
      </trkpt>
      <trkpt lat="48.08426" lon="-4.51828">
        <ele>84.25</ele>
        <time>2017-05-25T16:33:04Z</time>
      </trkpt>
      <trkpt lat="48.08411" lon="-4.5182">
        <ele>84.25</ele>
        <time>2017-05-25T16:33:18Z</time>
      </trkpt>
      <trkpt lat="48.08409" lon="-4.51818">
        <ele>83.77</ele>
        <time>2017-05-25T16:33:25Z</time>
      </trkpt>
      <trkpt lat="48.08392" lon="-4.51801">
        <ele>85.21</ele>
        <time>2017-05-25T16:33:40Z</time>
      </trkpt>
      <trkpt lat="48.08389" lon="-4.51795">
        <ele>85.21</ele>
        <time>2017-05-25T16:33:44Z</time>
      </trkpt>
      <trkpt lat="48.08392" lon="-4.51768">
        <ele>85.69</ele>
        <time>2017-05-25T16:34:00Z</time>
      </trkpt>
      <trkpt lat="48.08401" lon="-4.51764">
        <ele>85.21</ele>
        <time>2017-05-25T16:34:10Z</time>
      </trkpt>
      <trkpt lat="48.08409" lon="-4.5177">
        <ele>85.21</ele>
        <time>2017-05-25T16:34:29Z</time>
      </trkpt>
      <trkpt lat="48.08408" lon="-4.51765">
        <ele>84.73</ele>
        <time>2017-05-25T16:34:50Z</time>
      </trkpt>
      <trkpt lat="48.08401" lon="-4.51772">
        <ele>84.73</ele>
        <time>2017-05-25T16:35:11Z</time>
      </trkpt>
      <trkpt lat="48.08403" lon="-4.51776">
        <ele>85.69</ele>
        <time>2017-05-25T16:35:35Z</time>
      </trkpt>
      <trkpt lat="48.08403" lon="-4.51768">
        <ele>85.21</ele>
        <time>2017-05-25T16:36:02Z</time>
      </trkpt>
      <trkpt lat="48.08401" lon="-4.51772">
        <ele>84.73</ele>
        <time>2017-05-25T16:36:29Z</time>
      </trkpt>
      <trkpt lat="48.08413" lon="-4.51767">
        <ele>88.58</ele>
        <time>2017-05-25T16:36:55Z</time>
      </trkpt>
      <trkpt lat="48.08411" lon="-4.51769">
        <ele>88.1</ele>
        <time>2017-05-25T16:37:01Z</time>
      </trkpt>
      <trkpt lat="48.08403" lon="-4.51774">
        <ele>86.66</ele>
        <time>2017-05-25T16:37:25Z</time>
      </trkpt>
      <trkpt lat="48.08393" lon="-4.51778">
        <ele>89.54</ele>
        <time>2017-05-25T16:37:47Z</time>
      </trkpt>
      <trkpt lat="48.08397" lon="-4.51766">
        <ele>92.9</ele>
        <time>2017-05-25T16:38:09Z</time>
      </trkpt>
      <trkpt lat="48.08395" lon="-4.51759">
        <ele>94.83</ele>
        <time>2017-05-25T16:38:37Z</time>
      </trkpt>
      <trkpt lat="48.08406" lon="-4.51762">
        <ele>94.83</ele>
        <time>2017-05-25T16:39:22Z</time>
      </trkpt>
      <trkpt lat="48.08399" lon="-4.51766">
        <ele>83.77</ele>
        <time>2017-05-25T16:39:48Z</time>
      </trkpt>
      <trkpt lat="48.08398" lon="-4.51766">
        <ele>83.77</ele>
        <time>2017-05-25T16:39:49Z</time>
      </trkpt>
      <trkpt lat="48.08391" lon="-4.51766">
        <ele>82.33</ele>
        <time>2017-05-25T16:39:57Z</time>
      </trkpt>
      <trkpt lat="48.08388" lon="-4.51786">
        <ele>83.29</ele>
        <time>2017-05-25T16:40:10Z</time>
      </trkpt>
      <trkpt lat="48.08389" lon="-4.51788">
        <ele>82.81</ele>
        <time>2017-05-25T16:40:12Z</time>
      </trkpt>
      <trkpt lat="48.08387" lon="-4.51801">
        <ele>83.77</ele>
        <time>2017-05-25T16:40:22Z</time>
      </trkpt>
      <trkpt lat="48.08382" lon="-4.51799">
        <ele>82.81</ele>
        <time>2017-05-25T16:40:27Z</time>
      </trkpt>
      <trkpt lat="48.08377" lon="-4.51797">
        <ele>82.33</ele>
        <time>2017-05-25T16:40:31Z</time>
      </trkpt>
      <trkpt lat="48.08365" lon="-4.51792">
        <ele>82.81</ele>
        <time>2017-05-25T16:40:41Z</time>
      </trkpt>
      <trkpt lat="48.08356" lon="-4.51786">
        <ele>83.77</ele>
        <time>2017-05-25T16:40:50Z</time>
      </trkpt>
      <trkpt lat="48.08342" lon="-4.51778">
        <ele>85.21</ele>
        <time>2017-05-25T16:41:02Z</time>
      </trkpt>
      <trkpt lat="48.0833" lon="-4.51768">
        <ele>87.14</ele>
        <time>2017-05-25T16:41:16Z</time>
      </trkpt>
      <trkpt lat="48.08322" lon="-4.51763">
        <ele>86.18</ele>
        <time>2017-05-25T16:41:24Z</time>
      </trkpt>
      <trkpt lat="48.083" lon="-4.51748">
        <ele>83.29</ele>
        <time>2017-05-25T16:41:42Z</time>
      </trkpt>
      <trkpt lat="48.08296" lon="-4.51745">
        <ele>83.29</ele>
        <time>2017-05-25T16:41:46Z</time>
      </trkpt>
      <trkpt lat="48.08292" lon="-4.51742">
        <ele>82.81</ele>
        <time>2017-05-25T16:41:50Z</time>
      </trkpt>
      <trkpt lat="48.0828" lon="-4.51733">
        <ele>81.37</ele>
        <time>2017-05-25T16:42:00Z</time>
      </trkpt>
      <trkpt lat="48.08274" lon="-4.51732">
        <ele>80.41</ele>
        <time>2017-05-25T16:42:05Z</time>
      </trkpt>
      <trkpt lat="48.08266" lon="-4.51728">
        <ele>79.93</ele>
        <time>2017-05-25T16:42:10Z</time>
      </trkpt>
      <trkpt lat="48.08245" lon="-4.51718">
        <ele>81.37</ele>
        <time>2017-05-25T16:42:27Z</time>
      </trkpt>
      <trkpt lat="48.08235" lon="-4.51714">
        <ele>82.33</ele>
        <time>2017-05-25T16:42:36Z</time>
      </trkpt>
      <trkpt lat="48.08224" lon="-4.51704">
        <ele>80.89</ele>
        <time>2017-05-25T16:42:46Z</time>
      </trkpt>
      <trkpt lat="48.08215" lon="-4.51698">
        <ele>78.97</ele>
        <time>2017-05-25T16:42:53Z</time>
      </trkpt>
      <trkpt lat="48.08201" lon="-4.51692">
        <ele>78</ele>
        <time>2017-05-25T16:43:04Z</time>
      </trkpt>
      <trkpt lat="48.08188" lon="-4.51686">
        <ele>76.08</ele>
        <time>2017-05-25T16:43:14Z</time>
      </trkpt>
      <trkpt lat="48.08186" lon="-4.51686">
        <ele>76.08</ele>
        <time>2017-05-25T16:43:16Z</time>
      </trkpt>
      <trkpt lat="48.08182" lon="-4.51683">
        <ele>76.08</ele>
        <time>2017-05-25T16:43:20Z</time>
      </trkpt>
      <trkpt lat="48.0817" lon="-4.51674">
        <ele>75.12</ele>
        <time>2017-05-25T16:43:30Z</time>
      </trkpt>
      <trkpt lat="48.08154" lon="-4.51662">
        <ele>75.6</ele>
        <time>2017-05-25T16:43:43Z</time>
      </trkpt>
      <trkpt lat="48.08144" lon="-4.51654">
        <ele>77.52</ele>
        <time>2017-05-25T16:43:55Z</time>
      </trkpt>
      <trkpt lat="48.08138" lon="-4.51652">
        <ele>78</ele>
        <time>2017-05-25T16:44:00Z</time>
      </trkpt>
      <trkpt lat="48.08126" lon="-4.51643">
        <ele>79.45</ele>
        <time>2017-05-25T16:44:11Z</time>
      </trkpt>
      <trkpt lat="48.08119" lon="-4.5164">
        <ele>79.45</ele>
        <time>2017-05-25T16:44:16Z</time>
      </trkpt>
      <trkpt lat="48.08108" lon="-4.51634">
        <ele>79.45</ele>
        <time>2017-05-25T16:44:25Z</time>
      </trkpt>
      <trkpt lat="48.08101" lon="-4.51632">
        <ele>78.48</ele>
        <time>2017-05-25T16:44:31Z</time>
      </trkpt>
      <trkpt lat="48.08091" lon="-4.51627">
        <ele>76.56</ele>
        <time>2017-05-25T16:44:39Z</time>
      </trkpt>
      <trkpt lat="48.08088" lon="-4.51625">
        <ele>76.08</ele>
        <time>2017-05-25T16:44:42Z</time>
      </trkpt>
      <trkpt lat="48.08081" lon="-4.51624">
        <ele>76.56</ele>
        <time>2017-05-25T16:44:48Z</time>
      </trkpt>
      <trkpt lat="48.08077" lon="-4.5162">
        <ele>77.04</ele>
        <time>2017-05-25T16:44:51Z</time>
      </trkpt>
      <trkpt lat="48.08072" lon="-4.51619">
        <ele>77.04</ele>
        <time>2017-05-25T16:44:56Z</time>
      </trkpt>
      <trkpt lat="48.08061" lon="-4.51609">
        <ele>76.56</ele>
        <time>2017-05-25T16:45:05Z</time>
      </trkpt>
      <trkpt lat="48.08054" lon="-4.51606">
        <ele>76.08</ele>
        <time>2017-05-25T16:45:12Z</time>
      </trkpt>
      <trkpt lat="48.08047" lon="-4.51602">
        <ele>76.08</ele>
        <time>2017-05-25T16:45:17Z</time>
      </trkpt>
      <trkpt lat="48.08043" lon="-4.516">
        <ele>76.08</ele>
        <time>2017-05-25T16:45:19Z</time>
      </trkpt>
      <trkpt lat="48.08035" lon="-4.51593">
        <ele>74.64</ele>
        <time>2017-05-25T16:45:25Z</time>
      </trkpt>
      <trkpt lat="48.08029" lon="-4.51589">
        <ele>73.68</ele>
        <time>2017-05-25T16:45:32Z</time>
      </trkpt>
      <trkpt lat="48.08016" lon="-4.5158">
        <ele>74.16</ele>
        <time>2017-05-25T16:45:43Z</time>
      </trkpt>
      <trkpt lat="48.08004" lon="-4.51573">
        <ele>74.16</ele>
        <time>2017-05-25T16:45:54Z</time>
      </trkpt>
      <trkpt lat="48.07991" lon="-4.51568">
        <ele>76.56</ele>
        <time>2017-05-25T16:46:06Z</time>
      </trkpt>
      <trkpt lat="48.07976" lon="-4.51558">
        <ele>75.12</ele>
        <time>2017-05-25T16:46:18Z</time>
      </trkpt>
      <trkpt lat="48.07968" lon="-4.51557">
        <ele>76.08</ele>
        <time>2017-05-25T16:46:24Z</time>
      </trkpt>
      <trkpt lat="48.07957" lon="-4.51552">
        <ele>76.08</ele>
        <time>2017-05-25T16:46:34Z</time>
      </trkpt>
      <trkpt lat="48.07947" lon="-4.51552">
        <ele>76.56</ele>
        <time>2017-05-25T16:46:41Z</time>
      </trkpt>
      <trkpt lat="48.07938" lon="-4.51551">
        <ele>76.56</ele>
        <time>2017-05-25T16:46:46Z</time>
      </trkpt>
      <trkpt lat="48.07928" lon="-4.51549">
        <ele>77.04</ele>
        <time>2017-05-25T16:46:54Z</time>
      </trkpt>
      <trkpt lat="48.07911" lon="-4.51543">
        <ele>78</ele>
        <time>2017-05-25T16:47:09Z</time>
      </trkpt>
      <trkpt lat="48.07886" lon="-4.51538">
        <ele>78.48</ele>
        <time>2017-05-25T16:47:25Z</time>
      </trkpt>
      <trkpt lat="48.07867" lon="-4.51535">
        <ele>78.97</ele>
        <time>2017-05-25T16:47:41Z</time>
      </trkpt>
      <trkpt lat="48.07847" lon="-4.5153">
        <ele>78</ele>
        <time>2017-05-25T16:47:56Z</time>
      </trkpt>
      <trkpt lat="48.07825" lon="-4.51524">
        <ele>78.97</ele>
        <time>2017-05-25T16:48:12Z</time>
      </trkpt>
      <trkpt lat="48.07806" lon="-4.51518">
        <ele>79.93</ele>
        <time>2017-05-25T16:48:28Z</time>
      </trkpt>
      <trkpt lat="48.07804" lon="-4.51517">
        <ele>79.45</ele>
        <time>2017-05-25T16:48:30Z</time>
      </trkpt>
      <trkpt lat="48.07786" lon="-4.51514">
        <ele>79.93</ele>
        <time>2017-05-25T16:48:45Z</time>
      </trkpt>
      <trkpt lat="48.07781" lon="-4.51514">
        <ele>80.41</ele>
        <time>2017-05-25T16:49:00Z</time>
      </trkpt>
      <trkpt lat="48.07767" lon="-4.51506">
        <ele>80.89</ele>
        <time>2017-05-25T16:49:13Z</time>
      </trkpt>
      <trkpt lat="48.0776" lon="-4.51499">
        <ele>81.85</ele>
        <time>2017-05-25T16:49:25Z</time>
      </trkpt>
      <trkpt lat="48.07766" lon="-4.51482">
        <ele>81.37</ele>
        <time>2017-05-25T16:49:36Z</time>
      </trkpt>
      <trkpt lat="48.07768" lon="-4.51458">
        <ele>81.85</ele>
        <time>2017-05-25T16:49:53Z</time>
      </trkpt>
      <trkpt lat="48.07769" lon="-4.5146">
        <ele>80.89</ele>
        <time>2017-05-25T16:50:12Z</time>
      </trkpt>
      <trkpt lat="48.07769" lon="-4.51466">
        <ele>82.33</ele>
        <time>2017-05-25T16:50:30Z</time>
      </trkpt>
      <trkpt lat="48.07769" lon="-4.51473">
        <ele>83.29</ele>
        <time>2017-05-25T16:50:48Z</time>
      </trkpt>
      <trkpt lat="48.07763" lon="-4.51493">
        <ele>84.25</ele>
        <time>2017-05-25T16:51:04Z</time>
      </trkpt>
      <trkpt lat="48.07761" lon="-4.51502">
        <ele>83.77</ele>
        <time>2017-05-25T16:51:15Z</time>
      </trkpt>
      <trkpt lat="48.07743" lon="-4.515">
        <ele>81.85</ele>
        <time>2017-05-25T16:51:30Z</time>
      </trkpt>
      <trkpt lat="48.07725" lon="-4.51499">
        <ele>82.33</ele>
        <time>2017-05-25T16:51:44Z</time>
      </trkpt>
      <trkpt lat="48.07708" lon="-4.51496">
        <ele>81.85</ele>
        <time>2017-05-25T16:51:58Z</time>
      </trkpt>
      <trkpt lat="48.07693" lon="-4.5149">
        <ele>80.89</ele>
        <time>2017-05-25T16:52:11Z</time>
      </trkpt>
      <trkpt lat="48.07673" lon="-4.51485">
        <ele>78</ele>
        <time>2017-05-25T16:52:26Z</time>
      </trkpt>
      <trkpt lat="48.07655" lon="-4.51481">
        <ele>77.04</ele>
        <time>2017-05-25T16:52:42Z</time>
      </trkpt>
      <trkpt lat="48.07642" lon="-4.51478">
        <ele>77.52</ele>
        <time>2017-05-25T16:52:52Z</time>
      </trkpt>
      <trkpt lat="48.07637" lon="-4.51477">
        <ele>78.48</ele>
        <time>2017-05-25T16:52:56Z</time>
      </trkpt>
      <trkpt lat="48.07622" lon="-4.51474">
        <ele>79.93</ele>
        <time>2017-05-25T16:53:08Z</time>
      </trkpt>
      <trkpt lat="48.07602" lon="-4.5147">
        <ele>81.37</ele>
        <time>2017-05-25T16:53:23Z</time>
      </trkpt>
      <trkpt lat="48.07579" lon="-4.51468">
        <ele>83.29</ele>
        <time>2017-05-25T16:53:39Z</time>
      </trkpt>
      <trkpt lat="48.07567" lon="-4.51466">
        <ele>85.69</ele>
        <time>2017-05-25T16:53:51Z</time>
      </trkpt>
      <trkpt lat="48.07558" lon="-4.51462">
        <ele>82.81</ele>
        <time>2017-05-25T16:53:59Z</time>
      </trkpt>
      <trkpt lat="48.07567" lon="-4.5145">
        <ele>78.97</ele>
        <time>2017-05-25T16:54:10Z</time>
      </trkpt>
      <trkpt lat="48.07562" lon="-4.51444">
        <ele>76.08</ele>
        <time>2017-05-25T16:54:27Z</time>
      </trkpt>
      <trkpt lat="48.07564" lon="-4.51432">
        <ele>78</ele>
        <time>2017-05-25T16:54:34Z</time>
      </trkpt>
      <trkpt lat="48.07563" lon="-4.5143">
        <ele>80.41</ele>
        <time>2017-05-25T16:54:38Z</time>
      </trkpt>
      <trkpt lat="48.07553" lon="-4.51427">
        <ele>85.21</ele>
        <time>2017-05-25T16:54:53Z</time>
      </trkpt>
    </trkseg>
  </trk>
</gpx>